              Height (m), 1500.0000, 1650.0000, 1800.0000, 1950.0000, 2100.0000, 2250.0000, 2400.0000, 2550.0000, 2700.0000, 2850.0000, 3000.0000, 3150.0000, 3300.0000, 3450.0000, 3600.0000, 3750.0000, 3900.0000, 4050.0000, 4200.0000, 4350.0000, 4500.0000, 4650.0000, 4800.0000, 4950.0000, 5100.0000, 5250.0000, 5400.0000, 5550.0000, 5700.0000, 5850.0000, 6000.0000, 6150.0000, 6300.0000, 6450.0000, 6600.0000, 6750.0000, 6900.0000, 7050.0000, 7200.0000, 7350.0000, 7500.0000, 7650.0000, 7800.0000, 7950.0000, 8100.0000, 8250.0000, 8400.0000, 8550.0000, 8700.0000, 8850.0000, 9000.0000, 9150.0000, 9300.0000, 9450.0000, 9600.0000, 9750.0000, 9900.0000,10050.0000,10200.0000,10350.0000,10500.0000,10650.0000,10800.0000,10950.0000,11100.0000,
  8-AUG-2000 00:03:04.00,  999.0000,  999.0000,  999.0000,  999.0000,    0.0286,    0.1391,  999.0000,  999.0000,  999.0000,  999.0000,  999.0000,  999.0000,   -1.1896,   -1.2342,  999.0000,  999.0000,  999.0000,  999.0000,   -0.1956,    0.0903,    0.4678,    0.6126,    0.5175,    1.0825,    2.2470,    3.2175,  999.0000,    4.1657,    5.0392,    5.9126,    6.5814,    7.1325,    6.9616,    6.4295,    6.0903,    5.8345,    5.7788,    5.7969,    5.8856,    5.9963,    5.8482,    5.6328,    6.0227,    6.5407,    6.9503,    7.3419,    7.5789,    7.7967,    8.0634,    8.3343,    8.7663,    9.2064,    9.1120,    9.0022,    7.8015,    7.7503,    7.7124,    6.9284,    7.4668,    7.9369,    7.8614,    7.9148,    8.7404,    9.6182,   10.7426,
  8-AUG-2000 00:08:08.00,    0.4321,    0.6223,    0.5916,    0.5087,  999.0000,  999.0000,   -0.3428,   -0.4852,   -0.2453,   -0.0301,    0.1279,    0.0415,   -0.5334,   -0.8077,  999.0000,  999.0000,  999.0000,  999.0000,  999.0000,  999.0000,    0.9307,    1.0575,    1.0589,    1.4008,    2.0518,    2.8898,    3.8773,    4.2996,    5.2435,    6.2556,    6.9690,    7.6391,    7.5115,    6.9813,    6.3718,    5.7280,    5.6228,    5.7168,    5.6276,    5.4812,    5.2476,    4.9913,    5.2811,    5.6864,    6.0878,    6.4885,    6.7797,    7.0572,    7.6613,    8.2936,    8.7182,    9.1325,    9.1597,    9.1743,    8.7896,    8.3954,    7.8097,    7.2794,    7.3907,    7.5076,    7.6687,    7.8855,    8.4365,    9.1309,   10.5023,
  8-AUG-2000 00:13:14.00,  999.0000,  999.0000,  999.0000,    0.5197,   -0.3244,   -0.9664,   -0.9620,   -0.8791,   -0.5835,   -0.4739,   -0.7942,   -1.0375,   -1.1268,   -1.4068,   -2.0183,   -2.4985,   -2.7794,   -2.7172,   -2.1978,   -1.3841,   -0.2254,    0.4939,    0.7601,    1.3468,    2.2246,    3.3036,  999.0000,    4.4117,    5.3275,    7.6309,    7.8504,    8.3216,    8.2452,    7.6681,    7.0872,    6.4400,    6.2360,    6.1958,    6.3505,    6.5494,    6.6496,    6.6698,    6.7199,    6.7738,    7.0500,    7.3633,    7.6734,    7.9831,    8.3909,    8.8072,    9.2131,    9.6185,    9.0837,    8.5381,    8.2526,    7.9433,    7.1583,    6.4413,    6.5113,    6.5809,    6.6479,    6.8600,    7.9418,    9.0984,   10.6086,
  8-AUG-2000 00:18:18.00,    0.4453,    0.6300,    0.7748,    0.7952,    0.3373,   -0.0035,    0.0301,    0.0480,    0.0231,   -0.0432,  999.0000,  999.0000,   -0.5304,   -0.9434,   -1.7919,   -2.3302,   -2.3975,   -2.1518,  999.0000,  999.0000,   -0.1637,    0.3067,    0.5788,    1.3715,    2.6369,    3.7026,  999.0000,    4.8477,    5.3780,  999.0000,    8.2328,    8.4193,    8.2204,    8.0127,    7.9845,    7.7750,    7.5674,    7.3603,    7.2382,    6.5098,    6.5610,    7.0201,    7.0897,    7.1861,    7.6594,    8.1955,    8.1218,    7.9719,    8.3824,    8.8411,    8.9069,    8.9532,    8.6899,    8.1354,    7.8038,    7.4853,    7.4303,    7.3577,    7.6323,    7.8625,    7.7375,    7.7808,    8.8321,    9.9043,   11.0748,
  8-AUG-2000 00:23:22.00,  999.0000,  999.0000,  999.0000,   -0.2290,   -0.5714,   -0.8433,   -0.8901,   -0.9714,  999.0000,  999.0000,  999.0000,  999.0000,  999.0000,  999.0000,  999.0000,  999.0000,   -2.5435,   -2.3880,   -1.7926,   -1.1803,  999.0000,  999.0000,    0.7156,    1.4588,    2.3029,    3.3296,  999.0000,  999.0000,    6.8472,    7.6487,    7.9901,    8.3315,    8.2685,    8.0031,    7.8585,    7.8034,    7.6986,    7.6260,    7.5011,    7.3581,    7.4684,    7.6446,    7.8558,    8.0744,    8.3599,    8.6564,    8.6126,    8.5262,    8.8279,    9.1800,    8.5476,    8.1769,  999.0000,  999.0000,  999.0000,  999.0000,    7.2899,    7.8077,    8.0021,    8.1752,    8.1779,    8.3420,    9.3764,   10.5052,   11.4206,
  8-AUG-2000 00:28:26.00,  999.0000,  999.0000,  999.0000,  999.0000,  999.0000,  999.0000,  999.0000,  999.0000,   -0.4766,   -0.6271,   -0.7588,   -0.9848,  999.0000,  999.0000,   -2.2291,   -2.5756,   -2.8184,   -2.7282,  999.0000,  999.0000,  999.0000,  999.0000,   -0.0583,    0.6770,  999.0000,  999.0000,  999.0000,  999.0000,    5.2682,    6.4182,    6.6545,    6.8907,    6.9021,    6.7260,    6.7867,  999.0000,    7.0186,    7.1286,    6.9069,    6.5790,    6.7846,    7.1288,    7.0908,    6.9719,    7.2455,    7.5845,    7.8709,    8.1507,    9.7749,  999.0000,  999.0000,    9.7298,    9.0743,    8.4140,    8.4383,    8.4564,    8.3518,    8.2705,    8.4582,    8.6273,    8.6483,    8.7863,  999.0000,  999.0000,  999.0000,
  8-AUG-2000 00:33:31.00,   -0.0403,   -0.1925,  999.0000,  999.0000,   -1.5201,   -1.7889,  999.0000,  999.0000,   -0.9287,   -0.7364,   -0.7628,   -0.8550,   -1.0788,   -1.2612,  999.0000,  999.0000,   -1.5926,   -1.4900,   -1.1038,   -0.6203,  999.0000,  999.0000,    1.1725,    1.8265,  999.0000,  999.0000,  999.0000,  999.0000,  999.0000,    6.6839,    6.9047,    7.1255,    7.0328,    6.3609,    6.2307,    6.4750,    6.4912,    6.5642,    6.3209,    5.9787,    5.8721,    5.8267,    5.8519,    5.8920,    6.5317,    7.2712,    7.6240,    7.9283,    8.2957,    8.6686,    8.5632,    8.4338,    8.1300,    7.8225,    7.4544,    7.0963,    6.9364,    6.8065,    7.0250,    7.2094,    7.1214,    7.1927,  999.0000,  999.0000,  999.0000,
  8-AUG-2000 00:38:35.00,  999.0000,  999.0000,  999.0000,  999.0000,  999.0000,  999.0000,   -0.0753,   -0.2717,  999.0000,  999.0000,  999.0000,  999.0000,  999.0000,  999.0000,  999.0000,  999.0000,   -1.7463,   -1.7233,   -1.4512,   -0.9298,  999.0000,  999.0000,  999.0000,  999.0000,    3.1372,    4.0888,    5.1509,    5.6365,  999.0000,    6.7009,    6.8521,    6.9644,    6.6580,    6.1424,    6.1927,    6.4875,    6.6587,    6.7842,    6.6825,    6.5097,    6.5592,    6.6664,    6.8413,    7.0305,    7.6693,    8.3831,    8.6951,    8.9570,    8.8239,    8.6568,    8.9501,    9.2664,    8.7759,    8.2781,    8.1307,    7.9757,    7.6710,    7.4131,    7.6993,    7.9563,    7.9802,    8.1281,    9.0194,    9.8591,   10.4547,
  8-AUG-2000 00:43:39.00,  999.0000,  999.0000,  999.0000,  999.0000,   -0.9784,   -0.9811,  999.0000,  999.0000,   -0.9350,   -0.9675,   -1.1109,   -1.3757,   -1.8834,   -2.1707,  999.0000,  999.0000,  999.0000,  999.0000,   -1.6928,   -1.2345,  999.0000,  999.0000,  999.0000,  999.0000,    3.1811,    3.8866,  999.0000,    5.4895,    6.1954,    6.9012,    7.1847,    7.2253,    6.9125,    6.4230,    6.8111,    7.5784,    7.5532,    7.2350,    7.1739,    7.1931,    6.8768,    6.4732,    6.4860,    6.5870,    7.0249,    7.5189,    8.1003,    8.6926,    8.7289,    8.7173,    8.9239,    9.1414,    8.6930,    8.2392,    8.1053,    7.9573,    7.5260,    7.1332,    7.1871,    7.1989,    6.8737,    6.7782,    8.1954,    9.3493,   10.1720,
  8-AUG-2000 00:48:43.00,   -0.6217,   -0.4405,  999.0000,  999.0000,  999.0000,  999.0000,   -0.8526,   -0.8989,   -0.8477,   -0.7983,   -0.7530,   -0.8213,   -1.1168,   -1.3581,  999.0000,  999.0000,   -1.7991,   -1.5896,  999.0000,  999.0000,    0.4644,    1.1613,    1.8708,    2.3348,  999.0000,  999.0000,  999.0000,    5.7384,    6.3597,    6.9811,    7.1674,    7.1033,    7.1027,    7.1339,    7.5056,    8.0243,    7.9359,    7.6232,    7.4900,    7.4130,    7.3949,    7.3921,    7.4125,    7.4338,    8.0317,    8.9500,    9.2211,    9.4342,    9.3624,    9.2659,    9.5677,    9.8893,    9.3917,    8.8797,    8.2879,    7.7179,    7.5841,    7.4586,    7.4301,    7.3639,    6.9975,    6.8565,  999.0000,  999.0000,  999.0000,
  8-AUG-2000 00:53:47.00,  999.0000,  999.0000,  999.0000,    0.3709,   -0.4689,   -1.1504,  999.0000,  999.0000,  999.0000,  999.0000,  999.0000,  999.0000,  999.0000,  999.0000,   -2.7303,   -2.7862,   -2.6604,   -2.2254,  999.0000,  999.0000,    0.3157,    1.0987,    1.8155,    2.4637,  999.0000,  999.0000,  999.0000,    5.3970,    6.1425,    6.8880,    7.2020,    7.2678,    7.3467,    7.4320,    7.7204,    8.0964,    8.1587,    8.1051,    7.9510,    7.7655,    7.6456,    7.5428,  999.0000,  999.0000,  999.0000,    8.9918,    9.4535,    9.9280,    9.7818,    9.5822,    9.8476,   10.1364,    9.8795,    9.6091,    9.0467,    8.5018,    8.3069,    8.1238,    8.0767,    8.0559,    8.3355,    8.4988,    9.2017,   10.0334,   11.6717,
  8-AUG-2000 00:58:51.00,  999.0000,  999.0000,  999.0000,  999.0000,  999.0000,  999.0000,  999.0000,  999.0000,  999.0000,  999.0000,  999.0000,  999.0000,  999.0000,  999.0000,  999.0000,  999.0000,   -1.9069,   -1.7478,  999.0000,  999.0000,  999.0000,  999.0000,    1.4755,    2.1795,  999.0000,  999.0000,  999.0000,    4.6187,    5.3439,    6.0692,    6.4695,    6.6828,    6.7780,    6.8139,    7.1627,    7.6466,    7.7906,    7.8088,    7.8311,    7.9674,    7.8986,    7.6871,    7.7047,    7.7463,    7.4613,    7.1219,    7.6482,    8.2826,    8.5072,    8.6965,    9.0327,    9.3762,    8.5846,    7.7840,    7.5436,    7.2988,    6.9664,    6.6451,    6.4518,    6.3612,  999.0000,  999.0000,  999.0000,    9.7567,   11.2475,
  8-AUG-2000 01:04:02.00,   -1.2385,   -1.2424,  999.0000,  999.0000,   -1.0186,   -0.9070,  999.0000,  999.0000,   -0.2180,   -0.1316,  999.0000,  999.0000,  999.0000,  999.0000,  999.0000,  999.0000,  999.0000,  999.0000,   -2.3382,   -1.9851,  999.0000,  999.0000,  999.0000,  999.0000,  999.0000,  999.0000,    5.3932,    5.3119,    6.2420,    7.2945,    7.7267,    8.1119,    7.7188,    7.1027,    7.2353,    7.6915,    7.8325,    7.8570,    7.8866,    8.4696,  999.0000,    7.9317,    7.9995,    8.2893,    7.9073,    7.5149,    7.5307,    7.6110,    7.9895,    8.4718,    8.9110,    9.3679,    8.8298,    8.2828,    8.1477,    7.9949,    7.5252,    7.0283,    6.8562,    6.7195,    6.9326,    7.3031,    8.6175,    9.8978,   11.2458,
  8-AUG-2000 01:09:06.00,   -0.5502,   -0.3300,    0.2538,    0.6282,    0.1981,   -0.1568,   -0.2709,   -0.2112,    0.3184,    0.7310,    0.8729,    0.9865,    1.0436,    0.7934,  999.0000,  999.0000,   -1.5590,   -1.8595,   -1.5157,   -0.8662,  999.0000,  999.0000,  999.0000,  999.0000,  999.0000,  999.0000,    6.1869,    6.6296,  999.0000,  999.0000,  999.0000,    9.3071,    8.7586,    8.1244,    8.1298,    8.4060,    8.4823,    8.5446,    8.7112,    8.8340,    8.9372,    9.0192,  999.0000,  999.0000,    7.4143,    7.9541,    7.9611,    7.9976,  999.0000,  999.0000,  999.0000,    9.1250,    8.8517,    8.5929,    8.1875,    7.7839,  999.0000,  999.0000,  999.0000,  999.0000,  999.0000,  999.0000,  999.0000,   10.3884,   11.4106,
  8-AUG-2000 01:14:10.00,   -0.2430,    0.0908,    0.5780,    0.9476,  999.0000,  999.0000,  999.0000,  999.0000,    0.5355,    0.5468,    0.7751,    0.9984,    1.2120,    1.1116,  999.0000,  999.0000,   -0.8260,   -1.1975,   -1.2033,   -0.8224,    0.0114,    0.9515,  999.0000,  999.0000,    4.1005,    5.0395,  999.0000,  999.0000,    7.5916,    8.1075,    8.3309,    8.5543,    8.5493,  999.0000,  999.0000,    8.3715,    8.3290,  999.0000,    8.3038,    8.1579,    8.2660,    8.4176,    7.9530,    7.3580,    7.3752,    7.4335,    7.5607,    7.6966,    7.9979,    8.2027,    9.5489,    9.4546,    9.3491,    8.6932,    8.2404,    7.7458,    8.0371,    7.4182,    6.8913,    6.5899,    7.2207,    7.9854,    9.6849,   11.2303,  999.0000,
  8-AUG-2000 01:19:14.00,   -0.4847,   -0.0784,  999.0000,  999.0000,  999.0000,  999.0000,  999.0000,  999.0000,    0.8176,    1.0068,    1.3374,    1.5992,    1.7236,    1.6401,  999.0000,  999.0000,  999.0000,  999.0000,   -0.5836,   -0.4166,    0.4670,    1.2933,  999.0000,  999.0000,  999.0000,  999.0000,  999.0000,  999.0000,  999.0000,    7.2154,    7.7577,    8.2544,    8.2307,    7.9466,    8.0277,    8.2666,    8.3848,    8.4583,    8.4520,    8.4208,    8.4018,    8.3860,    7.8407,    7.1834,  999.0000,  999.0000,  999.0000,  999.0000,  999.0000,    7.8862,    8.2592,    8.7342,    8.6580,    8.6357,    8.1363,  999.0000,  999.0000,    7.5708,    7.0759,    6.6981,    7.2552,    7.9198,  999.0000,  999.0000,  999.0000,
  8-AUG-2000 01:24:18.00,  999.0000,  999.0000,  999.0000,    1.2557,    0.8110,    0.4255,    0.2295,    0.2392,    0.8054,    1.2000,  999.0000,  999.0000,  999.0000,  999.0000,    1.1878,    1.3069,  999.0000,  999.0000,  999.0000,  999.0000,  999.0000,  999.0000,  999.0000,  999.0000,  999.0000,  999.0000,    4.6487,    3.9158,    5.0994,    6.2830,    6.9843,    7.4081,    7.5817,    7.6301,    7.6392,    7.6312,    7.9914,    8.5392,    8.7278,    8.8227,    8.6360,    8.3688,    7.9602,    7.4720,    7.4014,    7.4898,    7.6572,    7.8467,    8.1925,    8.5518,  999.0000,  999.0000,  999.0000,    8.9985,    8.3711,    7.7845,    8.0122,    8.1805,    7.6041,    7.1025,    7.5493,    8.2020,   10.1132,   11.8449,   12.7297,
  8-AUG-2000 01:29:22.00,  999.0000,  999.0000,  999.0000,  999.0000,  999.0000,  999.0000,   -1.0830,    0.0376,    1.1582,    1.9032,    1.7788,    1.6994,    1.7096,    1.6969,    1.6442,    1.3459,  999.0000,  999.0000,   -0.6686,   -0.7249,   -0.0608,    0.6877,    1.5230,    2.3338,    3.1223,    3.8618,  999.0000,    4.4832,    5.5001,    6.5289,    7.2012,    7.6684,    7.5761,    7.2040,    7.2573,    7.4944,    7.7433,  999.0000,    8.9365,    8.6450,    8.5859,    8.3788,  999.0000,  999.0000,  999.0000,    7.8545,    7.8335,    7.8207,    8.0596,    8.3202,    8.4101,    8.4914,    8.5910,    8.6843,    8.3747,    8.0764,    8.0053,    7.9315,  999.0000,  999.0000,  999.0000,    8.1606,   10.0356,   11.6675,   12.1509,
  8-AUG-2000 01:34:27.00,  999.0000,    0.9494,    0.9611,    0.9809,  999.0000,  999.0000,  999.0000,  999.0000,  999.0000,  999.0000,  999.0000,  999.0000,    1.4417,    1.5674,  999.0000,  999.0000,  999.0000,  999.0000,  999.0000,  999.0000,  999.0000,  999.0000,  999.0000,  999.0000,  999.0000,    4.0409,    4.6174,    5.1938,    5.8653,    6.5993,    7.3119,    8.0121,    7.9792,    7.5794,    7.6783,    7.9926,    8.0666,    8.0517,    8.2313,    8.9729,    9.0812,    8.8694,    8.3591,    7.6998,    7.5118,    7.4024,    7.5233,    7.6730,    7.9068,    8.1479,    8.2123,    8.2679,    8.4013,    8.5306,    8.3256,    8.1347,    8.2248,    8.2581,    7.6349,    7.1284,    7.5546,    8.1415,    9.6916,   11.0966,   11.8167,
  8-AUG-2000 01:39:31.00,  999.0000,  999.0000,  999.0000,  999.0000,  999.0000,  999.0000,  999.0000,  999.0000,    0.9031,    1.1103,    1.3546,    1.3833,    0.9810,    0.6870,  999.0000,  999.0000,  999.0000,  999.0000,    0.1579,    0.3723,    0.9619,    1.6090,  999.0000,  999.0000,  999.0000,    3.2597,    4.1859,    5.0330,    5.8847,    6.7350,    7.4580,    8.1079,    8.3169,    8.3053,    8.1348,    7.8958,    7.8678,    7.9179,    8.3233,    8.8398,    9.1072,    9.3098,    8.9032,    8.0511,    7.7224,    7.4158,    7.5541,    7.7398,    7.9969,    8.2602,    8.4038,    8.5415,    8.7220,    8.9008,    8.9241,    8.9518,    9.0667,    9.1238,    8.5123,    7.9776,    8.0567,    8.3126,    9.6279,   10.8598,   11.6977,
  8-AUG-2000 01:44:35.00,    0.5088,    0.9316,  999.0000,  999.0000,   -0.0800,   -0.2578,    0.0743,    0.4755,    1.0636,    1.5678,    1.8780,    1.9212,    1.4312,    0.9801,  999.0000,  999.0000,  999.0000,  999.0000,   -0.9363,   -0.8182,  999.0000,  999.0000,  999.0000,  999.0000,  999.0000,  999.0000,    4.1203,    4.7483,    5.2145,    5.6807,    6.2105,    6.7769,    7.0780,    7.2465,    7.1668,    6.8414,    6.7995,    6.9227,    7.1585,    7.5431,    7.5253,    7.4059,  999.0000,  999.0000,  999.0000,    6.9054,    7.0593,    7.2418,    7.5003,    7.7652,    8.2537,    8.7533,    8.6666,    8.5744,    8.7162,    8.8677,    9.2109,    9.4596,    8.6149,    7.8926,    8.1481,    8.5307,    9.6738,   10.7905,   11.7824,
  8-AUG-2000 01:49:40.00,    0.4187,    0.8092,    0.9087,    0.9768,  999.0000,  999.0000,  999.0000,  999.0000,    0.7134,    0.7318,    0.9147,    0.9284,  999.0000,  999.0000,  999.0000,  999.0000,   -0.6930,   -0.7201,   -0.3515,    0.1139,  999.0000,  999.0000,    1.8496,    2.5444,  999.0000,  999.0000,    4.9450,    4.7621,    5.6112,    6.4603,    7.1091,    7.6426,    7.8380,    7.8643,    7.7932,  999.0000,    7.0886,    7.7524,    7.9162,  999.0000,  999.0000,    8.1301,    7.6566,    7.0857,    7.0976,    7.2066,    7.4830,    7.7804,    7.7771,    7.7479,    7.9451,    8.1536,    7.7686,    7.5316,    7.8199,    8.1203,    8.6642,    9.1413,    8.8451,    8.5857,    8.3255,    8.2417,    9.2149,   10.2363,   11.4851,
  8-AUG-2000 01:54:44.00,   -0.1287,    0.3336,    0.7272,    0.9573,    0.5594,    0.2158,    0.0461,   -0.0155,  999.0000,  999.0000,    0.6757,    0.7099,  999.0000,  999.0000,  999.0000,  999.0000,   -1.0797,   -1.1117,   -0.7094,   -0.5523,   -0.6825,   -0.0832,  999.0000,  999.0000,    3.9721,    4.6863,  999.0000,    5.6169,    6.4527,    7.2804,    7.7391,    7.9854,    8.0312,    7.9768,    7.5884,    7.0558,    7.2569,    7.7293,    8.4853,    9.3299,    9.1472,    8.6974,    8.0664,    7.3969,    7.5475,    7.8347,    8.2151,    8.6071,    8.3119,    7.9575,    8.4411,    8.9007,  999.0000,  999.0000,  999.0000,  999.0000,  999.0000,  999.0000,  999.0000,    9.0760,    9.0244,    9.1404,   10.2602,   11.3079,   12.0149,
  8-AUG-2000 01:59:49.00,   -0.6585,   -0.2208,    0.2458,    0.4857,   -0.1463,   -0.5646,   -0.2998,    0.0297,    0.5344,    0.9019,    0.9516,    0.8691,  999.0000,  999.0000,  999.0000,  999.0000,   -0.8644,   -0.9502,   -0.6883,   -0.3962,   -0.0685,    0.7587,  999.0000,  999.0000,    4.7854,    4.7964,    5.2725,    5.7487,    6.2397,    6.7404,    7.2022,    7.6415,    7.5971,    7.3107,    7.1232,    6.9783,    7.3350,    7.8770,    8.5829,    9.3401,    9.1266,    8.6606,    7.9516,    7.1912,    7.0137,    6.9335,    7.4898,    8.1257,    7.8458,    7.4870,  999.0000,  999.0000,  999.0000,    9.0504,    8.9240,    8.8184,    9.1285,    9.4032,    9.2690,    9.1542,    9.1946,    9.4200,   10.7536,   11.8879,   12.0808,
  8-AUG-2000 02:04:54.00,  999.0000,  999.0000,  999.0000,   -0.1019,   -0.4559,   -0.6273,  999.0000,  999.0000,    0.6103,    0.9372,    1.0659,    1.1991,    1.3410,    1.4002,  999.0000,  999.0000,  999.0000,  999.0000,    0.9784,    0.9821,    1.0889,    1.5363,  999.0000,  999.0000,  999.0000,    5.1094,    5.2166,    5.3238,    5.9287,    6.8613,    7.2625,    7.3581,    7.3498,    7.2896,    7.0538,    6.5759,    6.8313,    7.3101,    7.8994,    8.5552,    8.3975,    8.0281,    7.7782,    7.5536,    7.7621,    8.0428,    8.5916,    9.1738,    8.5371,    7.7954,    8.0915,    8.4395,    8.9170,    9.3868,    9.2425,    9.1137,    9.2955,    9.4430,    9.1943,    8.9826,    9.0669,    9.2707,   10.1907,   11.1124,   12.0416,
  8-AUG-2000 02:09:58.00,  999.0000,  999.0000,  999.0000,  999.0000,  999.0000,  999.0000,  999.0000,  999.0000,    0.9222,    1.0126,    1.1047,    1.0574,  999.0000,  999.0000,  999.0000,  999.0000,   -0.5738,   -0.5613,   -0.0976,    0.5162,  999.0000,  999.0000,  999.0000,  999.0000,    4.4637,    4.8950,    5.0073,    5.1196,    5.7697,    6.7738,    7.2619,    7.4606,    7.7322,    7.9849,    7.9868,    7.3988,    7.5583,    7.8302,    8.3657,    9.0696,    8.7662,    8.2009,    8.0281,    7.9383,    8.0177,    8.1252,    8.4301,    8.8005,    8.6316,    8.4892,    8.5427,    8.6049,    8.9471,    9.2845,    9.0459,    8.8314,    9.1002,    9.3446,    9.3071,    9.3060,    9.5953,    9.9307,   10.5429,   11.1326,   11.6166,
  8-AUG-2000 02:15:02.00,  999.0000,   -0.2429,   -0.5618,   -0.8209,   -0.8502,   -0.8463,   -0.7366,   -0.4346,    0.3876,    0.9803,    1.0417,    1.0004,  999.0000,  999.0000,  999.0000,  999.0000,   -0.2334,   -0.0971,    0.5495,    0.8970,    0.8941,    1.4360,  999.0000,  999.0000,    4.7473,    5.1090,    5.2104,    5.2787,    5.8924,    6.8216,    7.2536,    7.2816,    7.5551,    7.6688,    7.5747,    7.3829,    7.7676,    8.3653,    8.9702,    9.5774,    9.2163,    8.6035,    8.3129,    8.0904,    7.9058,    7.7275,  999.0000,  999.0000,  999.0000,    8.4386,    8.8469,    9.2066,    9.6786,   10.0491,   10.1545,   10.2574,   10.3086,   10.3519,   10.2795,   10.2366,   10.7541,   11.3537,   12.3953,   13.2937,   13.5163,
  8-AUG-2000 02:20:06.00,   -0.0071,    0.1896,  999.0000,  999.0000,  999.0000,  999.0000,    0.6724,    0.8562,    1.2761,    1.6152,    1.7673,    1.8014,    1.5995,    1.4030,  999.0000,  999.0000,    0.8412,    0.8936,    1.2652,    1.7466,  999.0000,  999.0000,    3.5767,    4.0763,    4.4757,    4.8495,  999.0000,    4.8773,    5.5663,    6.5011,    7.0494,    7.3754,    7.6162,    7.8144,    7.7436,    7.5566,    8.1071,    8.9303,    9.2459,    9.4029,    8.8061,    8.0134,    7.5620,    7.1828,    7.0918,    7.0488,    7.8754,    8.8107,    8.3392,    7.7465,  999.0000,  999.0000,  999.0000,    9.3930,    9.6499,    9.8964,    9.9357,    9.9967,  999.0000,  999.0000,  999.0000,   11.5628,   12.6191,   13.4225,   13.0315,
  8-AUG-2000 02:25:10.00,   -0.5141,   -0.3884,  999.0000,  999.0000,  999.0000,  999.0000,  999.0000,  999.0000,    0.7764,    0.9014,    0.9307,    0.9863,    1.0946,    1.1609,  999.0000,  999.0000,    1.1411,    1.1345,  999.0000,  999.0000,  999.0000,  999.0000,  999.0000,  999.0000,    3.6838,    4.3154,    4.6182,    4.6743,    5.1614,    5.9322,    6.6185,    7.2562,    7.6036,    7.8058,    7.8561,    7.8409,    8.0716,    8.3933,    8.7172,    9.0417,    8.5780,    7.9093,    7.2978,    6.6985,    6.8439,    7.1134,    7.6809,    8.2857,    8.0736,    7.7911,    8.4762,    9.2096,    9.4991,    9.7846,   10.2564,   10.6866,   10.2856,    9.9207,    9.9735,   10.1009,   10.8248,   11.5819,   12.5382,   13.2702,   12.9427,
  8-AUG-2000 02:30:15.00,  999.0000,  999.0000,  999.0000,   -0.1832,   -0.2475,   -0.1732,    0.3447,    0.7460,    0.8323,    0.9323,    1.0640,    1.2086,  999.0000,  999.0000,    1.7199,    1.9189,  999.0000,  999.0000,  999.0000,  999.0000,  999.0000,  999.0000,  999.0000,  999.0000,    3.2304,    3.8833,    4.4306,    4.8667,    5.5084,    6.2075,    7.0158,    7.8869,    8.2076,    8.2528,    8.0776,    7.8070,    8.6096,    9.8089,    9.7023,    9.0743,    8.7260,    8.5189,    7.8626,    7.1338,    7.2112,    7.4230,    7.7232,    8.0345,    8.2251,    8.4052,    8.9733,    9.5607,    9.9587,   10.3462,   10.2691,   10.1758,    9.7578,    9.3773,    9.4317,    9.5674,   10.3754,   11.1767,   12.2357,   13.1281,   13.3971,
  8-AUG-2000 02:35:19.00,  999.0000,  999.0000,  999.0000,  999.0000,  999.0000,  999.0000,  999.0000,  999.0000,  999.0000,  999.0000,  999.0000,  999.0000,  999.0000,  999.0000,  999.0000,  999.0000,    1.1673,    1.1947,    1.0733,    1.2870,  999.0000,  999.0000,    3.1062,    3.7406,    4.4003,    4.8965,  999.0000,    4.7780,    5.7756,    6.7732,    7.4591,    7.9657,    8.0777,    7.9923,    8.0128,    8.0790,    9.0794,   10.4251,   10.5679,  999.0000,  999.0000,    9.5853,    9.2324,    8.8875,    8.6851,    8.5064,    8.1753,    7.8252,    8.2113,    8.6608,    9.2487,    9.8434,   10.4035,   10.9527,   10.8553,   10.7520,   10.5755,   10.3404,    9.8794,    9.5542,  999.0000,  999.0000,  999.0000,   12.6115,   12.6620,
  8-AUG-2000 02:40:23.00,  999.0000,  999.0000,  999.0000,  999.0000,  999.0000,  999.0000,    0.8503,    1.0249,    1.2590,    1.4683,    1.6205,    1.6927,  999.0000,  999.0000,  999.0000,  999.0000,  999.0000,  999.0000,    1.0809,    1.0135,    0.9696,    1.3933,  999.0000,  999.0000,  999.0000,  999.0000,  999.0000,    5.0733,    6.1343,    7.1395,    7.6510,    7.9196,    8.1594,    8.3847,    8.1750,    7.7773,    8.3670,    9.3218,    9.9172,   10.4002,   10.0926,    9.5795,    9.1421,    8.7207,    8.5079,    8.3298,    8.2373,    8.1554,    8.6555,    9.2057,   10.0172,   10.8417,   10.9112,   10.9681,   10.9926,   11.0043,  999.0000,  999.0000,  999.0000,   10.0653,   10.5847,   11.1262,   11.8011,   12.3820,   12.5188,
  8-AUG-2000 02:45:27.00,   -0.2495,    0.2049,  999.0000,  999.0000,   -0.1835,   -0.1574,    0.3663,    0.7560,  999.0000,  999.0000,  999.0000,  999.0000,  999.0000,  999.0000,  999.0000,  999.0000,    1.0009,    1.0095,    0.9934,    1.1532,    1.5189,    1.8706,  999.0000,  999.0000,  999.0000,  999.0000,  999.0000,  999.0000,  999.0000,    6.5326,    6.6918,    6.8443,    7.3007,    7.9091,    7.9818,    7.8911,    8.5891,    9.7119,   10.3713,   10.6961,   10.3276,    9.7331,    9.5883,    9.5388,    9.3764,    9.1952,    8.7133,    8.1939,    8.9118,    9.7363,   10.4182,   11.0930,   11.0825,   10.9597,   11.2354,   11.4930,   11.3696,   11.1810,   10.8366,   10.5701,   10.9257,   11.2790,   11.6181,   11.9474,   12.2296,
  8-AUG-2000 02:50:32.00,  999.0000,  999.0000,  999.0000,  999.0000,  999.0000,  999.0000,    0.6213,    0.8760,    1.1130,    1.3703,    1.6745,    1.8125,    1.6179,    1.8038,    2.6508,    2.7916,    1.8597,    1.2753,    1.1539,    1.2339,    1.5499,    2.1670,    3.0945,    3.7682,    4.2115,    4.4360,    4.4857,    5.1647,    6.2853,    6.2628,    6.5958,    7.6592,  999.0000,  999.0000,    8.7871,    8.1615,    8.5684,    9.6870,  999.0000,    9.9668,    9.3869,    8.5447,    8.5882,    8.8662,    8.7172,    8.5084,    8.4677,    8.4481,  999.0000,  999.0000,  999.0000,  999.0000,  999.0000,   10.3105,   10.7428,   11.1693,  999.0000,  999.0000,  999.0000,  999.0000,  999.0000,  999.0000,  999.0000,  999.0000,  999.0000,
  8-AUG-2000 02:55:36.00,   -0.4166,   -0.2234,  999.0000,  999.0000,   -0.2037,   -0.1480,  999.0000,  999.0000,  999.0000,  999.0000,  999.0000,  999.0000,    1.3420,    1.5648,  999.0000,  999.0000,  999.0000,  999.0000,  999.0000,  999.0000,  999.0000,  999.0000,    3.7240,    4.1234,    4.6676,    5.0508,    5.3054,    5.7611,    6.3580,    6.8724,    7.3361,    7.6260,  999.0000,  999.0000,    8.2163,    8.6332,    9.1379,    9.8490,   10.4533,   11.0203,   10.2116,    8.9288,  999.0000,  999.0000,  999.0000,    8.7115,    8.7168,    8.7202,    9.4513,   10.1536,   10.6870,   11.2116,  999.0000,  999.0000,  999.0000,  999.0000,  999.0000,  999.0000,  999.0000,  999.0000,  999.0000,  999.0000,  999.0000,  999.0000,  999.0000,
  8-AUG-2000 03:00:40.00,  999.0000,    0.6311,    0.3210,    0.0525,   -0.0557,    0.0172,    0.6697,    1.0686,    0.7819,    0.6637,    0.9358,    1.1914,    1.4137,    1.5209,  999.0000,  999.0000,    1.2423,    1.1453,    1.0429,    1.2841,    1.9278,    2.5243,  999.0000,  999.0000,  999.0000,  999.0000,  999.0000,    5.1301,    5.5231,    5.8863,    6.3772,    6.9538,    7.3141,    7.6040,    7.7320,    7.7922,    8.5898,    9.6601,   10.0650,   10.2620,  999.0000,  999.0000,  999.0000,  999.0000,  999.0000,  999.0000,  999.0000,  999.0000,  999.0000,    9.6548,   10.3638,   11.0980,   11.0111,   10.9176,   11.2239,   11.5152,   11.5074,   11.4982,   11.4728,   11.4591,   11.5388,   11.6624,   12.0488,   12.4102,   12.6541,
  8-AUG-2000 03:05:44.00,  999.0000,    0.0204,   -0.4726,   -0.7694,  999.0000,  999.0000,    0.6020,    0.8268,    0.4230,    0.2475,    0.6000,    1.0746,    1.7929,    2.4866,    3.1376,    3.4252,  999.0000,  999.0000,  999.0000,  999.0000,    2.1037,    2.1959,  999.0000,  999.0000,    3.6431,    4.3538,    4.8008,    5.0499,    5.3580,    5.7051,    6.1511,    6.7174,  999.0000,    7.5619,    7.9398,    8.3379,    8.9018,    9.5514,    9.9601,   10.2935,    9.6756,    8.8103,    8.5428,    8.4017,    8.6649,    8.9953,    9.1065,    9.1903,    9.6223,   10.0844,   10.5993,   11.1168,   11.3280,   11.5398,   12.1001,   12.6163,   12.2513,   11.9044,   11.7659,   11.6860,   12.0737,   12.4420,   12.6945,   12.9533,   13.2416,
  8-AUG-2000 03:10:48.00,  999.0000,  999.0000,  999.0000,  999.0000,  999.0000,  999.0000,    0.9828,    0.9866,  999.0000,  999.0000,    0.9757,    1.2430,    2.0520,    2.7301,    3.1807,    3.2137,  999.0000,  999.0000,    1.4099,    1.1691,    1.3505,    1.6594,  999.0000,  999.0000,    3.5395,    4.3338,    4.7388,    4.8517,    5.1384,    5.5394,    5.9415,    6.3443,    6.7497,  999.0000,  999.0000,    7.9396,    8.4634,    9.0370,    9.4913,   10.0909,    9.5125,    8.7217,    8.4428,    8.2550,    8.7160,    9.2852,    9.6616,   10.0138,   10.1252,   10.2159,   10.4485,   10.6881,   11.3647,   12.0455,   12.5571,   13.0337,   12.8102,   12.5639,   12.0543,   11.6431,   12.0171,   12.3661,   12.5651,   12.7591,   12.9299,
  8-AUG-2000 03:15:53.00,  999.0000,  999.0000,  999.0000,  999.0000,   -0.2813,   -0.3263,  999.0000,  999.0000,  999.0000,  999.0000,  999.0000,  999.0000,    1.5912,    1.9745,    2.5480,    2.7660,  999.0000,  999.0000,    1.8005,    1.9341,  999.0000,  999.0000,    3.9354,    4.3832,    3.9428,    4.0748,    4.2159,    4.3638,    4.7874,    5.3925,    5.5136,    5.3563,    5.6702,    6.2293,    6.6576,    7.0624,    7.8752,    8.9422,    9.3391,  999.0000,  999.0000,    9.7148,    9.0716,    8.2795,    8.5545,    9.0074,    9.5436,   10.0902,    9.9679,    9.7880,   10.0119,   10.2559,   11.3770,   12.4984,   12.7678,   13.0237,   13.0106,   12.9787,   12.7298,   12.5278,   12.7006,   12.8276,   12.6793,   12.6231,   13.0019,
  8-AUG-2000 03:20:57.00,  999.0000,    0.4188,    0.2945,    0.1735,    0.0652,    0.0463,  999.0000,  999.0000,    0.8473,    1.0408,    1.0642,    1.2100,    1.6006,    2.0778,    2.7054,    2.8074,    2.1110,    1.7904,    1.9703,    2.2134,  999.0000,  999.0000,  999.0000,  999.0000,    3.8026,    3.9527,    3.9470,    3.7535,    4.1672,    4.9806,    5.2500,    5.1217,    5.6325,    7.0258,  999.0000,  999.0000,   10.0497,    9.8693,   10.4272,   10.8935,   10.5321,    9.9554,    9.7456,    9.5942,    9.9043,   10.2913,   10.4617,   10.5866,   10.7598,   10.9361,   10.7336,   10.5122,   11.2933,   12.0839,   12.4735,   12.8358,   12.7992,   12.6085,   12.4251,   12.1886,   12.7593,   13.2408,   13.1877,   13.2259,   13.6950,
  8-AUG-2000 03:26:01.00,  999.0000,   -0.0983,   -0.1334,   -0.2313,   -0.5707,   -0.6157,    0.2811,    0.8426,    0.4973,    0.2863,    0.3858,    0.6111,    1.0880,    1.5703,    2.0618,    2.2572,    2.0026,    1.7863,    1.6210,    1.6531,    1.9164,    2.2122,  999.0000,  999.0000,  999.0000,    3.5566,    3.7851,    4.0487,    4.5261,    5.1441,    5.6076,  999.0000,  999.0000,    6.7815,    7.3942,    8.0968,    8.8803,    9.6938,   10.3427,   10.9401,   10.3763,    9.5105,  999.0000,  999.0000,  999.0000,  999.0000,  999.0000,   10.8192,   10.8405,   10.8412,   10.2891,    9.7094,   10.2267,   10.7619,   11.3093,   11.8191,  999.0000,  999.0000,  999.0000,   10.9844,   11.5953,   12.1821,   12.6242,   13.0323,   13.2801,
  8-AUG-2000 03:31:05.00,  999.0000,  999.0000,  999.0000,    0.0981,    0.0293,    0.0126,  999.0000,  999.0000,  999.0000,  999.0000,  999.0000,  999.0000,    1.0597,    1.2527,  999.0000,  999.0000,    2.0580,    2.3544,    2.6879,    3.0841,    3.5537,    3.9888,    4.3881,    4.6081,    3.8547,    3.8137,    4.0249,    4.4253,    4.8978,    5.4178,    5.6884,    5.8155,    6.0966,    6.4548,    7.0072,    7.6435,    8.4829,    9.3974,   10.2147,   11.0017,   10.3995,    9.4359,    9.5985,    9.9994,   10.2501,   10.4759,   10.7200,   11.1477,   10.5992,   10.0796,   10.1822,   10.3183,   10.9520,   11.5894,   11.9667,   12.3116,   12.0106,   11.7155,   11.4054,   11.1790,   11.3339,   11.6908,   12.3906,   12.9610,   12.9206,
  8-AUG-2000 03:36:09.00,    1.0082,    1.2521,    1.0517,    0.8811,  999.0000,  999.0000,    0.7144,    0.5482,    0.0830,   -0.1337,  999.0000,  999.0000,    0.9415,    1.2796,  999.0000,  999.0000,    2.1881,    2.4598,  999.0000,  999.0000,  999.0000,  999.0000,  999.0000,  999.0000,    3.7046,    4.0136,    4.3621,    4.7403,    5.0627,    5.3483,    5.4706,    5.4989,    5.7506,    6.1140,    6.8855,    7.7416,    8.7039,    9.7376,   10.4294,   11.0395,   10.7470,   10.2197,    9.7939,    9.3895,   10.0580,   10.9053,  999.0000,  999.0000,  999.0000,   10.7432,   10.4077,   10.2172,   10.7566,   11.3071,   11.7334,   12.1427,   12.2124,   12.2735,  999.0000,  999.0000,  999.0000,   12.2224,   12.6474,   13.0259,   13.5123,
  8-AUG-2000 03:41:13.00,  999.0000,  999.0000,  999.0000,  999.0000,  999.0000,  999.0000,  999.0000,  999.0000,   -0.4431,   -0.4664,  999.0000,  999.0000,    0.6505,    1.0103,  999.0000,  999.0000,  999.0000,  999.0000,    2.7000,    3.0851,    3.5254,    3.8692,  999.0000,  999.0000,    4.6381,    4.8788,    5.0435,    5.1511,    5.1973,    5.2032,    5.5000,    5.9642,    6.3050,    6.5841,    7.2736,  999.0000,  999.0000,    9.8739,   10.3936,   10.8047,   10.3173,    9.5963,    9.2078,    8.8897,    9.3099,    9.8532,   10.3317,   10.8021,  999.0000,  999.0000,  999.0000,   10.5132,   10.5547,   10.4420,   10.8229,   11.2138,   11.8052,   12.3287,   12.0653,   11.8181,   11.7000,   11.6720,  999.0000,  999.0000,  999.0000,
  8-AUG-2000 03:46:18.00,    0.9836,    1.1530,    0.9131,    0.6173,    0.1068,   -0.2300,  999.0000,  999.0000,  999.0000,  999.0000,    0.8647,    0.9741,    0.8644,    0.8904,    1.1522,    1.3694,    1.5186,    1.8870,  999.0000,  999.0000,    3.8686,    4.2874,  999.0000,  999.0000,    4.3184,    4.9421,    5.2786,    5.3996,    5.5606,    5.7478,    5.8284,    5.8478,    6.1952,    6.7065,    7.2851,  999.0000,  999.0000,    9.3366,    9.8480,   10.2882,    9.7809,    9.0273,    8.6921,    8.4455,    8.8705,    9.4074,   10.0208,   10.6438,   10.4829,   10.2544,  999.0000,  999.0000,  999.0000,    9.1600,    9.6151,   10.0928,   11.0202,   11.8656,   11.7623,   11.6780,   11.7462,   11.8910,   12.4951,   13.1060,   13.7494,
  8-AUG-2000 03:51:22.00,  999.0000,  999.0000,  999.0000,  999.0000,  999.0000,  999.0000,  999.0000,  999.0000,  999.0000,  999.0000,    1.0372,    0.9888,    0.8542,    0.8422,  999.0000,  999.0000,  999.0000,  999.0000,    1.8467,    2.1889,  999.0000,  999.0000,  999.0000,  999.0000,    4.6760,    4.8575,    5.1424,    5.5051,    5.5704,    5.4399,    5.3978,    5.3907,    5.7491,    6.2320,    6.6988,    7.1540,    8.1299,    9.2983,    9.9173,   10.3647,    9.6231,    8.5723,    8.5499,    8.6949,    9.1911,    9.6726,   10.0789,   10.4752,   10.2079,    9.8834,    9.5237,    9.1622,    9.3751,    9.6013,   10.0821,   10.5792,   11.4030,   12.1534,   12.0545,   11.9857,   12.1582,   12.3523,   12.6763,   12.9911,   13.2625,
  8-AUG-2000 03:56:26.00,    0.7925,    1.0546,    0.9932,    0.9037,    0.7062,    0.5937,    0.7532,    0.8550,  999.0000,  999.0000,    0.6926,    0.6360,    0.5746,    0.5634,    0.6394,    0.8921,    1.4129,    1.9073,    2.3667,    2.9379,    3.6401,    4.1774,    4.5446,    4.9631,    5.2046,    5.4731,    5.6721,    5.8191,    5.7036,    5.4154,    5.3320,  999.0000,  999.0000,    5.5074,    6.0026,    6.6783,    7.4437,    8.2423,    8.9159,    9.5506,    9.1461,    8.4714,  999.0000,  999.0000,  999.0000,    9.3312,    9.6326,    9.9281,    9.8931,    9.8297,    9.8453,    9.8647,    9.9707,   10.0813,   10.3895,   10.7177,   11.4449,   12.1343,   12.3858,   12.5977,   12.6920,   12.6107,   12.9667,   13.0879,   13.6697,
  8-AUG-2000 04:01:31.00,  999.0000,  999.0000,  999.0000,    0.6781,    0.5874,    0.5409,    0.6360,    0.6964,  999.0000,  999.0000,    0.5954,    0.5691,  999.0000,  999.0000,    0.5340,    0.7674,  999.0000,  999.0000,  999.0000,  999.0000,    3.7956,    4.2554,  999.0000,  999.0000,    4.9609,    5.3083,    5.6670,    6.0679,    5.9167,    5.5633,    5.3782,    5.2899,    5.3859,    5.5741,    6.0532,    6.5938,    7.1823,    7.7569,    8.7098,    9.7914,    9.4440,    8.7249,    8.3891,    8.1233,    8.8003,    9.5463,    9.6565,    9.6885,    9.6680,    9.6429,    9.4198,    9.1869,    9.6235,   10.0658,   10.1963,   10.3459,   10.8764,   11.3489,   11.1486,   10.9732,  999.0000,  999.0000,  999.0000,   11.3977,   11.5222,
  8-AUG-2000 04:06:35.00,    0.6282,    0.8617,    0.6847,    0.5465,  999.0000,  999.0000,  999.0000,  999.0000,  999.0000,  999.0000,  999.0000,  999.0000,    0.6466,    0.7412,    0.9812,    1.1340,    1.1545,    1.1749,  999.0000,  999.0000,  999.0000,  999.0000,  999.0000,  999.0000,  999.0000,  999.0000,  999.0000,    6.5460,    6.3209,    6.0681,    5.9538,    5.9192,    6.1474,    6.5070,    6.7256,  999.0000,  999.0000,    7.5062,    8.0443,    8.6458,    8.4891,    8.1351,  999.0000,  999.0000,  999.0000,    8.8634,    9.4794,   10.1388,   10.3061,   10.4310,   10.1366,    9.8212,   10.3460,   10.8745,   10.7951,   10.7446,   11.2701,   11.7558,   11.7812,   11.7724,   11.4895,   11.3199,   11.8295,   12.3016,  999.0000,
  8-AUG-2000 04:11:39.00,    0.6065,    0.6691,    0.5433,    0.4857,    0.6905,    0.8612,    0.9226,    0.9371,    0.8244,    0.7431,    0.7343,    0.7265,    0.7207,    0.8302,    1.1404,    1.5450,  999.0000,  999.0000,  999.0000,  999.0000,  999.0000,  999.0000,    5.3827,    5.8169,  999.0000,    4.4573,    5.2333,    5.9151,    6.4919,    6.9247,    6.9187,    6.5460,    6.7417,    7.1968,    7.0319,    6.6960,    7.0508,    7.6341,    8.3720,    9.2810,    8.8154,    8.0139,    7.8436,    7.8070,    8.3400,    9.0537,    9.2053,    9.2867,    9.3075,    9.3232,    9.1036,    8.9659,    9.4781,    9.9940,   10.0373,   10.1084,   10.7337,   11.3253,   11.5269,   11.6873,   11.5181,   11.3841,   11.4611,   11.5912,   11.9713,
  8-AUG-2000 04:16:43.00,  999.0000,  999.0000,  999.0000,  999.0000,  999.0000,  999.0000,    1.2505,    1.1783,  999.0000,  999.0000,  999.0000,  999.0000,    0.8175,    0.8061,  999.0000,  999.0000,    1.0892,    1.4505,    2.1673,    2.7683,    3.2335,    3.6193,  999.0000,  999.0000,  999.0000,  999.0000,  999.0000,    5.1299,    5.8070,    6.4905,    6.8020,    6.6944,  999.0000,  999.0000,  999.0000,    7.6372,    8.2027,    8.5362,  999.0000,    9.9630,    9.5075,    8.7793,    8.5256,    8.3657,  999.0000,  999.0000,  999.0000,  999.0000,  999.0000,  999.0000,  999.0000,    9.7862,   10.0393,   10.2915,   10.3404,   10.4029,   10.7375,   11.0798,   11.5131,   11.8633,   11.4424,   11.1524,   11.2639,   11.5673,   11.5917,
  8-AUG-2000 04:21:47.00,  999.0000,  999.0000,  999.0000,  999.0000,  999.0000,  999.0000,    0.8268,    0.8367,  999.0000,  999.0000,    0.7599,    0.7556,    0.7936,    0.9300,    1.2372,    1.4770,    1.6145,    1.9296,  999.0000,  999.0000,    3.5841,    4.0024,    4.2833,    4.3940,    4.3501,    4.5205,  999.0000,    5.4563,    5.8225,    6.2215,    6.2835,    6.1518,    6.4896,    7.0622,    7.3615,    7.5427,    8.3847,    9.4709,    9.4572,  999.0000,  999.0000,    8.3017,    8.1560,    8.0640,    8.4746,    8.8959,    8.9842,    8.9806,    9.2646,    9.5693,    9.6471,    9.7135,   10.1163,   10.5214,   10.7357,   10.9465,   11.0945,   11.2524,   11.8889,   12.4733,  999.0000,  999.0000,  999.0000,   12.8268,   12.5531,
  8-AUG-2000 04:26:51.00,  999.0000,  999.0000,  999.0000,  999.0000,    1.0455,    1.1245,    1.2035,    1.2359,    1.1423,    1.0601,  999.0000,  999.0000,    0.8933,    0.9785,  999.0000,  999.0000,  999.0000,  999.0000,    2.6267,    2.9372,    3.2254,    3.5322,  999.0000,  999.0000,    4.4480,    4.2843,    4.5171,    5.0474,    5.5427,    6.0151,    6.2324,    6.3029,    6.3219,    6.3150,    6.6916,    7.2339,    7.8982,    8.6074,    8.6924,    8.5821,  999.0000,  999.0000,  999.0000,  999.0000,  999.0000,  999.0000,  999.0000,    8.4227,    9.0631,    9.7444,    9.8949,   10.0189,   10.0293,   10.0419,   10.3034,   10.5752,  999.0000,  999.0000,  999.0000,   12.4469,   12.5297,   12.5559,  999.0000,  999.0000,  999.0000,
  8-AUG-2000 04:31:55.00,    0.9949,    1.0141,    0.9512,    0.9012,    0.9012,    0.8877,    0.8306,    0.7360,    0.5400,    0.4848,    0.7554,    0.8285,    0.5066,    0.4751,  999.0000,  999.0000,  999.0000,  999.0000,  999.0000,  999.0000,  999.0000,  999.0000,    4.7331,    4.8226,    4.6120,    4.3776,    4.5129,    4.9258,    5.2054,    5.3973,    5.5350,    5.6414,    5.8055,    5.9985,    6.3094,    6.6714,    7.1115,    7.5805,    7.8925,    8.1555,    7.8203,    7.3295,    7.1210,    6.9721,  999.0000,  999.0000,  999.0000,    8.1365,    8.1487,    8.1326,    8.9545,    9.8184,    9.9889,   10.1523,   10.5640,   10.9768,  999.0000,  999.0000,  999.0000,   12.5072,   12.6523,   12.7761,   12.7717,   12.7210,   12.4521,
  8-AUG-2000 04:36:59.00,  999.0000,  999.0000,  999.0000,  999.0000,  999.0000,  999.0000,    0.6419,    0.7845,    0.7786,    0.8315,    1.0202,    1.1167,    1.0289,    0.9951,  999.0000,  999.0000,    1.1751,    1.5267,  999.0000,  999.0000,    3.7475,    4.2882,    4.6232,    4.7436,    4.2772,    4.0723,    4.1087,    4.3260,    4.6606,    5.0724,    5.3304,    5.3857,    5.6482,    6.0377,    6.3666,    6.7130,    7.1118,    7.5300,    8.0189,    8.6776,    8.3221,    7.7592,    7.5687,    7.4412,    7.4600,    7.5033,    7.8506,    8.2358,    7.8179,    7.3308,    8.0611,    8.8522,    9.2539,    9.6463,    9.8544,   10.0905,   10.8855,   11.6394,   11.9182,   12.2107,   12.6117,   12.9694,   13.0685,   13.1092,   12.8748,
  8-AUG-2000 04:42:04.00,  999.0000,  999.0000,  999.0000,  999.0000,    0.8992,    0.8054,    0.8142,    0.7878,    0.6664,    0.6580,    0.9111,    1.0549,    0.9803,    1.1076,    1.5860,    1.9741,  999.0000,  999.0000,    2.7268,    2.9777,  999.0000,  999.0000,  999.0000,  999.0000,    4.6820,    4.1072,    4.2954,    5.0561,    5.5479,    5.8745,    6.1209,  999.0000,  999.0000,    6.6126,    6.8903,    7.1852,    7.4735,    7.7593,    7.9185,  999.0000,  999.0000,    7.9868,    7.7976,    7.5774,    7.6756,    7.8268,    8.0003,    8.1766,    8.3694,    8.4409,    9.3795,   10.2527,   10.4371,   10.6093,   10.7930,   10.9851,   11.3457,   11.6951,   11.9154,   12.1532,   12.5303,   12.7945,   12.3823,   12.0635,   12.1852,
  8-AUG-2000 04:47:09.00,    0.7283,    0.7548,  999.0000,  999.0000,  999.0000,  999.0000,  999.0000,  999.0000,  999.0000,  999.0000,    0.6257,    0.6157,    0.6142,    0.9296,    1.7957,    2.3821,  999.0000,  999.0000,    2.8670,    3.0957,  999.0000,  999.0000,  999.0000,  999.0000,    4.4541,    4.0605,    4.6378,    6.0919,    6.4252,  999.0000,  999.0000,    5.8885,    6.1454,    6.5944,    6.8137,    6.9231,    7.4386,    8.0750,    8.4709,    8.9233,    8.5327,    7.9445,    7.6706,    7.4478,    7.2213,    6.9942,    7.2875,    7.6458,  999.0000,  999.0000,  999.0000,    9.6899,    9.9941,   10.2897,   10.2381,   10.2102,   10.6544,   11.1000,   11.5561,   12.0918,   12.6224,   13.0186,   12.5124,   12.1082,   11.7380,
  8-AUG-2000 04:52:13.00,    0.6668,    0.6542,    0.5752,    0.5291,    0.6096,    0.6012,    0.3086,    0.0038,   -0.3341,   -0.3874,    0.2183,    0.5805,    0.4561,    0.5044,    0.8525,    1.0991,    1.1912,    1.4525,  999.0000,  999.0000,    2.9117,    3.4446,    4.0254,    4.2558,    4.1680,    4.6072,    5.4674,    6.5770,    6.6305,    6.6841,    6.7265,    6.7624,    6.8995,  999.0000,    6.5048,    6.8713,    7.3482,    8.0184,    8.1802,  999.0000,  999.0000,    8.4217,    8.0894,    7.6762,    7.5888,    7.5558,    7.9181,    8.3299,    8.8769,    9.4355,    9.7885,   10.1313,   10.9761,   11.8131,   11.6756,   11.5618,   11.9217,   12.2485,  999.0000,  999.0000,  999.0000,  999.0000,  999.0000,  999.0000,  999.0000,
  8-AUG-2000 04:57:17.00,    0.8613,    0.9963,    0.8149,    0.7334,    1.0362,    1.2429,    1.1419,    1.0835,  999.0000,  999.0000,    1.2524,    1.2226,    1.0208,    1.0588,    1.5138,    1.6185,    1.1913,    1.2954,    2.1074,    2.6512,    2.8808,    3.4555,    4.3859,    5.3163,  999.0000,  999.0000,  999.0000,    5.6741,    6.2339,    7.0058,    7.2164,    7.3094,    7.2997,    7.2385,    7.2729,    7.2316,    7.6154,    8.1367,    8.5125,    8.8957,    8.8357,    8.6733,    8.4746,    8.2682,    8.2065,    8.1689,    8.4967,    8.8701,    8.8505,    8.7971,    9.2799,    9.7894,   10.6083,   11.4183,   11.3677,   11.3464,   11.9099,   12.4402,   12.5857,   12.7712,   13.2767,   13.6258,  999.0000,  999.0000,  999.0000,
  8-AUG-2000 05:02:21.00,    0.9598,    0.9866,    0.6837,    0.4401,    0.4240,    0.3790,    0.2415,    0.0850,   -0.1227,   -0.1460,    0.2578,    0.4708,    0.3026,    0.3609,  999.0000,  999.0000,    1.7170,    2.2108,  999.0000,  999.0000,    3.8588,    4.3456,  999.0000,  999.0000,  999.0000,  999.0000,  999.0000,  999.0000,    7.3026,    7.8630,    7.6374,    7.3621,    7.1656,    7.0085,    7.0899,  999.0000,    7.9455,    7.9207,  999.0000,    8.4026,    8.1629,    7.7947,    7.5308,    7.2891,    7.4001,    7.5698,    7.9667,    8.1247,    8.4006,    8.7240,    8.9533,    9.1773,   10.3395,   11.5016,   11.7288,   11.9477,   11.9999,   12.0552,   12.1464,   12.2477,   12.4292,   12.4837,   11.7772,   11.2388,   11.4942,
  8-AUG-2000 05:07:26.00,    0.9058,    0.6511,  999.0000,  999.0000,    0.1135,   -0.0075,  999.0000,  999.0000,    0.1878,    0.3008,    0.5246,    0.7711,  999.0000,  999.0000,    1.6467,    1.9737,  999.0000,  999.0000,    3.1147,    3.5409,  999.0000,  999.0000,    4.9804,    5.0187,    5.3292,    4.8717,    4.9367,    5.3673,    5.9644,    6.6618,    6.8312,    6.6969,    6.6432,    6.6298,    6.4715,    6.2507,    6.5930,    7.1434,    7.4251,    7.6228,    7.3947,    7.0260,    6.7118,    6.4484,    6.3863,    6.3658,  999.0000,  999.0000,  999.0000,    9.1060,    9.5037,    9.8843,   10.8613,   11.8380,   12.2059,   12.5127,   12.2592,   12.2700,   12.4674,   12.6337,   12.5513,   12.3851,   11.7164,   11.2336,   11.6286,
  8-AUG-2000 05:12:30.00,  999.0000,  999.0000,  999.0000,  999.0000,  999.0000,  999.0000,  999.0000,  999.0000,   -0.1279,   -0.1343,  999.0000,  999.0000,    0.7061,    0.9989,  999.0000,  999.0000,  999.0000,  999.0000,    2.5715,    2.9669,    3.4570,    3.7537,  999.0000,  999.0000,    4.0455,    4.2711,  999.0000,    5.1968,    5.5905,    6.0131,    5.9774,    5.6780,    5.8832,    6.2988,    6.5182,    6.6488,    7.0012,    7.4355,    7.8065,    8.3006,  999.0000,  999.0000,  999.0000,    7.8774,    7.7246,    7.5603,    7.6993,    7.9082,    8.5021,    9.0989,   10.0050,   10.9273,   11.3516,   11.7683,  999.0000,  999.0000,  999.0000,   13.4270,   13.2775,   13.1232,   12.9297,   12.7189,   12.4047,   12.1644,   12.2730,
  8-AUG-2000 05:17:34.00,    0.8043,    0.7382,  999.0000,  999.0000,  999.0000,  999.0000,  999.0000,  999.0000,  999.0000,  999.0000,  999.0000,  999.0000,    0.9849,    1.1103,    1.4146,    1.4720,    1.1546,    1.2346,  999.0000,  999.0000,  999.0000,  999.0000,    4.2824,    4.6969,  999.0000,  999.0000,  999.0000,    5.3264,    5.7821,    6.3884,    6.4076,    6.0891,    6.2132,  999.0000,  999.0000,  999.0000,  999.0000,  999.0000,  999.0000,    8.9732,    8.7450,    8.3696,    8.4408,    8.6064,    8.3596,    8.0441,  999.0000,  999.0000,  999.0000,    9.2045,   10.1238,   11.0723,   11.5368,   11.9896,   12.1972,   12.3998,   12.4992,   12.5988,   12.7010,   12.7619,   12.4935,   12.2284,   11.9157,   11.6004,   11.1976,
  8-AUG-2000 05:22:38.00,  999.0000,  999.0000,  999.0000,  999.0000,   -0.6662,   -0.8296,   -0.7828,   -0.7032,   -0.5350,   -0.2096,    0.4794,    0.9616,    1.0304,    1.2771,    1.8330,    2.2707,  999.0000,  999.0000,  999.0000,  999.0000,  999.0000,  999.0000,  999.0000,  999.0000,  999.0000,  999.0000,  999.0000,    5.3703,    5.8535,    6.3367,    6.4755,    6.4161,    6.3721,    6.3359,    6.5927,    6.9761,    7.5048,    8.0871,    8.2167,    8.2048,    8.0361,    7.8265,    7.8464,    7.9150,    7.9697,    8.0347,    8.2260,    8.4331,    8.9286,    9.5318,   10.1729,   10.8219,   11.3199,   11.8117,   12.0718,   12.3408,   12.7850,   13.1978,   13.2466,   13.2088,   12.4796,   11.8781,  999.0000,  999.0000,  999.0000,
  8-AUG-2000 05:27:42.00,  999.0000,  999.0000,  999.0000,   -1.0607,   -1.0519,   -1.0180,   -0.9039,   -0.7146,  999.0000,  999.0000,    0.4638,    0.7510,    0.8270,    0.9651,  999.0000,  999.0000,    1.7024,    2.0435,    2.5117,    2.9394,    3.3197,    3.5982,  999.0000,  999.0000,    4.1183,    4.6124,    5.3629,    5.5482,    5.9652,    6.3821,    6.4331,    6.2737,    6.1909,    6.1466,    6.3447,    6.6484,    6.8881,    7.1765,    7.4704,    7.7752,    7.7894,    7.7279,    7.7070,    7.6947,  999.0000,  999.0000,  999.0000,  999.0000,  999.0000,    9.2050,    9.6880,   10.1791,   10.5314,   10.8822,   11.2821,   11.6757,   11.9446,   12.1919,   12.1903,   12.1502,   11.8022,   11.4996,   11.4692,   11.3737,   10.9710,
  8-AUG-2000 05:32:46.00,    1.1597,    1.1915,  999.0000,  999.0000,  999.0000,  999.0000,  999.0000,  999.0000,  999.0000,  999.0000,  999.0000,  999.0000,    0.6122,    0.7061,  999.0000,  999.0000,  999.0000,  999.0000,  999.0000,  999.0000,    3.1459,    3.4092,    3.5848,    3.8187,  999.0000,  999.0000,  999.0000,    5.3266,    5.7525,    6.1785,    6.3248,    6.3103,    6.3133,    6.3252,    6.5588,  999.0000,    7.5490,    7.6124,    7.7860,    7.8991,    7.9304,    7.9405,    7.7721,    7.5660,    7.1871,    6.7794,    6.9761,    7.2483,    7.7775,    8.3290,    8.5598,    8.7746,    9.2132,    9.6625,   10.5462,   11.4034,   11.7320,   12.0605,   12.3856,   12.6276,   12.2049,   11.7792,   11.3019,   10.9624,   11.2021,
  8-AUG-2000 05:37:51.00,  999.0000,  999.0000,  999.0000,  999.0000,   -0.3698,   -0.7593,   -0.8647,   -0.9309,   -0.8914,   -0.7685,   -0.4525,   -0.1531,    0.1132,    0.4681,    0.9772,    1.3731,    1.5969,    1.9562,    2.4960,    3.2501,    4.2551,    4.4708,    3.8725,    3.8108,    4.2365,    4.7216,    5.2541,    5.6572,    6.1246,    6.5920,    6.7795,    6.8060,    6.8935,    7.0115,    7.0560,    7.0686,    7.2497,    7.4931,    7.8856,    8.3248,    8.4262,    8.4398,    8.3946,    8.3370,    7.5265,    6.5906,    6.9321,    7.4332,    8.1970,    8.9834,    9.0850,    9.1523,    9.5744,   10.0058,   10.6564,   11.2929,   11.6497,   12.0079,   12.3831,   12.6615,   12.1666,   11.7067,  999.0000,  999.0000,  999.0000,
  8-AUG-2000 05:42:55.00,  999.0000,  999.0000,  999.0000,  999.0000,  999.0000,  999.0000,   -0.2625,   -0.4551,   -0.6585,   -0.6685,  999.0000,  999.0000,  999.0000,  999.0000,    1.5186,    1.9757,    2.4629,    2.9181,  999.0000,  999.0000,    4.1557,    4.4109,  999.0000,  999.0000,    4.6896,    5.1195,    5.8188,    5.7190,    6.1471,    6.6013,    6.7576,    6.8349,    6.7652,    6.6291,    6.7004,    6.8786,    7.1731,    7.4991,    8.0078,    8.5035,    8.6147,    8.6227,    8.6710,    8.7277,    7.8542,    6.8257,    6.8557,    7.0180,    7.9252,    8.8965,    8.8798,    8.8138,    8.9988,    9.1992,   10.1894,   11.0832,   11.3936,   11.6496,   12.0999,   12.4537,   12.0366,   11.6356,   11.3309,   11.1179,   11.3381,
  8-AUG-2000 05:48:00.00,  999.0000,  999.0000,  999.0000,  999.0000,  999.0000,  999.0000,  999.0000,  999.0000,   -0.8364,   -0.8357,   -0.3705,   -0.0166,    0.1151,    0.3597,  999.0000,  999.0000,  999.0000,  999.0000,    2.5638,    2.9299,  999.0000,  999.0000,  999.0000,  999.0000,  999.0000,  999.0000,  999.0000,  999.0000,  999.0000,    6.4687,    6.5553,  999.0000,  999.0000,  999.0000,  999.0000,    6.6494,    6.9013,  999.0000,    8.2222,    8.0399,    8.2876,    8.4913,    8.5542,    8.5873,    7.7175,    6.6972,    6.7979,    7.0387,    7.8672,    8.7464,    8.8135,    8.8400,    9.1054,    9.3815,  999.0000,  999.0000,  999.0000,   12.1245,   12.5169,   12.8394,   12.6041,   12.3171,   11.7205,   11.2134,   11.1285,
  8-AUG-2000 05:53:04.00,    1.1135,    1.0694,    0.4988,    0.0074,  999.0000,  999.0000,  999.0000,  999.0000,   -0.9289,   -0.8870,   -0.3150,    0.1789,    0.5169,    0.7746,    0.8931,    1.2097,    1.8270,    2.3792,    2.8444,    3.2067,  999.0000,  999.0000,  999.0000,  999.0000,  999.0000,  999.0000,    4.8989,    5.2988,    5.7106,    6.1523,    6.5461,    6.9640,    6.7670,    6.2600,    6.1860,    6.2990,    6.5633,    6.8837,    7.5051,    8.2207,    8.2365,    8.0703,    8.0361,    8.0298,    7.4539,    6.7830,    6.9556,    7.2337,    8.1548,    9.1313,    9.2015,    9.2264,    9.6691,   10.1239,   10.9063,   11.6838,   12.3611,   13.0185,   13.4458,   13.7575,   13.1461,   12.5073,   11.7044,   10.9960,   10.7334,
  8-AUG-2000 05:58:08.00,  999.0000,  999.0000,  999.0000,    0.5749,    0.6817,    0.6111,   -0.0267,   -0.5564,   -0.7933,   -0.8132,  999.0000,  999.0000,    0.6351,    1.0888,  999.0000,  999.0000,    2.2979,    2.6021,    2.7747,    2.8588,  999.0000,  999.0000,    2.7995,    2.9642,    3.2962,    3.8796,  999.0000,    4.9331,    5.5343,    6.9635,    7.6628,    7.3610,    7.1958,    6.6401,    6.4488,    6.4149,    6.8863,    7.5445,    7.9263,    8.2308,    8.4126,    8.5878,    8.4573,    8.2632,    7.7276,    7.1352,    7.4838,    7.9501,    8.3511,    8.7466,    8.9554,    9.1450,    9.6135,   10.2350,   11.1610,   12.0578,   12.3713,   12.6967,   13.1612,   13.5269,   13.1037,   12.6500,   11.8047,   11.2278,   10.9836,
  8-AUG-2000 06:03:13.00,    1.1675,    1.0627,    0.3386,   -0.1996,   -0.0226,   -0.0278,   -0.6159,   -1.0511,   -1.0731,   -1.0098,   -0.7494,   -0.3651,  999.0000,  999.0000,    1.5308,    1.9814,  999.0000,  999.0000,  999.0000,  999.0000,    2.8567,    2.8239,    2.5767,    2.9366,    3.8480,    4.6232,  999.0000,    5.4599,    6.0078,    6.5558,    7.1032,    7.6503,    7.6349,    7.3383,    7.2484,    7.2479,    7.4182,    7.6516,    7.9010,    9.3320,  999.0000,    8.5906,    8.6578,    8.6940,    7.9729,    7.1255,    7.6212,    8.3701,    8.5352,    8.6915,  999.0000,  999.0000,  999.0000,   10.5759,   11.5941,   12.5746,   12.8041,   13.0451,   13.4180,   13.7304,   13.5586,   13.3354,  999.0000,  999.0000,  999.0000,
  8-AUG-2000 06:08:18.00,    1.8819,    1.9401,  999.0000,  999.0000,    0.3470,   -0.0991,   -0.2731,   -0.3669,  999.0000,  999.0000,    0.0040,    0.2197,  999.0000,  999.0000,  999.0000,  999.0000,    2.2191,    2.7856,    3.5741,    3.9186,    3.7431,    3.4775,    3.1191,    3.3211,  999.0000,  999.0000,  999.0000,    5.5621,    6.3604,    7.1588,    7.7042,    8.1043,    7.9911,    7.6212,    7.3519,    7.1261,    7.2872,    7.5913,    7.8633,    8.1252,    8.2439,    8.3254,    8.3729,    8.4132,    7.8029,    7.0841,  999.0000,  999.0000,  999.0000,    8.6236,    9.0505,    9.4780,    9.5328,    9.6038,   11.0419,   12.4030,   12.2286,   12.0929,   12.4051,   12.6530,   12.3873,   12.0959,   11.6505,   11.2805,   11.2671,
  8-AUG-2000 06:13:23.00,    1.6095,    1.4776,  999.0000,  999.0000,  999.0000,  999.0000,   -0.5680,   -0.8860,   -0.9577,   -0.8687,   -0.4079,    0.0485,  999.0000,  999.0000,    1.3915,    1.6661,    1.6778,    2.0652,    2.9532,    3.4849,  999.0000,  999.0000,  999.0000,  999.0000,  999.0000,  999.0000,    4.2863,    4.7968,    5.4892,    6.1094,    6.7943,    7.4788,    7.0977,    6.1836,    6.1460,    6.3869,    6.9946,    7.6420,    7.7674,    7.7400,    7.8808,    8.0654,    8.0125,    7.9094,    7.2554,    6.5095,    6.8690,    7.3668,    7.7899,    8.2066,    8.6690,    9.1338,    9.3923,    9.6602,   10.7045,   11.7105,   11.9519,   12.1856,   12.3285,   12.4147,   12.0482,   11.7377,   11.7630,   11.6940,   11.1805,
  8-AUG-2000 06:18:28.00,    1.0064,    0.9838,  999.0000,  999.0000,  999.0000,  999.0000,   -0.5279,   -0.7992,   -0.9864,   -0.9309,  999.0000,  999.0000,  999.0000,  999.0000,    2.1558,    2.5281,    2.5281,    2.5792,  999.0000,  999.0000,    2.9369,    3.0028,  999.0000,  999.0000,    3.0358,    3.4250,  999.0000,  999.0000,  999.0000,    5.5058,    6.0660,    6.7464,    6.9697,    6.9000,    6.9048,  999.0000,  999.0000,    6.9247,    7.0567,    7.2228,    7.4331,    7.6549,    7.5490,    7.3737,    7.2465,    7.1273,    7.5762,    8.0962,    8.2058,    8.2801,    8.6430,    9.0204,    9.7209,   10.4293,   11.3139,   12.1467,   11.9461,   11.7978,   12.2542,   12.6061,   12.1232,   11.6982,   11.6198,   11.5216,   11.3300,
  8-AUG-2000 06:23:32.00,  999.0000,  999.0000,  999.0000,  999.0000,  999.0000,  999.0000,  999.0000,  999.0000,   -0.7696,   -0.8772,  999.0000,  999.0000,  999.0000,  999.0000,  999.0000,  999.0000,  999.0000,  999.0000,    2.5012,    2.8049,  999.0000,  999.0000,  999.0000,  999.0000,  999.0000,  999.0000,  999.0000,  999.0000,  999.0000,    5.4930,    5.7450,  999.0000,  999.0000,    6.3548,    6.3997,    6.4420,    6.6212,    6.8619,    7.0973,    7.3311,    7.4108,    7.4505,    7.2191,    6.9305,    7.0480,    7.2332,    7.6527,    8.1015,    8.2443,    8.3606,    8.7475,    9.1479,    9.7606,   10.3748,   10.8710,   11.3443,   11.3607,   11.4005,   11.7125,   11.9742,   11.8340,   11.7188,   11.7531,   11.7796,   11.7692,
  8-AUG-2000 06:28:36.00,    1.2786,    1.5417,    0.7736,    0.1217,  999.0000,  999.0000,  999.0000,  999.0000,   -0.9047,   -0.8874,  999.0000,  999.0000,    0.7101,    1.1950,  999.0000,  999.0000,    2.4019,    2.7164,  999.0000,  999.0000,    3.3089,    3.5355,  999.0000,  999.0000,  999.0000,    3.3653,    3.8273,    4.2892,    4.9029,    5.6165,    6.1521,    6.5853,    6.7784,  999.0000,    6.8718,    7.0084,    7.1848,    7.3971,    7.5650,    7.7191,    7.7704,    7.7951,    7.5013,    7.1401,    7.1991,    7.3281,    7.8245,    8.3668,    8.5129,    8.6249,    8.9121,    9.2082,    9.8987,   10.5883,   10.8256,   11.0598,   11.2341,   11.4332,   11.9196,   12.3257,   12.0897,   11.8750,   11.7884,   11.7151,   11.7040,
  8-AUG-2000 06:33:40.00,    1.0253,    1.0899,  999.0000,  999.0000,  999.0000,  999.0000,   -0.5169,   -0.7847,   -0.9076,   -0.8351,  999.0000,  999.0000,  999.0000,  999.0000,    1.7884,    2.1407,  999.0000,  999.0000,  999.0000,  999.0000,  999.0000,  999.0000,    2.7730,    3.0306,  999.0000,    3.3770,    3.9920,    4.5976,    5.1897,    5.7835,    6.4401,    7.1329,    7.2817,    7.1193,    7.0447,    6.9911,    6.8994,    6.7347,    7.2258,    7.9083,    8.1518,    8.2811,    7.7835,    7.1532,    7.3722,    7.9069,    8.2915,    8.6927,    8.9873,    9.2782,    9.5970,    9.9172,   10.3893,   10.8605,   11.1209,   11.3665,   11.3176,   11.3062,   11.7280,   12.0567,   11.3773,   10.9301,   10.9441,   10.8334,   10.7777,
  8-AUG-2000 06:38:44.00,    1.3285,    1.0169,  999.0000,  999.0000,    0.5802,    0.4071,  999.0000,  999.0000,   -0.3763,   -0.4535,  999.0000,  999.0000,  999.0000,  999.0000,  999.0000,  999.0000,  999.0000,  999.0000,    2.6828,    2.7852,    2.5994,    2.6196,    2.8522,    2.9506,    2.9272,    3.2136,  999.0000,    4.3858,    5.0414,    5.7798,    6.4157,    6.9926,    7.0823,    7.4854,  999.0000,  999.0000,  999.0000,    6.4949,    6.9049,    7.4819,    7.9594,    8.4109,    8.3670,    8.2183,  999.0000,  999.0000,  999.0000,    9.0246,    9.0561,    9.0719,    9.2406,    9.4170,    9.6802,    9.9429,    9.9446,   10.1313,   10.6825,   11.1373,   11.9708,   12.7255,  999.0000,  999.0000,  999.0000,  999.0000,  999.0000,
  8-AUG-2000 06:43:48.00,  999.0000,    1.0118,    0.8041,    0.6241,    0.5510,    0.3977,  999.0000,  999.0000,   -0.8312,   -0.9618,  999.0000,  999.0000,    0.5830,    1.0550,  999.0000,  999.0000,    2.2465,    2.4759,  999.0000,  999.0000,    2.4935,    2.6153,  999.0000,  999.0000,    2.6288,    2.9033,    3.5411,    4.3680,    4.9312,    5.1770,    5.7642,    6.5053,    6.6174,    6.4590,    6.5545,    6.7597,    6.8599,    6.7841,    7.1873,    7.7648,    8.0312,    8.2445,    8.0541,    7.7783,  999.0000,  999.0000,  999.0000,    9.0793,    9.1979,    9.2937,    9.7962,   10.3189,   10.6284,   10.9271,  999.0000,  999.0000,  999.0000,   10.2559,   11.3060,   12.1718,  999.0000,  999.0000,  999.0000,   10.0646,   11.2676,
  8-AUG-2000 06:48:53.00,    1.3830,    1.1275,    0.9227,    0.7644,    0.7849,    0.6923,  999.0000,  999.0000,   -0.6704,   -0.8281,  999.0000,  999.0000,    0.7585,    1.2481,    1.6694,    2.1133,    2.5917,    2.8527,  999.0000,  999.0000,  999.0000,  999.0000,    2.7088,    2.7465,    2.8445,    3.1732,  999.0000,    3.8206,    4.5071,  999.0000,  999.0000,    6.6522,    6.9497,    6.9869,    6.9361,    6.8474,    7.0128,  999.0000,  999.0000,    8.1114,    8.2521,    8.3146,    8.3714,    8.4269,    8.3881,    8.3335,    8.6821,    9.0810,    9.1817,    9.2567,    9.6911,   10.1434,   10.3253,   10.5009,  999.0000,  999.0000,  999.0000,  999.0000,  999.0000,  999.0000,  999.0000,  999.0000,  999.0000,  999.0000,  999.0000,
  8-AUG-2000 06:53:57.00,    0.9383,    0.8851,    0.6774,    0.4823,    0.3360,    0.1221,   -0.3080,   -0.5629,  999.0000,  999.0000,    0.0932,    0.3385,    0.6369,    1.1881,    2.1785,    2.7217,    2.5857,    2.5889,    2.7776,    2.7568,    2.4905,    2.2358,    1.9929,    2.2055,    2.8316,    3.2309,    3.4489,    3.7356,    4.0706,    3.7326,    5.0369,    6.4047,    7.1731,    7.6416,    7.3802,    6.8034,    6.5618,    6.4441,    7.1125,    8.0266,    8.2060,    8.1944,    8.3252,    8.4862,    8.3607,    8.1874,    8.5523,    8.9844,    8.8897,    8.7497,    9.2567,    9.7960,   10.0329,   10.2511,    9.6179,    9.0419,    9.6049,   10.2026,   11.2026,   12.0714,  999.0000,  999.0000,  999.0000,   11.4832,   12.0626,
  8-AUG-2000 06:59:01.00,    0.9862,    0.9219,    0.8092,    0.7510,    0.9016,    0.8802,    0.3082,   -0.1074,   -0.1001,   -0.0805,   -0.0322,    0.0537,    0.2146,    0.6325,    1.4971,    1.9981,    1.9469,    2.1165,    2.5803,    2.6283,    2.1894,    1.9551,    1.9317,    2.0095,    2.1792,    2.3216,    2.9153,    3.5089,    3.8868,    4.1225,    5.0746,    6.4387,    7.2024,    7.6656,    7.4282,    6.8880,    6.8528,    7.0041,    7.5905,    8.3130,    8.4812,    8.5052,    8.5666,    8.6359,    8.4999,    8.3298,    8.6473,    9.0258,    8.8938,    8.7178,    9.1552,    9.6232,    9.6631,    9.6877,    9.1948,    8.7436,    9.1250,    9.5661,   10.6984,   11.7041,  999.0000,  999.0000,  999.0000,   11.6995,   12.3775,
  8-AUG-2000 07:06:14.00,    1.5150,    1.1091,  999.0000,  999.0000,    0.5254,    0.2995,   -0.0267,   -0.3316,   -0.5789,   -0.6632,   -0.3707,   -0.0948,  999.0000,  999.0000,  999.0000,  999.0000,  999.0000,  999.0000,  999.0000,  999.0000,  999.0000,  999.0000,  999.0000,  999.0000,  999.0000,    3.2439,    3.6981,    4.1523,    4.3111,    4.2755,    5.1762,    6.6158,    7.1361,    7.3692,    7.3009,    7.1791,    7.1650,    7.1109,    7.8399,    8.7856,    8.8974,    8.7924,    8.7069,    8.6256,    8.3767,    8.1000,    8.0876,    8.1375,    7.8742,    7.6586,    8.3785,    9.1473,    9.2318,    9.3061,    9.4310,    9.5715,   10.0244,   10.4870,   11.0623,   11.5938,   11.7759,   11.9102,   11.7587,   11.7542,   12.4440,
  8-AUG-2000 07:12:56.00,    1.1690,    0.9443,    0.7293,    0.5323,    0.4051,    0.2316,  999.0000,  999.0000,   -0.7317,   -0.9118,   -0.7655,   -0.5374,  999.0000,  999.0000,  999.0000,  999.0000,  999.0000,  999.0000,    2.2045,    2.2292,    1.8240,    1.7543,  999.0000,  999.0000,    2.5838,    2.1771,    3.0392,    3.9012,    4.1355,    3.9567,    4.4439,    5.3141,    5.7163,  999.0000,  999.0000,  999.0000,  999.0000,    6.5191,    7.1880,    8.0143,    8.5116,    8.9232,    8.4197,    7.7225,    7.8811,    8.1823,  999.0000,  999.0000,  999.0000,    8.1408,    8.8928,    9.6833,    9.5227,    9.3529,    9.5562,    9.7893,   10.6152,   11.4168,   11.9365,   12.3500,   11.9146,   11.5544,   11.6447,   11.8616,   12.6759,
  8-AUG-2000 07:19:38.00,  999.0000,  999.0000,  999.0000,  999.0000,  999.0000,  999.0000,  999.0000,  999.0000,  999.0000,  999.0000,  999.0000,  999.0000,  999.0000,  999.0000,  999.0000,  999.0000,  999.0000,  999.0000,  999.0000,  999.0000,  999.0000,  999.0000,  999.0000,  999.0000,  999.0000,  999.0000,  999.0000,  999.0000,  999.0000,  999.0000,  999.0000,  999.0000,  999.0000,  999.0000,  999.0000,  999.0000,  999.0000,  999.0000,  999.0000,  999.0000,  999.0000,  999.0000,  999.0000,  999.0000,  999.0000,  999.0000,  999.0000,  999.0000,  999.0000,  999.0000,  999.0000,  999.0000,  999.0000,  999.0000,  999.0000,  999.0000,  999.0000,  999.0000,  999.0000,  999.0000,  999.0000,  999.0000,  999.0000,  999.0000,  999.0000,
  8-AUG-2000 07:26:20.00,  999.0000,  999.0000,  999.0000,  999.0000,  999.0000,  999.0000,  999.0000,  999.0000,  999.0000,  999.0000,  999.0000,  999.0000,  999.0000,  999.0000,  999.0000,  999.0000,  999.0000,  999.0000,  999.0000,  999.0000,  999.0000,  999.0000,  999.0000,  999.0000,  999.0000,  999.0000,  999.0000,  999.0000,  999.0000,  999.0000,  999.0000,  999.0000,  999.0000,  999.0000,  999.0000,  999.0000,  999.0000,  999.0000,  999.0000,  999.0000,  999.0000,  999.0000,  999.0000,  999.0000,  999.0000,  999.0000,  999.0000,  999.0000,  999.0000,  999.0000,  999.0000,  999.0000,  999.0000,  999.0000,  999.0000,  999.0000,  999.0000,  999.0000,  999.0000,  999.0000,  999.0000,  999.0000,  999.0000,  999.0000,  999.0000,
  8-AUG-2000 07:33:02.00,  999.0000,  999.0000,  999.0000,  999.0000,  999.0000,  999.0000,  999.0000,  999.0000,  999.0000,  999.0000,  999.0000,  999.0000,  999.0000,  999.0000,  999.0000,  999.0000,  999.0000,  999.0000,  999.0000,  999.0000,  999.0000,  999.0000,  999.0000,  999.0000,  999.0000,  999.0000,  999.0000,  999.0000,  999.0000,  999.0000,  999.0000,  999.0000,  999.0000,  999.0000,  999.0000,  999.0000,  999.0000,  999.0000,  999.0000,  999.0000,  999.0000,  999.0000,  999.0000,  999.0000,  999.0000,  999.0000,  999.0000,  999.0000,  999.0000,  999.0000,  999.0000,  999.0000,  999.0000,  999.0000,  999.0000,  999.0000,  999.0000,  999.0000,  999.0000,  999.0000,  999.0000,  999.0000,  999.0000,  999.0000,  999.0000,
  8-AUG-2000 07:39:44.00,  999.0000,  999.0000,  999.0000,  999.0000,  999.0000,  999.0000,  999.0000,  999.0000,  999.0000,  999.0000,  999.0000,  999.0000,  999.0000,  999.0000,  999.0000,  999.0000,  999.0000,  999.0000,  999.0000,  999.0000,  999.0000,  999.0000,  999.0000,  999.0000,  999.0000,  999.0000,  999.0000,  999.0000,  999.0000,  999.0000,  999.0000,  999.0000,  999.0000,  999.0000,  999.0000,  999.0000,  999.0000,  999.0000,  999.0000,  999.0000,  999.0000,  999.0000,  999.0000,  999.0000,  999.0000,  999.0000,  999.0000,  999.0000,  999.0000,  999.0000,  999.0000,  999.0000,  999.0000,  999.0000,  999.0000,  999.0000,  999.0000,  999.0000,  999.0000,  999.0000,  999.0000,  999.0000,  999.0000,  999.0000,  999.0000,
  8-AUG-2000 07:46:26.00,  999.0000,  999.0000,  999.0000,  999.0000,  999.0000,  999.0000,  999.0000,  999.0000,  999.0000,  999.0000,  999.0000,  999.0000,  999.0000,  999.0000,  999.0000,  999.0000,  999.0000,  999.0000,  999.0000,  999.0000,  999.0000,  999.0000,  999.0000,  999.0000,  999.0000,  999.0000,  999.0000,  999.0000,  999.0000,  999.0000,  999.0000,  999.0000,  999.0000,  999.0000,  999.0000,  999.0000,  999.0000,  999.0000,  999.0000,  999.0000,  999.0000,  999.0000,  999.0000,  999.0000,  999.0000,  999.0000,  999.0000,  999.0000,  999.0000,  999.0000,  999.0000,  999.0000,  999.0000,  999.0000,  999.0000,  999.0000,  999.0000,  999.0000,  999.0000,  999.0000,  999.0000,  999.0000,  999.0000,  999.0000,  999.0000,
  8-AUG-2000 07:53:08.00,  999.0000,  999.0000,  999.0000,  999.0000,  999.0000,  999.0000,  999.0000,  999.0000,  999.0000,  999.0000,  999.0000,  999.0000,  999.0000,  999.0000,  999.0000,  999.0000,  999.0000,  999.0000,  999.0000,  999.0000,  999.0000,  999.0000,  999.0000,  999.0000,  999.0000,  999.0000,  999.0000,  999.0000,  999.0000,  999.0000,  999.0000,  999.0000,  999.0000,  999.0000,  999.0000,  999.0000,  999.0000,  999.0000,  999.0000,  999.0000,  999.0000,  999.0000,  999.0000,  999.0000,  999.0000,  999.0000,  999.0000,  999.0000,  999.0000,  999.0000,  999.0000,  999.0000,  999.0000,  999.0000,  999.0000,  999.0000,  999.0000,  999.0000,  999.0000,  999.0000,  999.0000,  999.0000,  999.0000,  999.0000,  999.0000,
  8-AUG-2000 07:59:50.00,  999.0000,  999.0000,  999.0000,  999.0000,  999.0000,  999.0000,  999.0000,  999.0000,  999.0000,  999.0000,  999.0000,  999.0000,  999.0000,  999.0000,  999.0000,  999.0000,  999.0000,  999.0000,  999.0000,  999.0000,  999.0000,  999.0000,  999.0000,  999.0000,  999.0000,  999.0000,  999.0000,  999.0000,  999.0000,  999.0000,  999.0000,  999.0000,  999.0000,  999.0000,  999.0000,  999.0000,  999.0000,  999.0000,  999.0000,  999.0000,  999.0000,  999.0000,  999.0000,  999.0000,  999.0000,  999.0000,  999.0000,  999.0000,  999.0000,  999.0000,  999.0000,  999.0000,  999.0000,  999.0000,  999.0000,  999.0000,  999.0000,  999.0000,  999.0000,  999.0000,  999.0000,  999.0000,  999.0000,  999.0000,  999.0000,
  8-AUG-2000 08:06:32.00,  999.0000,  999.0000,  999.0000,  999.0000,  999.0000,  999.0000,  999.0000,  999.0000,  999.0000,  999.0000,  999.0000,  999.0000,  999.0000,  999.0000,  999.0000,  999.0000,  999.0000,  999.0000,  999.0000,  999.0000,  999.0000,  999.0000,  999.0000,  999.0000,  999.0000,  999.0000,  999.0000,  999.0000,  999.0000,  999.0000,  999.0000,  999.0000,  999.0000,  999.0000,  999.0000,  999.0000,  999.0000,  999.0000,  999.0000,  999.0000,  999.0000,  999.0000,  999.0000,  999.0000,  999.0000,  999.0000,  999.0000,  999.0000,  999.0000,  999.0000,  999.0000,  999.0000,  999.0000,  999.0000,  999.0000,  999.0000,  999.0000,  999.0000,  999.0000,  999.0000,  999.0000,  999.0000,  999.0000,  999.0000,  999.0000,
  8-AUG-2000 08:08:57.00,    1.2945,    0.8782,  999.0000,  999.0000,  999.0000,  999.0000,  999.0000,  999.0000,   -0.8550,   -0.7309,    0.2537,    0.9499,    1.0699,    1.4089,    2.1286,    2.5081,    2.3705,    2.2374,  999.0000,  999.0000,    1.8556,    1.9689,    2.3302,    2.3420,    2.0362,    2.1489,    2.4301,    2.7113,    3.0438,    3.4102,    4.0794,    4.9605,    5.7324,    6.4533,    6.4338,    6.0820,    6.3783,    6.9140,    7.3025,    7.6450,    7.9141,    8.1641,    7.7576,    7.2122,    7.3601,    7.6237,    7.3922,    7.0989,    7.0591,    7.0412,    7.4677,    7.9165,    7.8570,    7.8050,    8.8449,    9.8040,   10.5112,   11.1761,   11.3517,   11.6133,   12.5615,   13.4353,   13.8630,   14.2682,   14.5663,
  8-AUG-2000 08:15:39.00,    1.2173,    0.6321,    0.3439,    0.0995,    0.0234,   -0.0412,   -0.0690,   -0.0790,   -0.0410,    0.1346,  999.0000,  999.0000,    1.6158,    1.9244,  999.0000,  999.0000,    1.8849,    1.9558,    2.1386,    2.2584,  999.0000,  999.0000,  999.0000,  999.0000,    2.4876,    2.3595,    2.5534,    2.7780,    2.9802,    3.1835,    3.6960,  999.0000,    5.7190,    5.8120,    5.8874,    5.6855,    6.0331,    6.5837,    7.1013,    7.6085,    7.8790,    8.0880,    7.7556,    7.3087,    7.3034,    7.3716,    7.0149,    6.6051,    6.4525,    6.3220,    6.8771,    7.4664,    7.6126,    7.7559,    9.3617,   10.2805,   11.1627,  999.0000,  999.0000,  999.0000,  999.0000,  999.0000,  999.0000,  999.0000,  999.0000,
  8-AUG-2000 08:22:22.00,  999.0000,  999.0000,  999.0000,    0.0644,    0.1112,    0.1256,    0.0364,   -0.1026,   -0.3762,   -0.3020,    0.5773,    1.2555,  999.0000,  999.0000,  999.0000,  999.0000,    2.6379,    2.7783,    2.7374,    2.7745,  999.0000,  999.0000,    3.1608,    3.0955,    2.8541,    2.7559,    2.7720,    3.1157,    3.4172,    3.6967,    4.0513,    4.4491,    4.9531,    5.5103,    5.4092,    5.0238,    5.5396,    6.3886,    6.9825,    7.4966,    7.6630,    7.7390,    7.4915,    7.1383,    7.2073,    7.4307,    7.4106,    7.3688,    7.4500,    7.5418,    8.0022,    8.4810,    8.5829,    8.6877,    9.3435,   10.0156,   11.0112,   11.9719,   12.5286,   13.0636,   13.3771,   13.6647,   13.5603,   13.6010,   14.1217,
  8-AUG-2000 08:29:04.00,    1.0401,    0.7220,    0.3387,    0.0321,    0.0204,    0.0000,   -0.0483,   -0.1743,   -0.5108,   -0.5651,  999.0000,  999.0000,  999.0000,  999.0000,    2.4290,    2.7646,    2.7002,    2.6070,    2.4753,    2.1557,    1.6159,    1.6275,  999.0000,  999.0000,    2.5939,    2.3621,    2.6297,    3.3611,    3.7676,    3.9286,    4.3342,    4.8291,    5.1523,    5.3897,    5.5417,    5.6568,    5.8340,    6.0342,    6.6614,    7.4222,    7.7046,    7.8625,    7.3689,    7.2766,    7.2839,    7.8723,    8.4387,    9.0767,    8.9651,    8.7890,    8.7576,    8.7334,    9.1695,    9.6174,   10.3380,   11.0487,   11.5631,   12.0966,   12.8520,   13.5566,  999.0000,  999.0000,  999.0000,  999.0000,  999.0000,
  8-AUG-2000 08:35:47.00,    0.6712,    0.3611,   -0.0939,   -0.4598,   -0.4832,   -0.5031,   -0.5119,   -0.5400,   -0.6205,   -0.4957,    0.1041,    0.6739,  999.0000,  999.0000,    2.2034,    2.3877,    2.0776,    1.8248,  999.0000,  999.0000,    1.2960,    1.3704,  999.0000,  999.0000,    2.2431,    2.2376,    2.4777,  999.0000,  999.0000,    3.6909,    4.1692,    4.7130,    5.0941,    5.3777,    5.6249,    5.8352,    6.1710,    6.5836,    7.0151,    7.4544,    7.8326,    8.2743,    8.1151,    7.8104,    7.4917,    7.1597,    7.2717,    7.4392,    7.8593,    8.3364,    8.5854,    8.8231,    9.7218,   10.6211,   10.9021,   11.1735,   11.2520,   11.4148,   12.5538,   13.5671,   13.5578,   13.5754,  999.0000,  999.0000,  999.0000,
  8-AUG-2000 08:42:34.00,    0.7687,    0.0476,  999.0000,  999.0000,   -0.1235,   -0.1496,   -0.0764,   -0.0823,   -0.3017,   -0.2360,    0.4896,    1.0535,  999.0000,  999.0000,    1.7754,    2.0292,    2.3027,    2.3706,    2.1643,    1.9796,    1.8201,    2.0200,    2.5906,    2.4190,    1.5734,    1.3474,  999.0000,  999.0000,  999.0000,  999.0000,  999.0000,  999.0000,  999.0000,    5.2587,    5.6361,    6.0104,    6.2609,  999.0000,  999.0000,  999.0000,  999.0000,  999.0000,  999.0000,    7.4788,    7.1070,    6.6521,    6.9259,    7.2908,    8.8700,  999.0000,  999.0000,  999.0000,  999.0000,  999.0000,  999.0000,  999.0000,  999.0000,  999.0000,  999.0000,  999.0000,  999.0000,  999.0000,  999.0000,  999.0000,  999.0000,
  8-AUG-2000 08:49:17.00,  999.0000,  999.0000,  999.0000,   -0.1763,   -0.3050,   -0.4864,   -0.8360,   -1.0838,   -1.0560,   -0.8958,   -0.4291,    0.0912,    0.7188,    1.1917,  999.0000,  999.0000,    1.8040,    1.9118,    1.8913,    1.6977,    1.3012,    1.1957,    1.3903,    1.6590,  999.0000,  999.0000,  999.0000,  999.0000,  999.0000,    4.2023,    4.5419,  999.0000,  999.0000,    5.5169,    5.8183,    6.1142,    6.3867,    6.6504,    7.2451,    7.9432,    7.3707,    7.4512,    7.4716,    7.2474,    6.6517,    5.9958,    6.2987,    6.7216,    7.6341,    8.5888,    8.3393,    8.0296,    9.0446,   10.0697,   10.4013,   10.7407,   11.2336,   11.7264,   12.2191,   12.6644,  999.0000,  999.0000,  999.0000,  999.0000,  999.0000,
  8-AUG-2000 08:56:01.00,  999.0000,  999.0000,  999.0000,  999.0000,   -0.4578,   -0.7475,   -0.8880,   -0.9826,   -0.9534,   -0.7352,  999.0000,  999.0000,  999.0000,  999.0000,    2.5418,    2.9120,    2.8491,    2.7065,    2.4578,    2.0198,    1.3600,    1.3506,    2.0118,    2.6209,    2.8417,    3.0995,    3.5988,    4.2919,    4.7180,    4.9509,    5.1880,    5.4175,    5.5411,    5.6119,    5.9457,    6.4045,    6.2224,    5.8057,    6.2053,    6.8577,    7.1276,    7.2982,    7.2949,    7.2548,    6.6559,    5.9640,    6.1540,    6.4542,    7.0191,    7.6067,    7.7622,    7.8962,    8.7285,    9.5547,    9.3110,    9.1202,    9.9866,   10.8328,   11.4446,   11.9770,   11.8754,   11.7729,   11.6897,   11.6551,   12.2260,
  8-AUG-2000 09:02:44.00,    0.8400,    0.2740,  999.0000,  999.0000,  999.0000,  999.0000,  999.0000,  999.0000,  999.0000,  999.0000,   -0.1473,    0.0513,  999.0000,  999.0000,    2.1184,    2.5269,    2.5093,    2.3296,  999.0000,  999.0000,    1.1425,    0.7467,  999.0000,  999.0000,    2.8061,    3.3966,    3.8027,  999.0000,  999.0000,    4.5572,    4.7700,    4.9686,    5.2482,    5.5683,    5.8109,  999.0000,  999.0000,    6.3632,    6.4968,    6.6203,    6.8625,    7.1356,    7.0946,    6.9872,    6.4177,    5.7712,    6.0348,    6.4632,    6.8493,    7.2812,    7.6443,    8.0325,    8.6877,    9.3400,    9.5530,    9.7806,   10.2960,   10.7909,   11.0485,   11.2646,   11.1488,   11.0867,  999.0000,  999.0000,  999.0000,
  8-AUG-2000 09:09:27.00,  999.0000,  999.0000,  999.0000,  999.0000,  999.0000,  999.0000,   -0.9985,   -1.0585,   -1.1185,   -0.9123,  999.0000,  999.0000,    1.5542,    2.1765,    2.4515,    2.6110,    2.5949,    2.5673,  999.0000,  999.0000,  999.0000,  999.0000,    2.3527,    2.6401,    2.5887,    3.2881,    3.7588,    4.0385,    4.1804,    4.2372,    4.4291,    4.7866,    4.8399,    4.7518,    5.1893,    5.6987,    6.1078,    6.4363,    6.5038,    6.4897,    6.8662,    7.3442,    7.1505,    6.8148,    6.5096,    6.2095,  999.0000,  999.0000,  999.0000,  999.0000,  999.0000,  999.0000,  999.0000,  999.0000,  999.0000,  999.0000,  999.0000,  999.0000,  999.0000,  999.0000,  999.0000,  999.0000,  999.0000,  999.0000,  999.0000,
  8-AUG-2000 09:16:11.00,    0.4147,   -0.1965,  999.0000,  999.0000,   -0.8022,   -0.9608,   -0.9813,   -0.9674,   -0.8606,   -0.6605,  999.0000,  999.0000,  999.0000,  999.0000,  999.0000,  999.0000,    2.2529,    2.2943,    1.8364,    1.8338,  999.0000,  999.0000,  999.0000,  999.0000,    4.4865,    5.1946,  999.0000,    4.0322,    3.9912,    3.9103,    4.0491,  999.0000,  999.0000,  999.0000,  999.0000,    4.8046,    4.9950,    5.2134,    5.7690,    6.4302,    6.7674,    7.0204,    6.7338,    6.3330,    6.1772,    6.0623,    6.6882,    7.3550,  999.0000,  999.0000,  999.0000,  999.0000,  999.0000,  999.0000,  999.0000,  999.0000,  999.0000,  999.0000,  999.0000,  999.0000,  999.0000,  999.0000,  999.0000,  999.0000,  999.0000,
  8-AUG-2000 09:22:55.00,    1.1252,    0.6107,  999.0000,  999.0000,   -0.3241,   -0.6165,   -0.8477,   -1.0618,   -1.2301,   -1.1395,  999.0000,  999.0000,  999.0000,  999.0000,    2.3081,    2.5569,  999.0000,  999.0000,    1.2951,    1.0669,    1.0640,    1.5227,  999.0000,  999.0000,    2.8328,    3.6506,    4.0962,    4.2625,    3.9626,    3.3557,    3.9205,    5.1593,    5.6418,  999.0000,  999.0000,  999.0000,  999.0000,  999.0000,  999.0000,  999.0000,  999.0000,  999.0000,  999.0000,  999.0000,  999.0000,  999.0000,  999.0000,    6.9277,    7.6410,    8.4041,  999.0000,  999.0000,  999.0000,  999.0000,  999.0000,  999.0000,  999.0000,  999.0000,  999.0000,  999.0000,  999.0000,  999.0000,  999.0000,  999.0000,  999.0000,
  8-AUG-2000 09:29:38.00,    1.1345,    0.7198,    0.3570,    0.0265,   -0.1797,   -0.3432,   -0.3695,   -0.3378,   -0.1491,    0.1703,    0.7921,    1.3621,  999.0000,  999.0000,    2.7621,    2.9570,    2.7390,    2.2783,    1.4941,    1.0913,    1.1352,    1.1791,  999.0000,  999.0000,    2.7567,    3.4478,    3.8801,    4.1615,    4.2398,    4.1038,    4.6368,    5.5499,    5.9876,    6.2202,    6.2935,    6.2980,    6.4360,    6.6233,    6.9481,    7.3160,    7.4970,    7.6293,    7.1121,    6.4576,    6.3508,    6.3353,    6.7496,    7.2176,    7.6329,    8.0437,    7.9896,    7.9123,    8.8680,    9.8278,   10.0280,   10.2482,   10.8690,   11.4392,   11.4294,   11.3655,   10.9841,   10.7545,  999.0000,  999.0000,  999.0000,
  8-AUG-2000 09:36:21.00,  999.0000,  999.0000,  999.0000,    0.0764,    0.0559,   -0.0865,   -0.6190,   -0.8972,   -0.4876,   -0.0003,    0.6668,    1.1955,  999.0000,  999.0000,  999.0000,  999.0000,    2.4561,    2.4332,    2.0441,    1.9649,  999.0000,  999.0000,  999.0000,  999.0000,  999.0000,    3.3587,    3.6631,    3.9655,    4.2106,  999.0000,    5.0002,    4.9285,    5.1501,    5.3493,    5.6468,    5.9868,    6.0580,    6.0299,    6.1729,    6.3694,    6.7398,    7.1745,    6.7979,    6.2325,    6.1271,    6.0835,    6.6287,    7.2476,    7.7572,    8.2575,    8.3598,    8.4423,    9.4063,   10.3728,   10.6238,   10.8759,   11.1512,   11.4000,  999.0000,  999.0000,  999.0000,   11.1500,   10.8169,   10.6022,   10.9093,
  8-AUG-2000 09:43:04.00,    0.8437,    0.6407,  999.0000,  999.0000,  999.0000,  999.0000,   -0.8832,   -0.9833,  999.0000,  999.0000,    0.3773,    0.8498,  999.0000,  999.0000,    2.3815,    2.6922,    2.6996,    2.4905,    1.9931,    1.8896,  999.0000,  999.0000,  999.0000,  999.0000,    2.6013,    3.0341,    3.4069,    3.7345,    3.7816,    3.6441,    3.8250,    4.1892,    4.4775,    4.7279,    5.1015,    5.5284,    5.8699,    6.1799,    6.2940,    6.3222,  999.0000,  999.0000,  999.0000,    6.0680,    5.8832,    5.6972,    6.2996,    6.9498,    7.4904,    8.0218,    8.3050,    8.5758,    9.4208,   10.2684,   10.7097,   11.1361,   11.2653,   11.3675,   11.1549,   10.9480,   10.7868,   10.6767,   10.9812,   11.1385,  999.0000,
  8-AUG-2000 09:49:47.00,    0.4537,    0.0793,    0.0720,    0.0342,   -0.1209,   -0.2906,   -0.5071,   -0.5120,  999.0000,  999.0000,  999.0000,  999.0000,    2.3236,    2.8711,    3.3846,    3.5032,    3.0219,    2.8617,  999.0000,  999.0000,  999.0000,  999.0000,  999.0000,  999.0000,    3.1192,    3.8457,    4.1921,    4.3159,    4.1962,    3.9162,    4.0500,    4.4217,    4.6322,    4.7621,    4.9043,    5.0519,    5.2877,    5.5561,    5.9610,  999.0000,    7.1314,    7.3733,    6.8811,    6.1819,    5.4695,    5.7695,    6.1542,    6.4960,    6.8754,    7.2762,    7.8554,    8.4436,    9.4979,   10.5451,   10.6768,   10.8673,   10.4266,   10.1092,    9.9194,    9.7062,    9.2430,    8.9740,  999.0000,  999.0000,  999.0000,
  8-AUG-2000 09:56:30.00,  999.0000,  999.0000,  999.0000,  999.0000,  999.0000,  999.0000,   -0.8765,   -0.7940,   -0.2688,    0.2458,    0.7358,    1.2140,  999.0000,  999.0000,    2.5767,    2.8140,    2.7218,    2.5099,  999.0000,  999.0000,    1.3951,    1.3870,  999.0000,  999.0000,  999.0000,    3.7429,    3.6285,    3.5475,    3.6826,    3.9646,    4.4529,    5.0598,    5.2282,    5.1827,    5.3585,    5.5925,    5.7235,    5.8092,    5.9703,    6.1549,    6.6160,    7.1490,    6.7782,    6.2161,    6.1200,    6.1014,    6.4760,    6.8997,    7.3451,    7.7924,    8.5769,    9.3783,   10.6320,   11.8696,  999.0000,  999.0000,  999.0000,  999.0000,  999.0000,  999.0000,  999.0000,  999.0000,  999.0000,  999.0000,  999.0000,
  8-AUG-2000 10:03:13.00,  999.0000,   -0.0502,   -0.4862,   -0.8315,   -0.8286,   -0.7520,  999.0000,  999.0000,  999.0000,  999.0000,    0.8084,    1.1691,    1.6270,    1.9770,  999.0000,  999.0000,  999.0000,  999.0000,  999.0000,  999.0000,  999.0000,  999.0000,    3.4384,    3.5748,  999.0000,  999.0000,  999.0000,    3.8850,    4.0451,    4.2355,    4.4481,    4.7256,    4.8284,    4.6228,  999.0000,    4.8867,    5.1396,    5.4692,    5.8260,    6.1912,    6.9493,    7.8094,    7.3751,    6.6668,    6.4932,    6.4087,    7.1323,    7.9568,    8.1345,    8.1832,    8.8266,    9.4997,   10.7039,   11.8739,   12.2566,   12.6348,  999.0000,  999.0000,  999.0000,  999.0000,  999.0000,  999.0000,  999.0000,  999.0000,  999.0000,
  8-AUG-2000 10:09:55.00,    0.5849,    0.1294,   -0.4324,   -0.8734,   -0.8500,   -0.8332,   -0.8376,   -0.7531,   -0.4283,   -0.0519,    0.4440,    1.0314,  999.0000,  999.0000,    3.3421,    3.7549,    3.6247,    3.1463,    2.2042,    1.7061,    1.7280,    1.9156,  999.0000,  999.0000,  999.0000,    3.6798,    3.7028,    3.7259,    3.8318,  999.0000,    4.2203,    4.3729,  999.0000,    4.5477,    4.6959,    4.8490,    5.0629,    5.2992,    5.8015,    6.3869,    6.8251,    7.2249,    6.7866,    6.1637,    6.1023,    6.1346,    6.6836,    7.2972,  999.0000,  999.0000,  999.0000,  999.0000,  999.0000,  999.0000,  999.0000,  999.0000,  999.0000,   10.9988,   10.5652,   10.2892,  999.0000,  999.0000,  999.0000,   10.3859,   11.3532,
  8-AUG-2000 10:16:38.00,  999.0000,    0.0640,   -0.3281,   -0.6631,   -0.7787,   -0.8817,   -0.9446,   -0.8545,  999.0000,  999.0000,    0.6575,    1.3256,    2.3219,    2.9751,    3.0321,    2.8711,  999.0000,  999.0000,    1.3943,    1.1584,    1.2227,    1.5910,    2.2727,    2.7174,  999.0000,    3.3694,    3.4740,    3.5785,    3.8200,    4.1517,    4.3712,  999.0000,    4.7819,    4.7800,    5.0906,    5.4156,    5.4256,    5.2940,    6.1083,    7.1797,    7.4666,    7.5609,  999.0000,  999.0000,  999.0000,  999.0000,  999.0000,  999.0000,  999.0000,  999.0000,  999.0000,  999.0000,  999.0000,  999.0000,  999.0000,  999.0000,  999.0000,  999.0000,  999.0000,  999.0000,  999.0000,  999.0000,  999.0000,  999.0000,  999.0000,
  8-AUG-2000 10:23:21.00,  999.0000,   -0.0503,   -0.3385,   -0.5313,   -0.3572,   -0.2253,   -0.2282,   -0.2078,   -0.1245,    0.1314,  999.0000,  999.0000,  999.0000,  999.0000,    3.4059,    3.6742,    3.3553,    2.9592,    2.4603,    2.2897,  999.0000,  999.0000,  999.0000,  999.0000,  999.0000,    3.4671,    3.7828,    4.1288,    4.4541,    4.7657,    5.0695,    5.3687,    5.5030,    5.5548,    5.7220,    5.7100,  999.0000,  999.0000,  999.0000,    6.9973,    7.3938,    7.8168,    7.1771,    6.3125,    6.2885,    6.4047,    6.8508,    7.3381,    7.9563,    8.5857,    7.9359,    7.2222,  999.0000,  999.0000,  999.0000,   10.2918,   11.1623,   11.9648,  999.0000,  999.0000,  999.0000,  999.0000,  999.0000,  999.0000,  999.0000,
  8-AUG-2000 10:30:03.00,  999.0000,  999.0000,  999.0000,  999.0000,   -1.1374,   -0.8312,  999.0000,  999.0000,  999.0000,  999.0000,  999.0000,  999.0000,  999.0000,  999.0000,  999.0000,  999.0000,    2.5374,    2.4006,    1.6736,    1.2887,    1.3048,    1.3209,  999.0000,  999.0000,    3.5007,    3.3617,    3.5710,    4.0415,    4.2968,    4.4104,    4.5985,    4.8293,    5.0306,    5.2172,    5.3267,    5.4570,    5.6809,    5.8908,    6.4650,    7.1342,    7.4211,    7.6085,    7.2154,    6.6995,    6.4107,    6.1598,    6.4816,    6.8750,    7.1976,    7.4458,    7.3931,    7.2839,    8.2925,    9.3051,  999.0000,  999.0000,  999.0000,  999.0000,  999.0000,  999.0000,  999.0000,  999.0000,  999.0000,  999.0000,  999.0000,
  8-AUG-2000 10:36:48.00,  999.0000,  999.0000,  999.0000,  999.0000,   -0.8352,   -1.0211,   -0.9801,   -0.9273,   -0.8424,   -0.5082,    0.4032,    1.4088,    2.6025,    3.4334,    3.6339,    3.6225,  999.0000,  999.0000,  999.0000,  999.0000,    1.9572,    1.9780,  999.0000,  999.0000,    3.2988,    3.0130,    3.1861,    3.7037,    3.9574,    4.0374,    4.2099,    4.4354,    4.5764,    4.6750,    4.7477,  999.0000,  999.0000,    4.9493,    5.3361,    5.8214,    6.1088,    6.3446,    6.0581,    5.6611,    5.4325,    5.2320,    6.0276,    6.9477,  999.0000,  999.0000,  999.0000,    6.7369,    7.4844,    8.2334,    8.2206,    8.2335,    8.7592,    9.2427,    9.2370,    9.2507,  999.0000,  999.0000,  999.0000,  999.0000,  999.0000,
  8-AUG-2000 10:43:30.00,  999.0000,    0.2773,   -0.4103,   -0.8597,  999.0000,  999.0000,  999.0000,  999.0000,  999.0000,  999.0000,  999.0000,  999.0000,    3.3377,    3.6819,    3.8135,    3.8746,  999.0000,  999.0000,  999.0000,  999.0000,  999.0000,  999.0000,  999.0000,  999.0000,    3.3502,    3.1756,    3.1576,    3.2570,    3.2819,    3.2578,    3.7278,    4.4821,    4.8612,    5.0525,    5.0469,    4.9561,    5.0169,    5.1337,    5.6759,    6.4078,    6.5579,    6.5563,    6.1525,    5.6636,    5.7097,    5.8629,    6.7877,    7.8180,    7.9500,    8.0046,    7.4252,    6.8141,    7.2442,    7.6831,    7.6268,    7.5871,    8.0765,    8.5731,    9.0040,    9.2664,    7.9107,    6.8596,  999.0000,  999.0000,  999.0000,
  8-AUG-2000 10:50:13.00,    2.0947,    1.6685,  999.0000,  999.0000,    0.0095,   -0.3654,   -0.1708,    0.1383,    0.7571,    1.1870,    1.1797,    1.4641,    2.3316,    2.8513,    2.7664,    2.6793,    2.5885,    2.2131,    1.4582,    0.7033,  999.0000,  999.0000,  999.0000,  999.0000,    3.1572,    3.1219,    3.3803,    3.8591,    4.1959,    4.4392,    4.7368,    5.0657,    5.2890,    5.4596,    5.2472,    4.8695,    5.2356,    5.8768,    6.2538,  999.0000,  999.0000,  999.0000,  999.0000,  999.0000,  999.0000,    5.9693,    6.7535,    7.6586,    7.7519,    7.7752,    7.3914,    6.9872,    7.1569,    7.3270,    6.9569,    6.5835,  999.0000,  999.0000,  999.0000,  999.0000,  999.0000,  999.0000,  999.0000,  999.0000,  999.0000,
  8-AUG-2000 10:56:56.00,  999.0000,    0.9146,    0.1173,   -0.4934,  999.0000,  999.0000,  999.0000,  999.0000,    0.0406,    0.2405,    0.6560,    0.9709,  999.0000,  999.0000,  999.0000,  999.0000,  999.0000,  999.0000,    1.7670,    1.8808,  999.0000,  999.0000,  999.0000,  999.0000,    3.8533,    3.8092,    3.9147,    4.1326,    4.4081,    4.7216,    5.1455,    5.6328,    5.7092,    5.5832,    5.5275,    5.5722,    5.8548,    6.2352,    6.8154,    7.4582,    7.0641,    6.4454,    5.9132,    5.4242,    5.5870,    5.9440,    6.6318,    7.3771,    7.5599,    7.6943,    7.2205,    6.8047,    6.8562,    6.8499,    6.1284,    5.5089,    7.0284,    8.4307,  999.0000,  999.0000,  999.0000,    6.7829,    6.2805,    6.1995,  999.0000,
  8-AUG-2000 11:03:39.00,    1.1493,    0.9019,  999.0000,  999.0000,  999.0000,  999.0000,    0.1777,    0.2683,    0.9953,    1.4969,    1.4764,    1.4978,  999.0000,  999.0000,  999.0000,  999.0000,  999.0000,  999.0000,  999.0000,  999.0000,  999.0000,  999.0000,    2.6537,    2.7588,    2.7966,    2.9925,    3.3054,    3.7397,    4.1246,    4.4650,    4.5651,    4.5545,    4.7415,  999.0000,  999.0000,    5.5405,    6.1271,    6.9448,    7.3118,    7.5706,  999.0000,  999.0000,  999.0000,  999.0000,  999.0000,    6.6673,    6.9039,    7.1264,    7.6423,    8.1089,  999.0000,  999.0000,  999.0000,    6.1532,    5.6693,    5.2282,  999.0000,  999.0000,  999.0000,  999.0000,  999.0000,  999.0000,  999.0000,  999.0000,  999.0000,
  8-AUG-2000 11:10:22.00,  999.0000,    0.2525,   -0.6428,   -1.3738,   -1.4733,   -1.4418,   -0.9912,   -0.5544,  999.0000,  999.0000,    0.6437,    1.1263,  999.0000,  999.0000,    3.0727,    3.2961,  999.0000,  999.0000,    2.0277,    1.9027,    2.1265,    2.3504,  999.0000,  999.0000,  999.0000,  999.0000,  999.0000,  999.0000,  999.0000,    4.2377,    4.1624,    4.1019,    4.3160,    4.6781,    4.7900,    4.7939,    5.2779,  999.0000,  999.0000,  999.0000,  999.0000,  999.0000,  999.0000,    6.0090,    6.1467,    6.3581,  999.0000,  999.0000,  999.0000,    7.4921,    6.4049,    5.3956,    5.7739,    6.1906,    5.2306,    4.3484,  999.0000,  999.0000,  999.0000,  999.0000,  999.0000,  999.0000,  999.0000,  999.0000,  999.0000,
  8-AUG-2000 11:17:05.00,    2.1793,    1.2219,    0.1232,   -0.7888,   -0.9834,   -1.0121,   -0.5103,   -0.0089,    0.4914,    0.8355,    0.8179,    1.0631,  999.0000,  999.0000,    3.3738,    3.5597,  999.0000,  999.0000,    1.4553,    1.2521,  999.0000,  999.0000,  999.0000,  999.0000,    3.1539,    3.4719,  999.0000,    3.6716,    3.8214,    4.0068,    4.1683,    5.0811,  999.0000,  999.0000,  999.0000,  999.0000,  999.0000,  999.0000,  999.0000,  999.0000,  999.0000,  999.0000,  999.0000,    6.3390,    6.5272,    6.7300,    7.1074,    7.5065,    7.6281,    7.7459,  999.0000,  999.0000,  999.0000,    6.0493,    5.1252,    4.2633,  999.0000,  999.0000,  999.0000,    6.7215,    7.2186,    7.5554,  999.0000,  999.0000,  999.0000,
  8-AUG-2000 11:23:47.00,  999.0000,  999.0000,  999.0000,  999.0000,  999.0000,  999.0000,  999.0000,  999.0000,   -0.2144,    0.0226,    0.2595,    0.5163,  999.0000,  999.0000,  999.0000,  999.0000,  999.0000,  999.0000,  999.0000,  999.0000,    3.1811,    3.5828,    4.0934,    4.3433,    4.3564,    4.1644,    4.1696,  999.0000,  999.0000,    4.2096,    4.4056,    4.7099,    5.2560,    6.0570,    5.7653,    5.0453,    5.4150,  999.0000,  999.0000,  999.0000,  999.0000,  999.0000,  999.0000,    6.2370,    6.2607,    6.3376,    6.6648,    7.0234,  999.0000,  999.0000,  999.0000,  999.0000,  999.0000,  999.0000,  999.0000,    3.4312,    4.9823,    6.4343,  999.0000,  999.0000,  999.0000,  999.0000,  999.0000,  999.0000,  999.0000,
  8-AUG-2000 11:30:29.00,   -2.3674,   -2.9674,  999.0000,  999.0000,    0.2694,    1.0865,  999.0000,  999.0000,  999.0000,  999.0000,    0.9866,    0.9490,  999.0000,  999.0000,  999.0000,  999.0000,  999.0000,  999.0000,    0.4395,    0.5175,    0.7720,    1.1065,  999.0000,  999.0000,    2.4489,    2.5619,    2.8862,    3.3689,    3.7360,    4.0270,    4.2683,    4.3778,    4.6109,  999.0000,    5.3608,    5.3383,    5.8187,    6.4065,    6.6051,    6.6819,    5.9890,    5.0960,    5.3386,    5.8214,    5.8043,    5.7040,    6.0485,    6.4486,    5.9458,    5.3651,    4.9331,    4.5084,    4.7242,    4.9290,    3.8215,    2.8412,    4.3992,    5.8881,  999.0000,  999.0000,  999.0000,  999.0000,  999.0000,  999.0000,  999.0000,
  8-AUG-2000 11:37:13.00,    0.9097,   -0.5858,   -0.6589,   -0.8610,   -1.5588,   -2.0174,  999.0000,  999.0000,   -1.0980,   -0.7657,   -0.3736,    0.1019,    0.7441,    1.3927,    2.0525,    2.5810,    2.9102,    2.8944,    2.4189,    2.3898,  999.0000,  999.0000,    3.8710,    4.3648,    3.0641,    2.8966,    3.3746,    4.3371,    4.7349,    4.7609,    4.9401,  999.0000,  999.0000,    5.8243,    5.8117,    5.6153,    6.1335,    6.9820,    7.5267,    7.8813,    6.7768,    5.2630,    5.4877,    6.0802,    6.1195,    6.1191,    6.5467,    7.1261,    5.9927,    4.7199,    4.7227,    4.7891,    4.5783,    4.3529,    3.5085,    2.7690,    4.1217,    5.3962,    5.7651,    6.1139,  999.0000,  999.0000,  999.0000,  999.0000,  999.0000,
  8-AUG-2000 11:43:55.00,  999.0000,    0.5529,    0.4052,    0.3233,    0.4944,    0.6294,    0.6484,    0.7152,    0.9112,    1.0221,    0.9357,    0.9009,  999.0000,  999.0000,  999.0000,  999.0000,  999.0000,  999.0000,    1.3771,    1.6253,  999.0000,  999.0000,    3.0034,    3.4628,    2.8509,    2.3985,    2.7739,    3.7706,    4.0754,    3.9248,    4.1651,    4.6303,    4.9906,  999.0000,  999.0000,    5.7850,    6.1180,  999.0000,  999.0000,    7.2070,    6.6496,    5.8542,    6.3234,    7.0601,  999.0000,  999.0000,  999.0000,    7.2972,    6.4392,    5.5034,    5.3001,    5.1334,    5.1496,    5.1565,    4.4079,    3.7820,    5.6061,    7.3066,    7.6605,    7.9610,    8.4656,    8.8972,  999.0000,  999.0000,  999.0000,
  8-AUG-2000 11:50:40.00,  999.0000,  999.0000,  999.0000,    0.7987,    1.6970,    2.5503,    3.2598,    3.6528,  999.0000,  999.0000,    2.2637,    1.9438,  999.0000,  999.0000,  999.0000,  999.0000,  999.0000,  999.0000,    1.7057,    1.8520,  999.0000,  999.0000,    2.9251,    3.2828,    3.2358,    3.2580,    3.5247,    3.9750,    4.2602,    4.4884,    4.8234,    5.1705,    5.7069,    6.3068,    6.5324,    6.5964,    6.9410,    7.3895,    7.7357,    8.0500,    7.4397,    6.5890,    6.8601,    7.3685,    7.1780,    6.8754,  999.0000,  999.0000,  999.0000,  999.0000,  999.0000,  999.0000,  999.0000,  999.0000,  999.0000,  999.0000,  999.0000,  999.0000,  999.0000,  999.0000,  999.0000,  999.0000,  999.0000,  999.0000,  999.0000,
  8-AUG-2000 11:57:24.00,  999.0000,  999.0000,  999.0000,  999.0000,  999.0000,  999.0000,   -4.5108,   -4.6715,  999.0000,  999.0000,   -0.1401,    0.9282,    1.1125,    1.2398,  999.0000,  999.0000,  999.0000,  999.0000,    1.3812,    1.6559,    2.2191,    2.6221,  999.0000,  999.0000,    3.4074,    3.1351,    3.0683,    3.2686,    3.4196,  999.0000,  999.0000,    4.3655,    4.6744,    4.9449,    5.3042,    5.7019,    6.3363,    7.0582,    7.5124,    7.8829,    7.2217,    6.2921,    6.5102,    6.9710,  999.0000,  999.0000,  999.0000,    6.5129,    5.7362,    4.9041,    4.8552,    4.8455,    4.1819,    3.5139,    3.2166,    3.0021,    4.4662,    5.8255,  999.0000,  999.0000,  999.0000,  999.0000,  999.0000,  999.0000,  999.0000,
  8-AUG-2000 12:05:41.00,  999.0000,  999.0000,  999.0000,  999.0000,   -0.4542,   -0.4250,  999.0000,  999.0000,   -1.4256,   -1.5989,   -1.4014,   -0.9651,  999.0000,  999.0000,    1.7757,    2.6892,  999.0000,  999.0000,  999.0000,  999.0000,  999.0000,  999.0000,  999.0000,  999.0000,  999.0000,  999.0000,  999.0000,    4.5595,    4.0849,    3.6102,    4.0616,    4.9396,    5.5439,    5.9560,    6.3784,    6.8829,    7.4661,    7.9209,    8.2401,    8.8184,    7.8570,    6.3933,    6.2568,    6.3432,    6.2975,    6.2299,    6.1892,    6.1519,    5.5181,    4.8328,    4.7454,    4.6581,    3.6787,    2.7050,    2.9699,    3.2630,  999.0000,  999.0000,  999.0000,  999.0000,  999.0000,  999.0000,  999.0000,  999.0000,  999.0000,
  8-AUG-2000 12:12:16.00,  999.0000,  999.0000,  999.0000,  999.0000,    0.2248,    0.2321,  999.0000,  999.0000,  999.0000,  999.0000,    0.2687,    0.5463,  999.0000,  999.0000,    2.9996,    3.6907,    4.1896,    3.8272,    2.3175,    1.6169,    1.8641,    2.0926,  999.0000,  999.0000,  999.0000,  999.0000,  999.0000,  999.0000,  999.0000,  999.0000,    3.9754,    3.9982,    4.6944,    5.5450,    5.8572,  999.0000,  999.0000,    6.1692,    6.0013,  999.0000,  999.0000,    4.9119,    4.9922,    5.1812,    5.1577,    5.0988,    5.0739,    5.0532,    4.9721,    4.8857,  999.0000,  999.0000,  999.0000,  999.0000,  999.0000,  999.0000,  999.0000,  999.0000,  999.0000,  999.0000,  999.0000,  999.0000,  999.0000,  999.0000,  999.0000,
  8-AUG-2000 12:18:53.00,  999.0000,  999.0000,  999.0000,  999.0000,  999.0000,  999.0000,  999.0000,  999.0000,  999.0000,  999.0000,  999.0000,  999.0000,  999.0000,  999.0000,    4.3565,    4.4282,    4.4998,    4.0948,    3.0547,    2.7085,    3.1751,    3.6116,    4.0168,    4.4220,  999.0000,  999.0000,  999.0000,    4.7481,    4.7425,    4.7368,    4.6409,    4.4931,    4.9834,    5.7929,    6.0526,    6.0748,    6.4061,    6.8517,    7.1784,    7.4678,    6.7256,    5.7150,    5.7663,    6.0421,    5.9439,    5.9002,    5.9457,    5.9929,    5.6244,    5.2217,    4.3273,    3.4084,    2.8192,    2.2532,    2.7824,    3.3311,    4.2675,    5.1772,  999.0000,  999.0000,  999.0000,  999.0000,  999.0000,  999.0000,  999.0000,
  8-AUG-2000 12:25:30.00,  999.0000,  999.0000,  999.0000,  999.0000,  999.0000,  999.0000,  999.0000,  999.0000,   -3.5729,   -3.3565,  999.0000,  999.0000,    0.8612,    1.6966,  999.0000,  999.0000,  999.0000,  999.0000,    0.9163,    0.9622,  999.0000,  999.0000,    1.8092,    2.0916,  999.0000,  999.0000,  999.0000,    3.9252,    4.0173,    4.0489,    4.1729,    4.3339,    4.8522,    5.5493,    5.6355,    5.4579,    5.9625,    6.7193,    6.8147,    6.7034,    6.2641,    5.7396,    5.9622,    6.3428,  999.0000,  999.0000,  999.0000,    5.6629,    5.0177,    4.3340,    3.6063,    2.7118,    2.3992,    2.1779,    2.6489,    3.1819,    4.9535,    6.5482,    6.3071,    6.1316,  999.0000,  999.0000,  999.0000,  999.0000,  999.0000,
  8-AUG-2000 12:32:09.00,  999.0000,  999.0000,  999.0000,    1.0027,    1.0481,    1.1226,  999.0000,  999.0000,  999.0000,  999.0000,    1.9613,    2.1039,    2.1961,    2.1794,  999.0000,  999.0000,  999.0000,  999.0000,    1.1505,    1.1809,  999.0000,  999.0000,    2.1026,    2.4098,  999.0000,  999.0000,  999.0000,  999.0000,  999.0000,    3.6952,    3.5988,    3.5182,    3.8754,    4.4517,    4.5768,    4.5070,    4.9759,    5.6438,    6.1990,    6.7190,    6.2129,    5.4400,    5.3764,    5.4628,    5.5636,    5.6669,    5.5715,    5.4512,    4.4402,    3.3525,  999.0000,  999.0000,  999.0000,    2.4982,    2.7492,    3.0611,    4.5882,    5.9190,  999.0000,  999.0000,  999.0000,  999.0000,  999.0000,  999.0000,  999.0000,
  8-AUG-2000 12:38:45.00,   -0.1128,    0.4141,    2.0760,    2.9738,  999.0000,  999.0000,   -3.1441,   -4.2969,   -3.0519,   -1.8118,   -0.5829,    0.3669,    0.7589,    1.1781,  999.0000,  999.0000,  999.0000,  999.0000,    3.5090,    3.9262,  999.0000,  999.0000,  999.0000,  999.0000,    3.1523,    3.8953,    4.2935,  999.0000,  999.0000,    4.5497,    4.8225,    5.2135,    5.5854,    5.7403,    5.7364,    5.5987,    5.8765,    6.3078,    6.3983,    6.3824,    5.8702,    5.2289,    5.4089,    5.7628,    6.0675,    6.3641,    5.7347,    4.9897,    4.5633,    4.1643,    3.2761,    2.3635,    2.1039,    1.8668,    2.4624,    2.9592,    4.1520,    5.1740,    6.3788,    7.3688,  999.0000,  999.0000,  999.0000,  999.0000,  999.0000,
  8-AUG-2000 12:45:21.00,  999.0000,  999.0000,  999.0000,  999.0000,  999.0000,  999.0000,   -0.2812,   -0.2373,    0.4941,    1.2358,  999.0000,  999.0000,    3.5311,    4.0269,    4.0547,    4.3450,    5.0340,    5.0566,  999.0000,  999.0000,    2.4607,    2.0156,    2.0039,    2.1240,    2.3639,    2.4998,  999.0000,  999.0000,  999.0000,  999.0000,  999.0000,  999.0000,    2.8684,    3.6700,    3.6898,    3.6822,    4.2631,    5.0617,    5.3154,    5.3988,    5.1367,    5.0146,    5.2706,    5.7128,    5.7723,    5.7860,    4.8373,    3.8033,    3.2087,    2.6476,    2.1111,    1.5758,    1.6485,    1.7395,  999.0000,  999.0000,  999.0000,    4.3720,    4.7555,    5.1498,  999.0000,  999.0000,  999.0000,  999.0000,  999.0000,
  8-AUG-2000 12:51:57.00,  999.0000,  999.0000,  999.0000,  999.0000,  999.0000,  999.0000,    0.5953,    0.6024,    0.8818,    1.1387,  999.0000,  999.0000,    1.7531,    1.8432,  999.0000,  999.0000,  999.0000,  999.0000,  999.0000,  999.0000,    1.0777,    1.1468,    1.3999,    1.6529,  999.0000,    2.3977,    2.9303,    3.4640,    3.6393,    3.8170,    3.6910,    3.5523,    3.8926,    4.4726,    4.5459,    4.4003,    5.1159,    6.1499,    6.3334,    6.2512,  999.0000,  999.0000,  999.0000,  999.0000,  999.0000,  999.0000,  999.0000,    4.1882,    3.8179,    3.4681,    2.8270,    2.1713,    2.6295,    3.1035,    3.4559,    3.8362,    4.7734,    5.6700,    6.1075,    6.4004,    5.7348,    5.2503,  999.0000,  999.0000,  999.0000,
  8-AUG-2000 12:58:32.00,  999.0000,    0.3492,   -0.5037,   -1.0176,  999.0000,  999.0000,    1.3501,    2.1530,    2.9927,    3.4387,    2.9735,    2.7644,  999.0000,  999.0000,    3.6729,    3.8230,    3.7410,    3.5503,  999.0000,  999.0000,    2.5431,    2.2073,  999.0000,  999.0000,  999.0000,  999.0000,  999.0000,  999.0000,  999.0000,    4.7721,    4.4281,    4.0872,    4.3906,    5.0163,    5.1334,    5.0309,    5.3159,    5.7442,    5.7886,    5.7129,  999.0000,  999.0000,  999.0000,    6.4953,    6.4387,    6.3385,    5.2605,    4.0604,    3.3187,    2.6165,    2.5055,    2.4240,    2.2283,    2.0462,    2.8092,    3.5547,    4.1616,    4.6033,  999.0000,  999.0000,  999.0000,  999.0000,  999.0000,  999.0000,  999.0000,
  8-AUG-2000 13:05:08.00,  999.0000,  999.0000,  999.0000,    1.2217,    0.1376,   -0.7105,  999.0000,  999.0000,   -0.9914,   -0.8700,   -0.2512,    0.5364,    1.6614,    2.3082,    2.1238,    1.9424,  999.0000,  999.0000,  999.0000,  999.0000,    1.0573,    0.8803,  999.0000,  999.0000,    2.4618,    2.6893,    2.8559,    2.9768,    2.9754,    2.4571,    2.5463,    2.8305,    3.1923,    3.7453,    3.8418,    3.7412,    3.7326,    3.7581,    3.8241,    3.9027,    4.1213,    4.3763,    4.5695,    4.7495,    4.7368,    4.5395,    4.1508,    3.7382,    2.9702,    2.1716,    2.0532,    1.9687,    1.8798,    1.7947,    1.9520,    2.0983,  999.0000,  999.0000,  999.0000,  999.0000,  999.0000,  999.0000,  999.0000,  999.0000,  999.0000,
  8-AUG-2000 13:11:44.00,  999.0000,  999.0000,  999.0000,  999.0000,  999.0000,  999.0000,  999.0000,  999.0000,  999.0000,  999.0000,  999.0000,  999.0000,    3.6657,    3.5759,  999.0000,  999.0000,  999.0000,  999.0000,  999.0000,  999.0000,  999.0000,  999.0000,    5.4139,    5.3586,    6.1167,    6.4970,    6.2687,    5.1508,    4.7280,  999.0000,  999.0000,    3.7503,    4.0216,    4.5916,    4.7970,    4.8449,    4.8442,    4.8255,    4.5499,    4.1939,    4.3258,    4.5846,    4.7460,    4.8867,  999.0000,  999.0000,  999.0000,  999.0000,  999.0000,  999.0000,  999.0000,  999.0000,  999.0000,  999.0000,  999.0000,  999.0000,  999.0000,  999.0000,  999.0000,  999.0000,  999.0000,  999.0000,  999.0000,  999.0000,  999.0000,
  8-AUG-2000 13:18:20.00,   10.1166,    8.8095,  999.0000,  999.0000,  999.0000,  999.0000,  999.0000,  999.0000,  999.0000,  999.0000,  999.0000,  999.0000,  999.0000,  999.0000,  999.0000,  999.0000,   -4.4172,   -4.2572,  999.0000,  999.0000,    0.3861,    1.9339,  999.0000,  999.0000,  999.0000,  999.0000,  999.0000,    1.9021,    2.5578,  999.0000,  999.0000,    4.4086,    5.0096,    5.5373,    5.6864,    5.5986,    5.6174,    5.6755,    5.2740,    4.7287,    5.0789,    5.6621,    6.0964,    6.4993,    6.3470,    6.1022,    4.6111,    2.9643,    2.7349,    2.6276,    2.7501,    2.8840,    2.8571,    2.8295,    2.9214,    3.0014,    2.8456,    2.7656,  999.0000,  999.0000,  999.0000,  999.0000,  999.0000,  999.0000,  999.0000,
  8-AUG-2000 13:24:56.00,  999.0000,  999.0000,  999.0000,  999.0000,  999.0000,  999.0000,  999.0000,  999.0000,  999.0000,  999.0000,  999.0000,  999.0000,  999.0000,  999.0000,  999.0000,  999.0000,  999.0000,  999.0000,    1.4422,    1.2607,    1.2286,    1.2464,  999.0000,  999.0000,    1.4549,    1.5244,  999.0000,  999.0000,  999.0000,   -1.6780,   -0.0502,  999.0000,  999.0000,    4.9170,    5.3604,    5.2706,    5.5373,    5.9358,    6.0056,    5.9726,    5.8135,    5.6216,    5.6788,    5.7888,    5.1132,    4.3066,    3.5564,    2.8133,    2.3712,    1.9550,    2.0457,    2.1617,    2.0497,    1.9479,    2.7011,    3.4328,    3.7345,    4.0860,  999.0000,  999.0000,  999.0000,  999.0000,  999.0000,  999.0000,  999.0000,
  8-AUG-2000 13:31:32.00,  999.0000,  999.0000,  999.0000,  999.0000,  999.0000,  999.0000,  999.0000,  999.0000,  999.0000,  999.0000,  999.0000,  999.0000,  999.0000,  999.0000,   -3.4611,   -3.9146,   -4.3681,   -4.8216,  999.0000,  999.0000,  999.0000,  999.0000,  999.0000,  999.0000,  999.0000,  999.0000,  999.0000,  999.0000,  999.0000,    1.9204,    2.5299,    3.2530,    4.1223,    5.2994,    5.4683,    5.3141,    5.2768,    5.2826,    4.8742,    4.1824,    4.3378,    4.8225,    4.9711,    5.0807,    3.8714,    2.8431,    2.3543,    1.9362,    1.4816,    1.0062,    1.4545,    1.9516,    1.7351,    1.5168,    1.8989,    2.1862,    1.1718,    0.2654,    1.1460,    2.1953,  999.0000,  999.0000,  999.0000,  999.0000,  999.0000,
  8-AUG-2000 13:39:13.00,    1.3792,    1.9379,    1.6248,    1.2598,    0.6951,    0.2370,    0.1200,    0.1124,    0.4005,    1.2979,    3.6049,    5.2916,  999.0000,  999.0000,    6.6324,    7.0793,  999.0000,  999.0000,  999.0000,  999.0000,  999.0000,  999.0000,  999.0000,  999.0000,  999.0000,  999.0000,  999.0000,  999.0000,  999.0000,  999.0000,  999.0000,  999.0000,  999.0000,    8.0704,    8.0630,    8.0189,    7.4084,    6.5886,    6.4444,  999.0000,  999.0000,    6.6075,    6.9733,    7.4857,  999.0000,  999.0000,  999.0000,  999.0000,  999.0000,    0.9080,    1.5554,    2.2897,    1.9212,    1.5439,  999.0000,  999.0000,  999.0000,  999.0000,  999.0000,    3.1662,    5.0105,    6.3847,    4.7776,    3.8804,  999.0000,
  8-AUG-2000 13:46:01.00,  999.0000,  999.0000,  999.0000,  999.0000,  999.0000,  999.0000,    2.3982,    2.9122,    2.8844,    2.7661,    2.4384,    2.1107,  999.0000,  999.0000,  999.0000,  999.0000,  999.0000,  999.0000,  999.0000,  999.0000,  999.0000,  999.0000,  999.0000,  999.0000,  999.0000,    2.6781,    2.7597,    2.8373,    3.4774,  999.0000,  999.0000,    6.4138,    6.9795,    7.3361,    7.0313,    6.4409,    6.0430,    5.7162,    5.7293,    6.0216,    6.0342,    5.8085,  999.0000,  999.0000,  999.0000,    4.2252,    3.2584,    2.2281,    1.5967,    0.9996,    1.2244,    1.4904,    1.6942,    1.8912,    1.7315,    1.6167,  999.0000,  999.0000,  999.0000,  999.0000,  999.0000,  999.0000,  999.0000,  999.0000,  999.0000,
  8-AUG-2000 13:52:44.00,  999.0000,  999.0000,  999.0000,  999.0000,    0.9116,    1.4384,  999.0000,  999.0000,  999.0000,  999.0000,    4.4325,    4.6255,  999.0000,  999.0000,    2.7712,    2.7714,    3.7106,    4.3506,    4.5920,    4.6912,  999.0000,  999.0000,  999.0000,  999.0000,    4.3547,    4.2874,  999.0000,  999.0000,  999.0000,    4.3140,    4.7578,    5.2023,    5.5456,    5.8386,    5.8109,    5.7472,    5.2747,    4.6665,    4.5006,  999.0000,  999.0000,    4.4717,    4.6671,    4.9032,    4.5332,    4.0622,    3.2243,    2.3404,    1.4372,    0.5323,    0.8642,    1.2579,    1.3904,    1.5252,    2.0631,    2.5862,    2.6698,    2.9514,  999.0000,  999.0000,  999.0000,  999.0000,  999.0000,  999.0000,  999.0000,
  8-AUG-2000 13:59:27.00,  999.0000,  999.0000,  999.0000,  999.0000,    0.7608,   -0.0089,   -0.4332,   -0.5415,    0.2046,    0.9573,    1.7254,    2.3690,    2.7640,    3.3489,  999.0000,  999.0000,    6.0941,    6.5974,    6.5520,    6.5229,    6.5126,    6.3616,  999.0000,  999.0000,    5.4728,    5.1868,  999.0000,    4.2147,    4.4139,    4.5163,    4.6533,    4.7189,    5.0758,  999.0000,  999.0000,    6.4741,    6.1694,    5.5903,    5.4720,    5.4976,    5.6936,    5.9338,    5.8640,    5.7286,    5.1944,    4.5938,    3.7405,    2.8557,    2.0418,    1.2339,    1.2649,    1.3378,    2.4706,    3.5993,    3.4211,    3.2795,  999.0000,  999.0000,  999.0000,    5.9219,    7.5721,    9.0881,  999.0000,  999.0000,  999.0000,
  8-AUG-2000 14:06:09.00,    2.8657,    2.4215,  999.0000,  999.0000,  999.0000,  999.0000,  999.0000,  999.0000,    1.2643,    1.2542,  999.0000,  999.0000,  999.0000,  999.0000,    3.0000,    3.2889,  999.0000,  999.0000,    3.8814,    4.0034,  999.0000,  999.0000,    4.1044,    4.0908,    3.7844,    4.5410,    4.6987,    4.4069,    4.2622,    4.2144,    4.3614,  999.0000,  999.0000,    5.2620,    5.5804,    5.8923,    5.7923,    5.5545,    5.5808,    5.6976,    5.8462,    5.7676,    5.7110,    5.6278,    5.0474,    4.3843,    3.4584,    2.4997,    1.8527,    1.2325,    1.6718,    2.0021,    2.1178,    2.1625,    2.3102,    2.4738,    2.9567,    3.4714,  999.0000,  999.0000,  999.0000,  999.0000,  999.0000,  999.0000,  999.0000,
  8-AUG-2000 14:12:52.00,    2.3283,    1.8210,    1.7786,    1.7328,    1.6743,    1.7677,    2.3470,    2.6756,    2.3259,    1.9432,    1.4838,    1.2711,  999.0000,  999.0000,    2.1115,    2.3330,  999.0000,  999.0000,  999.0000,  999.0000,  999.0000,  999.0000,  999.0000,  999.0000,    3.5936,    3.9166,    3.9439,    3.7722,    3.5976,    3.4247,    3.3675,    3.3768,    3.7830,    4.3878,    4.9829,    5.5739,    5.5071,  999.0000,  999.0000,  999.0000,  999.0000,    4.0970,    3.7220,    3.4229,    3.0352,    2.6425,    1.7182,    0.7275,    0.4050,    0.1401,  999.0000,  999.0000,  999.0000,    1.4500,    2.1447,    2.8117,    2.9273,    3.1565,    4.7018,    6.2933,    8.2480,   10.0530,  999.0000,  999.0000,  999.0000,
  8-AUG-2000 14:19:35.00,  999.0000,  999.0000,  999.0000,  999.0000,  999.0000,  999.0000,  999.0000,  999.0000,  999.0000,  999.0000,  999.0000,  999.0000,  999.0000,  999.0000,  999.0000,  999.0000,  999.0000,  999.0000,  999.0000,  999.0000,  999.0000,  999.0000,  999.0000,  999.0000,  999.0000,  999.0000,  999.0000,  999.0000,  999.0000,  999.0000,  999.0000,  999.0000,  999.0000,  999.0000,  999.0000,  999.0000,  999.0000,  999.0000,  999.0000,  999.0000,  999.0000,  999.0000,  999.0000,  999.0000,  999.0000,  999.0000,  999.0000,  999.0000,  999.0000,  999.0000,  999.0000,  999.0000,  999.0000,  999.0000,  999.0000,  999.0000,  999.0000,  999.0000,  999.0000,  999.0000,  999.0000,  999.0000,  999.0000,  999.0000,  999.0000,
  8-AUG-2000 14:26:13.00,    1.1462,    0.4583,    0.8401,    1.2923,    2.0150,    2.6087,    2.7901,    2.9501,  999.0000,  999.0000,  999.0000,  999.0000,    3.4597,    3.5970,    3.7960,    3.5611,    2.6673,    2.1750,  999.0000,  999.0000,  999.0000,  999.0000,  999.0000,  999.0000,  999.0000,  999.0000,  999.0000,    4.7618,    4.6494,    4.2874,    4.2199,    4.3219,    4.6863,    5.1821,    5.4958,    5.7307,    5.3774,    4.8066,    4.4683,    4.2027,  999.0000,  999.0000,  999.0000,    5.6454,    5.4611,    5.1833,    4.2176,    3.1658,    2.1842,    1.2087,    1.4718,    1.7968,    1.6372,    1.4825,    2.1110,    2.7731,    4.1055,    5.4040,    6.3095,    7.1993,  999.0000,  999.0000,  999.0000,  999.0000,  999.0000,
  8-AUG-2000 14:32:56.00,    2.7352,    2.3065,    2.0431,    1.7689,  999.0000,  999.0000,    0.8210,    0.8774,    1.9409,    2.7630,  999.0000,  999.0000,  999.0000,  999.0000,  999.0000,  999.0000,  999.0000,  999.0000,    5.1330,    5.3963,  999.0000,  999.0000,  999.0000,  999.0000,  999.0000,  999.0000,  999.0000,    5.2927,    4.9167,    4.5407,    4.3484,    4.2618,    4.4277,    5.1986,    5.1340,    4.8973,    4.7790,    4.4798,    4.4806,    4.4829,    4.5861,    4.7155,    4.8686,    4.7699,    4.2367,    3.6098,    2.9314,    2.2277,    1.3616,    0.4815,    0.4826,    0.5278,    0.9675,    1.4123,    1.7780,    2.2038,    3.8279,    5.3418,    5.5810,    5.9794,    7.6490,    8.8617,    7.1760,    6.0035,  999.0000,
  8-AUG-2000 14:39:40.00,  999.0000,  999.0000,  999.0000,  999.0000,  999.0000,  999.0000,    1.2160,    1.1846,    1.6264,    1.9088,  999.0000,  999.0000,  999.0000,  999.0000,    1.4748,    1.5618,    1.9129,    2.1643,    2.2828,    2.3326,    2.3018,    2.5628,    3.1246,    3.2309,    2.9237,    2.6165,  999.0000,    3.2543,    3.0567,    3.1413,    3.2111,    3.3596,    3.6502,  999.0000,  999.0000,  999.0000,  999.0000,    4.8002,    4.8081,    4.7635,    4.6114,    4.4315,  999.0000,  999.0000,  999.0000,    3.1841,    2.1247,    1.2153,    0.4204,   -0.3489,   -0.5720,   -0.7680,    0.1263,    1.0309,    1.4866,    1.9744,    3.0907,    4.1719,    5.2316,    6.3281,    7.0999,    7.8421,  999.0000,  999.0000,  999.0000,
  8-AUG-2000 14:46:22.00,  999.0000,  999.0000,  999.0000,  999.0000,  999.0000,  999.0000,  999.0000,  999.0000,  999.0000,  999.0000,  999.0000,  999.0000,  999.0000,  999.0000,    1.9376,    2.0215,    2.0800,    2.1386,  999.0000,  999.0000,  999.0000,  999.0000,  999.0000,  999.0000,  999.0000,  999.0000,  999.0000,  999.0000,  999.0000,    5.4422,    6.4123,    7.6049,    8.5424,    9.4677,    9.4917,    9.1264,    8.5886,    7.9870,    7.5415,    7.1447,    6.9050,    6.7062,    6.6971,    6.7282,  999.0000,  999.0000,  999.0000,    2.5575,    1.6186,    0.5941,    0.5759,    0.6061,    1.2830,    1.9564,    1.7720,    1.6379,  999.0000,  999.0000,  999.0000,    5.2768,    6.1516,    7.0041,  999.0000,  999.0000,  999.0000,
  8-AUG-2000 14:53:04.00,  999.0000,  999.0000,  999.0000,  999.0000,  999.0000,  999.0000,  999.0000,  999.0000,  999.0000,  999.0000,  999.0000,  999.0000,  999.0000,  999.0000,  999.0000,  999.0000,  999.0000,  999.0000,  999.0000,  999.0000,  999.0000,  999.0000,  999.0000,  999.0000,  999.0000,    4.0320,    4.6950,  999.0000,  999.0000,  999.0000,    7.2086,    7.8153,    8.5575,    9.3325,    9.6874,    9.8607,    9.2556,    8.3627,    7.6047,    6.8889,    6.3634,    5.8873,    5.9463,    6.1184,    5.2254,    4.1548,  999.0000,  999.0000,  999.0000,    0.3328,    0.1786,    0.0639,    0.7061,    1.3549,    1.5705,    1.8394,    1.9168,    2.0641,    2.8103,    3.7837,    5.4921,    7.0008,    7.1802,    7.5539,  999.0000,
  8-AUG-2000 14:59:49.00,  999.0000,  999.0000,  999.0000,  999.0000,  999.0000,  999.0000,  999.0000,  999.0000,  999.0000,  999.0000,  999.0000,  999.0000,  999.0000,  999.0000,  999.0000,  999.0000,  999.0000,  999.0000,  999.0000,  999.0000,    5.1761,    5.2114,  999.0000,  999.0000,  999.0000,  999.0000,  999.0000,    4.1111,    4.3317,    4.4791,    4.8820,    5.4319,    6.0560,    6.7170,    7.2250,    7.6669,    7.5092,    7.1299,    6.6288,    6.1641,    5.7435,    5.3500,    5.0263,    4.6506,    3.9655,    3.2133,    2.4270,    1.6364,  999.0000,  999.0000,  999.0000,  999.0000,  999.0000,  999.0000,  999.0000,  999.0000,  999.0000,  999.0000,  999.0000,  999.0000,  999.0000,  999.0000,  999.0000,  999.0000,  999.0000,
  8-AUG-2000 15:06:32.00,  999.0000,  999.0000,  999.0000,  999.0000,  999.0000,  999.0000,  999.0000,  999.0000,    1.7564,    3.6904,    5.6244,    6.8747,  999.0000,  999.0000,  999.0000,  999.0000,  999.0000,  999.0000,    6.0632,    5.9070,    5.7036,    5.6193,  999.0000,  999.0000,  999.0000,  999.0000,  999.0000,    7.6081,    7.4659,    6.8305,    6.6000,    6.6390,    6.8041,    7.0324,    7.2992,    7.5828,    7.0544,    6.2259,    5.7892,  999.0000,  999.0000,  999.0000,  999.0000,    4.1529,    3.6353,    3.0931,    2.3987,    1.6852,    1.4868,    1.3327,    1.4984,    1.6800,    2.9396,    4.2027,  999.0000,  999.0000,  999.0000,  999.0000,  999.0000,    6.7494,    8.1019,    9.3120,  999.0000,  999.0000,  999.0000,
  8-AUG-2000 15:13:15.00,  999.0000,  999.0000,  999.0000,    2.1552,    1.6739,    1.4773,    2.1912,    2.8101,  999.0000,  999.0000,  999.0000,  999.0000,  999.0000,  999.0000,    5.3446,    5.4133,  999.0000,  999.0000,  999.0000,  999.0000,  999.0000,  999.0000,    2.7738,    2.4824,    2.2688,    3.2215,    3.4047,    2.9629,  999.0000,  999.0000,  999.0000,  999.0000,  999.0000,  999.0000,  999.0000,  999.0000,  999.0000,  999.0000,  999.0000,    5.9389,    6.0304,    6.1137,    5.2361,    4.7899,    4.2815,    3.8090,    3.1532,    2.4745,    1.7410,    1.0027,    1.4039,    1.8620,    2.8180,    3.7709,  999.0000,  999.0000,  999.0000,  999.0000,  999.0000,    5.9148,    6.7974,    7.7304,    8.0781,    8.5047,  999.0000,
  8-AUG-2000 15:19:57.00,    1.9852,    1.9653,    2.1555,    2.2241,  999.0000,  999.0000,    1.0282,    0.9314,  999.0000,  999.0000,    3.0907,    3.7983,    4.4815,    4.9064,  999.0000,  999.0000,  999.0000,  999.0000,    4.7869,    4.8611,  999.0000,  999.0000,  999.0000,  999.0000,  999.0000,  999.0000,  999.0000,  999.0000,  999.0000,    6.1133,    6.7320,    7.4113,    7.7986,    8.0397,    8.4520,    8.9381,    8.8568,    8.1547,    7.7651,    7.7508,  999.0000,  999.0000,  999.0000,    6.1245,    6.0104,    6.1208,    4.9326,    3.6104,    2.9408,    2.3274,    2.8922,    3.5159,    4.4062,    5.2803,    4.8907,    4.5522,  999.0000,  999.0000,  999.0000,  999.0000,  999.0000,    8.3708,    8.5713,    8.7897,  999.0000,
  8-AUG-2000 15:26:46.00,    1.1401,    1.1919,    0.6799,    0.2227,  999.0000,  999.0000,   -0.5169,   -0.5880,  999.0000,  999.0000,  999.0000,  999.0000,  999.0000,  999.0000,  999.0000,  999.0000,    3.0380,    3.4895,    4.0059,    4.5569,  999.0000,  999.0000,  999.0000,  999.0000,  999.0000,    2.2442,    2.4930,    2.7488,    3.3037,    4.0554,    5.6346,    7.6899,    9.1991,   10.4352,   11.4024,   12.2536,   11.7693,  999.0000,  999.0000,    8.8358,    8.1523,    7.5452,  999.0000,  999.0000,  999.0000,    4.0710,    3.0014,    1.9153,    1.7070,    1.5743,    1.8034,    2.0506,    3.2718,    4.4884,    4.4705,    4.4034,    5.3716,    6.2814,    6.5144,    6.8852,  999.0000,  999.0000,  999.0000,  999.0000,  999.0000,
  8-AUG-2000 15:33:30.00,    1.6619,    1.7618,    1.6769,    1.6712,    1.9696,    2.2416,    2.4288,    2.8554,    3.9292,    4.5541,  999.0000,  999.0000,    3.3121,    3.2443,    3.7783,    4.1090,    4.1309,    4.0851,    3.9490,    4.0737,    4.5038,    4.8762,  999.0000,  999.0000,    2.8364,    2.4434,    2.1222,    1.8548,    2.2498,    3.3380,    4.5067,    6.0948,    7.1399,    7.8432,    8.7126,    9.6867,    8.9067,    6.9604,    5.6801,    4.4119,    3.6442,    3.0066,    2.6223,    2.2915,    1.2482,    0.0861,   -0.6770,   -1.3902,   -1.2688,   -1.0753,   -0.3202,    0.4631,    1.8205,    3.1730,  999.0000,  999.0000,  999.0000,  999.0000,  999.0000,  999.0000,  999.0000,  999.0000,  999.0000,  999.0000,  999.0000,
  8-AUG-2000 15:40:12.00,   -1.5090,   -0.5654,    0.7307,    1.7318,    1.5987,    1.5987,    2.0244,    2.2937,    2.1401,    2.1603,  999.0000,  999.0000,  999.0000,  999.0000,  999.0000,  999.0000,  999.0000,  999.0000,  999.0000,  999.0000,  999.0000,  999.0000,    7.6538,    7.4361,  999.0000,  999.0000,  999.0000,  999.0000,    3.4399,    4.9794,    4.7352,  999.0000,  999.0000,  999.0000,  999.0000,  999.0000,    4.0525,    3.2201,    3.2276,    3.3461,    3.5218,    3.7124,    3.5786,    3.3761,    3.0044,    2.6046,    1.7011,    0.7345,    0.3692,    0.0557,    0.7872,    1.5708,    2.6296,    3.6729,  999.0000,  999.0000,  999.0000,  999.0000,  999.0000,  999.0000,  999.0000,  999.0000,  999.0000,  999.0000,  999.0000,
  8-AUG-2000 15:46:54.00,  999.0000,  999.0000,  999.0000,  999.0000,    2.5399,    2.6841,  999.0000,  999.0000,    2.1465,    1.7636,    0.9092,    0.3203,  999.0000,  999.0000,  999.0000,  999.0000,  999.0000,  999.0000,  999.0000,  999.0000,   -0.2064,   -0.1148,  999.0000,  999.0000,   -0.3585,    0.1053,    0.5727,    1.0429,    1.8639,    2.5110,  999.0000,    4.9909,    5.7335,    6.8700,  999.0000,    7.4468,    7.1083,    6.4408,    6.5199,    6.8324,    6.9961,    7.1209,    7.1032,    7.0552,    7.1456,    7.2590,    6.0555,    4.6874,    3.1975,    1.6971,    1.9540,    2.2985,    2.2944,    2.3539,    1.9997,    1.7919,    3.3143,    4.7556,    5.2572,    5.8512,    7.2790,    8.4423,    8.3326,    8.3140,    8.7962,
  8-AUG-2000 15:53:37.00,    1.3893,    1.7123,    3.0919,    4.3660,    5.2350,    5.6294,    4.5058,    3.4649,    2.6471,    2.0523,  999.0000,  999.0000,  999.0000,  999.0000,  999.0000,  999.0000,    1.5019,    1.4628,  999.0000,  999.0000,  999.0000,  999.0000,    1.5311,    1.6790,    1.3950,    1.3512,    1.4633,    1.6559,    2.1429,    2.8017,    3.3381,    3.8162,    4.3283,    4.8574,    5.1425,    5.3223,    5.0303,    4.5640,    5.0279,    5.7826,    6.3205,    6.8021,    6.6905,    6.4535,    6.9913,    7.6582,    7.0830,    6.3526,    4.8455,    3.2716,    2.9106,    2.6102,  999.0000,  999.0000,  999.0000,  999.0000,  999.0000,  999.0000,  999.0000,  999.0000,  999.0000,  999.0000,  999.0000,  999.0000,  999.0000,
  8-AUG-2000 16:00:19.00,    0.2806,   -0.1968,    0.5888,    1.3792,    2.1882,    2.7190,  999.0000,  999.0000,  999.0000,  999.0000,    0.9245,    1.0126,    1.9943,    3.1325,    4.5427,    5.4012,    5.4217,    5.1748,  999.0000,  999.0000,  999.0000,  999.0000,    2.1587,    2.0725,    2.4558,    2.9815,    3.2466,  999.0000,  999.0000,    4.0345,    4.1810,    4.2700,    4.4418,    4.6551,    4.7365,    4.7610,    4.2795,    3.6110,    3.4233,    3.3858,    3.4423,    3.5232,    2.9903,    2.3275,    2.5021,    2.8163,    2.0677,    1.1864,    0.2406,   -0.6160,   -0.0067,    0.6757,  999.0000,  999.0000,  999.0000,    2.7673,    2.8247,    3.1585,    3.9840,    4.8249,  999.0000,  999.0000,  999.0000,    8.4504,    8.5024,
  8-AUG-2000 16:07:02.00,    0.5397,   -0.0779,    0.3332,    0.8910,    2.0131,    2.7736,  999.0000,  999.0000,    1.5864,    1.2788,    1.1749,    1.5965,    3.0682,    4.4042,    5.5043,    5.9899,    5.5423,    5.1432,  999.0000,  999.0000,    4.1404,    3.8371,  999.0000,  999.0000,    3.6885,    3.7598,    4.0620,    4.5375,    4.8206,    4.9769,    5.3725,    5.9057,    6.4912,    7.1029,    7.4878,    7.7747,    6.9808,    5.7875,    5.9005,    6.4219,    6.6450,    6.7905,    5.5738,    4.0688,    4.2203,    4.6803,    3.6574,    2.4492,  999.0000,  999.0000,  999.0000,  999.0000,  999.0000,  999.0000,  999.0000,  999.0000,  999.0000,    4.9484,    6.0966,    7.1761,  999.0000,  999.0000,  999.0000,  999.0000,  999.0000,
  8-AUG-2000 16:13:44.00,  999.0000,  999.0000,  999.0000,    1.0198,    1.1617,    1.2787,  999.0000,  999.0000,  999.0000,  999.0000,  999.0000,  999.0000,  999.0000,  999.0000,  999.0000,  999.0000,    1.6890,    1.4645,    0.8910,    1.1442,    2.3657,    3.0414,  999.0000,  999.0000,    1.9575,    1.9003,    2.3562,    3.1973,    3.7493,    4.1110,    4.4474,    4.7692,    5.4639,    6.3451,    6.6083,    6.6046,    6.0148,    5.2084,    5.4182,    5.9456,    6.0707,    6.0912,    4.8782,    3.4042,  999.0000,  999.0000,  999.0000,  999.0000,  999.0000,  999.0000,  999.0000,  999.0000,  999.0000,  999.0000,  999.0000,  999.0000,  999.0000,  999.0000,  999.0000,  999.0000,  999.0000,  999.0000,  999.0000,  999.0000,  999.0000,
  8-AUG-2000 16:20:26.00,  999.0000,  999.0000,  999.0000,  999.0000,  999.0000,  999.0000,    1.9720,    1.6754,  999.0000,  999.0000,    1.7346,    1.7844,    1.8941,    2.0232,  999.0000,  999.0000,  999.0000,  999.0000,    2.8376,    3.1114,    3.5152,    3.6210,  999.0000,  999.0000,    4.0344,    4.1034,    3.8910,    3.4675,    3.1688,    2.9524,    3.4464,    4.3492,    5.0869,    5.6366,    5.8579,    6.0633,    5.3636,    4.3783,    4.3558,    4.6342,    4.4987,    4.2554,    3.4493,    2.5242,    2.6495,    2.9498,    2.7330,    2.4515,    1.7088,    0.9265,    1.9614,    2.4707,    1.9654,    1.4756,    1.8246,    2.1987,    3.0734,    3.8709,    3.7115,    3.8017,  999.0000,  999.0000,  999.0000,    9.1470,    8.8637,
  8-AUG-2000 16:27:10.00,    3.1845,    2.0306,    1.2099,    0.6317,  999.0000,  999.0000,    1.6938,    2.1165,    2.7251,    3.0662,    2.7882,    2.6597,  999.0000,  999.0000,  999.0000,  999.0000,    3.5107,    3.8252,  999.0000,  999.0000,    5.3459,    5.3609,  999.0000,  999.0000,    4.0385,    3.9179,    3.8436,    3.8040,    4.2643,    5.0538,    5.9667,    6.8096,    7.4032,  999.0000,  999.0000,    8.9041,    8.0244,    6.6810,    6.3612,    6.3615,    6.1088,    5.7904,    4.9366,    3.9696,    3.0403,    2.1173,    0.9366,   -0.2763,   -1.1215,   -1.9350,  999.0000,  999.0000,  999.0000,  999.0000,  999.0000,  999.0000,  999.0000,  999.0000,  999.0000,  999.0000,  999.0000,  999.0000,  999.0000,  999.0000,  999.0000,
  8-AUG-2000 16:33:52.00,  999.0000,  999.0000,  999.0000,    2.4643,    2.2946,    2.2580,    2.6471,    2.9213,    2.8848,    2.8120,    2.6555,    2.3487,    1.7416,    1.5437,    2.0572,    2.5632,    3.0576,    3.9517,    5.3780,    5.8638,  999.0000,  999.0000,    4.0162,    3.6487,    3.5826,    3.6614,    3.6740,    3.6232,    4.1003,    4.9248,    5.7900,  999.0000,  999.0000,    8.3536,    8.5532,    8.4817,    7.9187,    7.1742,    6.8478,    6.6522,    6.4447,    6.2342,    6.5506,    6.9786,    6.4602,    5.7840,    4.8388,    3.8600,    3.3025,    2.7814,    2.6498,    2.3469,  999.0000,  999.0000,  999.0000,  999.0000,  999.0000,  999.0000,  999.0000,  999.0000,  999.0000,  999.0000,  999.0000,   10.7293,   10.8752,
  8-AUG-2000 16:40:35.00,    3.3589,    2.3047,    1.5367,    0.9607,    1.1231,    1.2760,    1.3989,    1.4527,    1.3196,    1.1732,    0.9962,    0.8777,    0.8763,    1.0768,    1.6283,    2.2913,    3.1237,    3.7263,  999.0000,  999.0000,    4.6150,    4.5706,  999.0000,  999.0000,    3.3834,    3.8579,    3.9063,    3.9381,    3.9957,    4.0702,    4.3483,    4.7436,    4.8793,    4.7396,    4.8439,    5.2134,    4.7733,    4.0995,    4.2216,    4.2917,    4.7316,    5.2012,    4.6901,    3.9716,    4.6556,    5.5179,    4.2116,    2.6476,    1.9648,    1.3579,  999.0000,  999.0000,  999.0000,  999.0000,  999.0000,  999.0000,  999.0000,  999.0000,  999.0000,  999.0000,  999.0000,  999.0000,  999.0000,  999.0000,  999.0000,
  8-AUG-2000 16:47:18.00,  999.0000,  999.0000,  999.0000,    2.9568,    2.3278,    1.7374,    1.2707,    0.9905,    1.2143,    1.4690,    1.7953,    2.2134,  999.0000,  999.0000,    4.0194,    4.8035,    5.8641,    6.5318,  999.0000,  999.0000,    6.9641,    6.8564,  999.0000,  999.0000,    3.9332,    4.3044,    4.5546,    4.7138,    4.9690,    5.2873,    5.3447,    5.2519,    5.4387,    6.0738,  999.0000,    6.3479,    5.8482,    5.0584,    5.1716,  999.0000,  999.0000,  999.0000,  999.0000,  999.0000,  999.0000,    4.4683,    4.4899,    4.5797,    3.4317,    2.3011,    1.9629,    1.6643,    1.2606,    0.8719,    1.5072,    2.2920,    4.4502,    6.4939,  999.0000,  999.0000,  999.0000,    8.5949,    9.2365,    9.8816,   10.5440,
  8-AUG-2000 16:54:00.00,  999.0000,  999.0000,  999.0000,    2.4561,    2.0100,    1.6913,    1.7805,    1.9685,    2.4235,    2.8039,  999.0000,  999.0000,  999.0000,  999.0000,    3.8425,    3.6733,    2.9316,    2.6020,    2.8215,    2.6158,    1.9121,    1.4454,    1.2230,    1.4668,    1.8571,    2.1027,    2.6274,    3.3616,    3.7489,    3.9079,    4.0002,    4.0540,    4.2799,    4.5920,    4.6515,    4.6019,    3.9862,    3.1612,    2.8503,    2.7000,    3.0035,    3.4249,    3.4568,    3.4064,    3.9051,    4.2987,    4.3442,    4.1436,  999.0000,  999.0000,  999.0000,  999.0000,  999.0000,  999.0000,  999.0000,    3.0067,    3.4429,    3.9878,    5.8648,    7.4169,    6.3360,    5.6802,    6.9835,    8.1225,    8.4861,
  8-AUG-2000 17:00:43.00,    3.0059,    2.7435,    2.5752,    2.4405,    2.4347,    2.3898,    2.2201,    1.9975,    1.6317,    1.1671,    0.4737,    0.1140,    0.4212,    0.8962,    1.6627,    2.1761,  999.0000,  999.0000,    2.5623,    2.5000,  999.0000,  999.0000,    1.6420,    1.5887,    1.7331,    1.9142,    2.1804,    2.5105,    2.6889,    2.7673,    2.9255,    3.1296,    3.5835,    4.1624,    4.3471,    4.3615,    4.1345,    3.8182,    3.7041,    3.6531,    3.5078,    3.3380,    3.2948,    3.2784,    3.6588,  999.0000,  999.0000,    2.4768,    1.4198,    0.2929,    0.7682,    1.3235,    1.8288,    2.3287,    2.5493,    2.8178,    4.0011,    5.1826,  999.0000,  999.0000,  999.0000,    8.2109,    8.3532,    8.5565,    9.0477,
  8-AUG-2000 17:07:25.00,    2.3722,    2.3018,    2.6383,    2.7993,    2.2858,    1.9361,    2.1102,    2.1828,    1.9809,    1.8936,  999.0000,  999.0000,    2.4268,    2.5647,  999.0000,  999.0000,  999.0000,  999.0000,    2.9085,    3.0561,    3.2960,    3.4149,    3.4091,    3.4040,    3.4343,    3.4777,    3.8315,    4.2684,    4.6606,    5.0234,    5.1762,    5.2081,    5.6565,    6.3132,    6.3528,    6.1258,    5.8512,    5.5590,    5.6589,    5.8814,    6.2799,    6.7241,    6.2651,    5.6150,    5.4152,    5.2904,    4.6132,    3.8668,    2.2515,    0.7955,    1.6924,    2.5562,    3.3090,    4.0391,    3.5417,    3.1271,  999.0000,  999.0000,  999.0000,    8.1626,    8.7675,    9.3589,    9.2525,    9.3211,   10.1647,
  8-AUG-2000 17:14:08.00,  999.0000,  999.0000,  999.0000,  999.0000,  999.0000,  999.0000,  999.0000,  999.0000,    0.8211,    0.8754,  999.0000,  999.0000,  999.0000,  999.0000,    2.3554,    2.8794,    3.7499,    4.5877,    5.3821,    5.8746,    6.0136,    6.0359,    5.9379,    5.8958,    5.9046,    3.1249,    4.2670,    5.0308,    5.4484,    5.7576,    5.8248,    5.9684,    6.5027,    7.2325,    7.5811,    7.7652,    7.2345,    6.4397,    6.6048,    7.0699,    7.5357,    8.0017,    7.5083,    6.8119,    6.7516,    6.7972,    6.2450,    5.6180,  999.0000,  999.0000,  999.0000,  999.0000,  999.0000,  999.0000,  999.0000,  999.0000,  999.0000,  999.0000,  999.0000,  999.0000,  999.0000,  999.0000,  999.0000,    8.9170,    9.3327,
  8-AUG-2000 17:20:51.00,  999.0000,  999.0000,  999.0000,  999.0000,  999.0000,  999.0000,  999.0000,  999.0000,  999.0000,  999.0000,    1.2281,    1.2052,  999.0000,  999.0000,    2.3858,    3.0622,    4.1682,    4.9241,    5.2138,    5.4650,    5.6713,    5.7501,    5.6975,    5.7905,    6.0157,    4.7666,    5.2498,    6.6665,    6.7264,    6.2919,    6.4027,    6.5609,    6.9855,    7.7416,    7.8523,    7.6843,    6.6744,    5.3534,    5.1228,    5.2332,    5.5985,    6.0301,    5.2820,    4.2843,    4.1209,    4.2754,    3.9942,    3.7194,    1.0247,    0.9188,    0.8822,    0.8769,    1.9202,    2.9768,    3.1310,    3.3339,    4.5098,    5.6643,  999.0000,  999.0000,  999.0000,  999.0000,  999.0000,  999.0000,  999.0000,
  8-AUG-2000 17:27:33.00,  999.0000,  999.0000,  999.0000,  999.0000,  999.0000,  999.0000,  999.0000,  999.0000,  999.0000,  999.0000,  999.0000,  999.0000,  999.0000,  999.0000,  999.0000,  999.0000,  999.0000,  999.0000,  999.0000,  999.0000,  999.0000,  999.0000,  999.0000,  999.0000,    3.9344,    4.3596,  999.0000,  999.0000,  999.0000,  999.0000,    6.4857,    6.2249,    6.1417,    5.9690,    6.2933,    6.8323,    6.5386,    5.9370,    5.5506,    5.2314,    5.4745,    5.8639,    5.5226,    5.0268,  999.0000,  999.0000,   -1.3870,   -1.6151,   -1.7643,  999.0000,  999.0000,    2.1035,    3.7825,    5.4682,    5.4732,    5.5256,    6.7908,    7.7262,    9.2599,   10.5165,  999.0000,  999.0000,  999.0000,    8.3884,    9.5829,
  8-AUG-2000 17:34:18.00,  999.0000,  999.0000,  999.0000,  999.0000,  999.0000,  999.0000,   -0.2363,   -1.1980,  999.0000,  999.0000,  999.0000,  999.0000,  999.0000,  999.0000,  999.0000,  999.0000,  999.0000,  999.0000,  999.0000,  999.0000,  999.0000,  999.0000,   -2.6491,   -2.5290,  999.0000,  999.0000,  999.0000,   -2.7321,   -1.8964,   -0.3831,    1.0061,    2.3664,    2.9110,    2.7727,    3.5486,    4.7195,    5.7159,    6.7208,    6.5139,    5.8191,    5.3301,    4.8689,    4.2947,    3.6965,    4.7817,    6.1474,  999.0000,  999.0000,  999.0000,  999.0000,  999.0000,    0.2972,    2.2334,    4.1715,    3.3719,    2.6785,  999.0000,  999.0000,  999.0000,    8.1189,    6.8868,    5.9687,    6.9324,    7.9683,    9.3454,
  8-AUG-2000 17:41:04.00,  999.0000,  999.0000,  999.0000,  999.0000,  999.0000,  999.0000,  999.0000,  999.0000,  999.0000,  999.0000,   10.1517,   10.4017,  999.0000,  999.0000,  999.0000,  999.0000,  999.0000,  999.0000,  999.0000,  999.0000,  999.0000,  999.0000,  999.0000,  999.0000,  999.0000,  999.0000,   -5.4693,   -4.1169,   -2.6527,  999.0000,  999.0000,    1.7304,    2.6204,    3.2463,    3.9537,    4.6779,    4.6180,  999.0000,  999.0000,    3.8364,    3.8677,    3.9136,    3.4437,    2.8647,    4.1715,    5.7925,    6.0654,    5.8888,    4.7607,    3.5277,    3.5708,    3.6776,    4.0506,    4.4280,    4.8118,    5.1934,    5.3619,    5.7107,    6.1756,    6.5806,    6.5082,    6.8751,    8.0152,    9.2101,   10.6640,
  8-AUG-2000 17:47:48.00,  999.0000,  999.0000,  999.0000,  999.0000,   -0.5355,   -1.1980,  999.0000,  999.0000,   -1.3450,   -1.4514,  999.0000,  999.0000,   -2.1690,   -2.0747,  999.0000,  999.0000,   -0.0537,    0.4687,  999.0000,  999.0000,  999.0000,  999.0000,  999.0000,  999.0000,  999.0000,  999.0000,  999.0000,  999.0000,  999.0000,    8.6403,    8.1305,  999.0000,    5.2799,    4.9675,  999.0000,    4.2361,    3.6978,    3.2740,    3.3060,    3.4804,  999.0000,  999.0000,  999.0000,  999.0000,  999.0000,  999.0000,  999.0000,    2.6132,    2.7852,    2.9744,    2.7731,    2.5490,    3.5554,    4.5796,    5.4856,    6.3697,  999.0000,  999.0000,  999.0000,  999.0000,  999.0000,    9.3232,   10.0918,   10.9120,   11.9760,
  8-AUG-2000 17:55:49.00,    0.8442,    0.3611,  999.0000,  999.0000,   -0.6571,   -0.8250,  999.0000,  999.0000,    0.3160,    0.7169,  999.0000,  999.0000,    2.0621,    2.3758,  999.0000,  999.0000,  999.0000,  999.0000,  999.0000,  999.0000,  999.0000,  999.0000,  999.0000,  999.0000,    2.4313,    2.7445,    3.0817,    3.7495,    3.9660,    4.1011,    4.0924,    3.8908,    4.0889,    4.4870,    4.3587,  999.0000,  999.0000,  999.0000,    5.1413,    5.3480,  999.0000,  999.0000,  999.0000,  999.0000,  999.0000,  999.0000,  999.0000,    0.3348,    1.3945,    2.5167,  999.0000,  999.0000,  999.0000,  999.0000,  999.0000,  999.0000,  999.0000,  999.0000,  999.0000,  999.0000,  999.0000,  999.0000,  999.0000,  999.0000,  999.0000,
  8-AUG-2000 18:02:35.00,    2.8224,    2.5511,    2.8642,    3.1525,    3.3456,    3.3697,    2.8533,    2.4581,    2.3908,    2.3165,  999.0000,  999.0000,    2.0443,    2.1417,    2.5660,    3.0175,    3.5105,    3.9025,    4.1600,    4.2749,  999.0000,  999.0000,  999.0000,  999.0000,    3.6109,    3.8312,    4.1227,    4.4676,    4.6188,    4.6423,    4.8173,    5.0795,    5.4195,    5.7985,    5.8261,    5.7018,    5.2509,    4.6792,    4.3060,    3.9948,    4.0998,    4.3130,    3.9297,    3.4203,    3.4359,    3.5391,    3.4666,    3.3721,    3.1032,    2.8192,    2.6618,    2.9233,    3.2914,    3.6687,    4.5077,    5.3042,  999.0000,  999.0000,  999.0000,  999.0000,  999.0000,  999.0000,  999.0000,  999.0000,  999.0000,
  8-AUG-2000 18:09:19.00,  999.0000,  999.0000,  999.0000,  999.0000,  999.0000,  999.0000,    2.0967,    2.0572,    2.1582,    2.2093,  999.0000,  999.0000,  999.0000,  999.0000,  999.0000,  999.0000,    1.7613,    1.8105,  999.0000,  999.0000,  999.0000,  999.0000,  999.0000,  999.0000,    3.1138,    3.4575,    4.0171,    4.8860,    5.2411,    5.2579,    5.2857,    5.0588,    5.1569,    5.2861,    5.1823,    4.9780,    4.4828,    3.9066,    3.9938,    4.1717,    4.2423,    4.2670,    4.6416,    5.0902,    5.8924,    6.7534,    6.8593,    6.8708,    6.6033,    6.3117,  999.0000,  999.0000,  999.0000,  999.0000,  999.0000,  999.0000,  999.0000,    7.1895,    8.8673,   10.0714,    9.4289,    8.9694,    9.6062,   10.2420,   10.8728,
  8-AUG-2000 18:16:02.00,    3.2288,    3.1878,  999.0000,  999.0000,    1.3643,    0.9671,    1.2436,    1.4569,    1.4993,    1.6517,    2.0584,    2.1226,    1.5023,    1.0428,    0.8629,    0.8514,    1.0957,    1.4609,  999.0000,  999.0000,  999.0000,  999.0000,  999.0000,  999.0000,    5.1449,    5.6679,    6.2268,    6.8232,    7.2040,    7.3823,    7.3956,    7.9788,  999.0000,  999.0000,    7.1164,    6.8289,  999.0000,  999.0000,  999.0000,  999.0000,  999.0000,  999.0000,  999.0000,  999.0000,  999.0000,  999.0000,  999.0000,  999.0000,  999.0000,  999.0000,  999.0000,  999.0000,  999.0000,  999.0000,  999.0000,  999.0000,  999.0000,  999.0000,  999.0000,  999.0000,  999.0000,  999.0000,  999.0000,  999.0000,  999.0000,
  8-AUG-2000 18:22:46.00,    2.4368,    1.8904,    2.0806,    2.3638,    3.0046,    3.3683,    2.8460,    2.3818,    2.0746,    1.8802,  999.0000,  999.0000,    2.0799,    2.0564,    1.8764,    1.9701,    2.4792,    3.1896,    4.1683,    4.7640,  999.0000,  999.0000,    5.2051,    5.3521,  999.0000,    5.8749,    5.9392,  999.0000,  999.0000,    6.0425,    5.9178,    5.7133,    5.4326,    5.1138,    4.7213,    4.2971,    3.8563,  999.0000,  999.0000,    2.5157,    2.9759,    3.6720,    3.8460,    3.9097,    4.1369,    4.3914,    4.9863,    5.6238,    5.3196,    4.9342,    4.8313,    4.7426,    5.2784,    5.8114,    5.5585,    5.3153,  999.0000,  999.0000,  999.0000,    5.1611,    5.2055,    5.2919,    5.4076,    5.6247,    6.3214,
  8-AUG-2000 18:29:29.00,    1.9132,    1.7216,    1.3573,    1.0393,    0.8988,    0.8138,    0.9059,    1.0664,  999.0000,  999.0000,    2.1022,    2.4274,    2.7127,    2.6410,    1.9491,    1.7723,    2.3779,    2.8628,  999.0000,  999.0000,  999.0000,  999.0000,  999.0000,  999.0000,    5.1311,    5.3051,    5.3592,    5.7734,    5.7822,    5.6295,    5.5563,    5.5163,    5.2314,    4.8287,    4.5753,    4.3863,    4.0986,    2.7866,  999.0000,    3.3817,    3.6999,    4.1474,    4.0115,    3.7522,    3.9176,    4.1539,    4.9553,    5.8274,    5.6316,    5.3439,    4.3909,    3.4047,    3.6627,    3.9464,    4.5813,    5.1913,  999.0000,  999.0000,  999.0000,  999.0000,  999.0000,    5.9784,    6.1860,    6.5479,    7.6386,
  8-AUG-2000 18:36:13.00,    2.0021,    2.2709,    1.6389,    1.1322,    1.1074,    1.1393,  999.0000,  999.0000,    1.7800,    2.0369,    2.3938,    2.5147,    2.1636,    1.9626,    2.0226,    2.1552,    2.3980,    2.7025,  999.0000,  999.0000,  999.0000,  999.0000,  999.0000,  999.0000,    4.3001,    4.6744,    5.1037,    5.5745,    5.9195,  999.0000,  999.0000,    6.5193,    6.3363,    5.9876,    5.5017,    4.9566,    4.3438,    3.7059,    3.9773,    4.5329,    5.0705,    5.6034,    5.4894,    5.2386,    5.2498,    5.3047,    5.1067,    4.8772,    5.1261,    5.4161,    5.0305,    4.6111,    4.4353,    4.1957,    5.6497,    7.0246,    6.8199,    6.6338,    6.6625,    6.6585,    6.3926,    6.2554,    6.8893,    7.5708,    8.2860,
  8-AUG-2000 18:42:59.00,    1.8325,    1.4337,    1.3006,    1.2976,    1.7950,    2.0506,    1.5327,    1.1811,  999.0000,  999.0000,    1.4751,    1.4790,    1.2947,    1.1317,    1.0059,    0.9382,    0.9587,    1.4853,    2.6864,    3.4399,  999.0000,  999.0000,  999.0000,  999.0000,    3.5106,    4.1855,    4.5968,    4.8103,    5.4784,    6.4457,    6.9535,    7.1970,    7.3189,    7.3800,    7.0584,    6.5715,    5.5557,    4.3444,    3.9816,    3.8842,    4.0128,    4.2003,    4.0223,    3.7670,    3.8702,    4.0331,    3.5591,    3.0054,    3.3039,    3.6758,    3.3180,    3.2509,  999.0000,  999.0000,  999.0000,  999.0000,  999.0000,  999.0000,  999.0000,  999.0000,  999.0000,  999.0000,  999.0000,    7.8971,    8.5754,
  8-AUG-2000 18:49:42.00,    2.4666,    1.8074,    1.8351,    1.9454,    2.3726,    2.5109,    1.7253,    1.1593,    1.1871,    1.3005,    1.6121,    1.9700,    2.4206,    2.7392,    2.8285,    3.0060,    3.3176,    3.8886,  999.0000,  999.0000,    6.6381,    7.2669,    7.5990,    7.5819,    4.5235,    5.8027,    6.3394,    6.4379,    6.4291,    6.3497,    6.7541,    7.4370,    7.7281,    7.8233,    7.5886,    7.1341,    6.5805,    6.0789,    5.9412,    5.8194,    5.6900,    5.6807,    4.9543,    4.1057,    3.6570,    3.2749,    3.5633,    3.9355,    5.1255,    6.3861,  999.0000,  999.0000,  999.0000,    5.2958,    5.3237,    5.3988,    6.4186,    7.3701,    7.5317,    7.6075,    6.9983,    6.5493,    7.0602,    7.5642,    8.0353,
  8-AUG-2000 18:56:26.00,  999.0000,    1.7911,    1.7091,    1.6798,    1.8524,    2.0240,  999.0000,  999.0000,  999.0000,  999.0000,    2.8652,    3.0470,    3.2562,    3.4649,  999.0000,  999.0000,    4.0881,    4.2711,  999.0000,  999.0000,    4.7209,    4.9692,    5.3188,    5.4346,    5.3381,    5.3694,    5.2587,    5.1524,    5.0641,    4.9877,    5.4103,    6.2525,    6.7087,    7.1006,    7.0512,  999.0000,  999.0000,    6.4622,    6.4265,    6.3085,  999.0000,    6.2171,    5.4368,    4.4928,    4.0200,    3.6257,    3.7042,    3.8418,    4.4974,    5.1977,    5.1521,    5.0692,    4.2474,    3.5004,    3.5220,    3.7021,    4.6623,    5.5799,    6.0039,    6.3341,    5.9143,    5.6083,    5.9838,    6.4091,    7.0689,
  8-AUG-2000 19:03:09.00,    3.0231,    2.6993,  999.0000,  999.0000,    2.4250,    2.2076,    1.5873,    1.2713,  999.0000,  999.0000,    2.7920,    3.1338,    3.1455,    3.3453,    3.8719,    3.9694,    3.4149,    3.1942,    3.4180,    3.7052,    4.0665,    4.2903,  999.0000,  999.0000,    4.1903,    4.2383,    4.4374,    4.9156,    5.0957,    5.2524,    5.3383,  999.0000,  999.0000,  999.0000,  999.0000,    5.1679,    5.1139,  999.0000,  999.0000,    5.0938,    4.9826,    4.8489,    4.3212,    3.7102,    4.0958,    4.6475,    4.5168,    4.3008,    4.9130,    5.5965,    5.5627,    5.4932,  999.0000,  999.0000,  999.0000,    4.7800,    5.3946,    5.9240,    5.4669,    5.1098,    5.5511,    5.9662,    6.2247,    6.4755,    6.6908,
  8-AUG-2000 19:09:52.00,    3.8566,    3.5777,    2.9765,    2.4443,    2.1781,    1.8770,    1.4644,    1.2877,    1.7485,    2.1781,  999.0000,  999.0000,  999.0000,  999.0000,  999.0000,  999.0000,  999.0000,  999.0000,  999.0000,  999.0000,    6.1072,    6.4780,    6.8627,    6.8603,  999.0000,  999.0000,    5.7982,    5.9943,    6.3137,    6.7282,    7.1254,    8.5408,    8.6344,    8.1982,    7.9749,    6.8852,  999.0000,    6.5838,    6.5895,    6.5908,    6.2149,    5.7068,    4.8699,    3.9633,    3.9876,    4.1670,    3.9597,    3.7041,    3.5099,    3.3210,    4.2191,    5.1716,    5.3101,    5.4251,    4.8996,    4.4099,    4.6332,    4.7386,    3.4787,    2.5604,    4.3715,    5.9274,    5.9543,    6.0374,    6.3857,
  8-AUG-2000 19:16:34.00,  999.0000,    1.8815,    0.9159,    0.2414,  999.0000,  999.0000,    1.5734,    1.9502,  999.0000,  999.0000,    2.5361,    2.5380,    2.1533,    1.9486,    2.0568,    2.2284,    2.4961,    2.6553,  999.0000,  999.0000,    2.6992,    2.6811,  999.0000,  999.0000,    2.5253,    3.1718,    3.5434,    3.9115,    4.2419,    4.5979,    5.1565,    5.8317,    6.1609,    6.5511,    6.6791,    6.7710,    6.5074,  999.0000,    4.1772,    5.0623,    5.0516,    5.1351,    5.0373,    4.9013,    5.0938,    5.3411,    5.1920,    4.9934,    5.2588,    5.5642,    6.1899,    6.8315,    6.3031,    5.7621,    5.6039,    5.4848,    6.1451,    6.7789,    7.1054,    7.3908,    7.3472,    7.3586,    7.6993,    7.9238,    7.5999,
  8-AUG-2000 19:23:16.00,    1.1911,    0.3312,    0.3649,    0.5169,    1.1240,    1.4322,    0.7841,    0.3943,    0.7030,    0.9799,    1.1832,    1.1178,    0.5150,    0.3489,    0.9413,    1.5342,  999.0000,  999.0000,  999.0000,  999.0000,    4.5015,    4.8082,  999.0000,  999.0000,    4.8411,    4.8623,    4.8915,    4.4801,    4.2788,    4.0737,    4.5370,    5.3025,    5.4396,    5.6691,  999.0000,  999.0000,    4.6553,    4.4087,  999.0000,    4.2262,    3.7390,    3.1846,    3.1193,    3.1575,    3.4124,    3.7033,    3.9621,    4.2168,    4.7136,    5.2313,    5.7674,    6.3044,    6.3138,    6.3169,    6.2442,    6.4396,    6.4811,    6.7425,    7.7384,    8.6600,    8.9883,    9.2247,    8.8142,    8.4385,    7.9979,
  8-AUG-2000 19:29:58.00,    1.8357,    1.0352,    0.4340,    0.0556,    0.5339,    0.8085,    0.4310,    0.2902,    0.7890,    1.3011,    1.8439,    2.1641,    2.0398,    2.1671,    2.7318,    3.2547,    3.7140,    4.0812,    4.3255,    4.5112,    4.6282,    4.9419,    5.4583,    5.7723,    5.9025,    6.1937,  999.0000,  999.0000,    7.4533,    7.5854,  999.0000,  999.0000,  999.0000,  999.0000,  999.0000,    8.2413,    7.9764,  999.0000,    7.1825,    7.0260,    6.6378,    6.1596,    5.8547,    5.5869,    5.3009,    5.0118,    5.0704,    5.1725,    6.0168,    6.9251,    8.0548,    9.1955,    8.7004,    8.1885,  999.0000,  999.0000,  999.0000,    8.4256,    8.8963,    9.3432,    9.6002,    9.8797,  999.0000,  999.0000,  999.0000,
  8-AUG-2000 19:36:41.00,    2.8701,    2.9527,    1.7736,    0.7029,    0.0490,   -0.4628,   -0.5198,   -0.3443,    0.4603,    1.2160,  999.0000,  999.0000,    3.1426,    3.5326,    3.4844,    3.5157,    3.6678,    3.9059,    4.2585,    4.5140,    4.6559,    4.7971,    4.9375,    4.9622,    4.8817,    4.5230,    5.0869,    5.6508,    6.0490,    6.3381,    6.7427,    8.6067,  999.0000,    8.0933,    8.3060,    8.4232,    8.0151,    7.4128,    6.7870,    6.3646,  999.0000,    4.8862,    4.3536,    3.8424,    4.1444,    4.5819,    4.4116,    4.1653,    4.8010,    5.5127,    6.3194,    7.1309,    7.5229,    7.9082,  999.0000,  999.0000,  999.0000,  999.0000,  999.0000,  999.0000,  999.0000,    9.9365,    9.8843,    9.9580,  999.0000,
  8-AUG-2000 19:43:24.00,    0.9039,    0.4690,    0.1706,   -0.0705,   -0.0909,   -0.0971,   -0.0576,    0.1671,    0.8927,    1.4515,  999.0000,  999.0000,    1.9693,    2.1698,    2.4184,    2.7426,  999.0000,  999.0000,    4.0593,    4.2347,  999.0000,  999.0000,    3.8354,    4.0281,    4.5167,    3.9162,    4.8663,    5.7904,    6.0404,    5.6525,    5.8170,    6.1341,    6.2156,    6.1794,    5.9231,    5.5717,    5.2155,    4.8576,    4.7284,    4.6708,    4.5516,    4.4164,    4.4546,    4.5295,    5.1067,    5.7675,    6.1108,    6.4143,    6.6256,    6.8288,    7.3052,    7.7953,    6.7518,    5.7228,    7.1094,    8.4295,    8.4223,    8.4353,    8.6823,    8.9254,    9.1382,    9.4011,    9.9646,   10.4351,   10.4672,
  8-AUG-2000 19:50:11.00,  999.0000,  999.0000,  999.0000,  999.0000,  999.0000,  999.0000,    2.3424,    2.3015,    2.6248,    2.7579,  999.0000,  999.0000,    1.8363,    1.7508,  999.0000,  999.0000,    2.6505,    2.7911,    2.7194,    2.9138,    3.4200,    3.5362,  999.0000,  999.0000,    2.6782,    2.6276,    2.7651,    2.8674,    2.9449,    3.6229,    4.1444,    4.7549,    4.8201,    4.7773,    4.9515,    5.2255,    5.1793,    5.0148,    5.0956,    5.2530,    4.9964,    4.6322,    4.9493,    5.4105,    5.8846,    6.3608,    6.6728,    6.9643,    6.4736,    5.9156,    6.2144,    6.5561,    6.4928,    6.4266,    6.5737,    6.7023,    6.4607,    6.2751,    6.7390,    7.1650,    7.2878,    7.4620,    7.9448,    8.3496,    8.3866,
  8-AUG-2000 19:56:56.00,  999.0000,  999.0000,  999.0000,  999.0000,    0.9344,    0.7263,    1.0072,    1.1743,    1.0339,    1.0987,    1.6385,    2.1329,    2.5367,    2.8951,    3.1745,    3.4182,  999.0000,  999.0000,    3.9865,    4.2807,    4.6977,    4.8820,    4.8264,    4.7992,    4.7977,    4.7247,    4.5945,    4.4997,    4.5995,    4.7067,    5.0701,  999.0000,  999.0000,    6.3849,    6.5381,    6.5931,    6.3791,    6.0656,    5.9397,    5.8724,    5.7907,    5.7054,    6.1359,    6.6756,    7.3773,    8.1059,    8.6328,    9.1345,    8.0009,    6.7264,    7.0074,    7.3661,    7.2405,    7.1052,    6.8503,    6.5835,    6.0799,    5.6553,    6.1450,    6.5994,    6.7718,    6.9208,    6.9285,    7.1199,    8.1791,
  8-AUG-2000 20:03:38.00,  999.0000,  999.0000,  999.0000,  999.0000,  999.0000,  999.0000,  999.0000,  999.0000,    1.1272,    1.3403,    2.0703,    2.4340,    2.0653,    1.9275,    2.1908,    2.3507,    2.3537,    2.3710,  999.0000,  999.0000,    2.4807,    2.6604,  999.0000,  999.0000,  999.0000,    3.2140,    3.8820,    4.5336,    5.2418,    6.0030,    6.5201,    7.0176,    6.7108,    6.0415,    5.9023,    5.9920,    5.8384,    5.5950,    5.6085,    5.7024,    5.6157,    5.4820,    5.9548,    6.5494,    6.9980,    7.4457,    7.7000,    7.9302,    6.7060,    5.3566,    5.1970,    5.0968,    5.0309,    4.9632,    4.7470,    4.5325,    4.3500,    4.2416,    4.9924,    5.6588,    5.6509,    5.6879,    5.9942,    6.4454,    7.5808,
  8-AUG-2000 20:10:21.00,  999.0000,  999.0000,  999.0000,  999.0000,  999.0000,  999.0000,  999.0000,  999.0000,  999.0000,  999.0000,  999.0000,  999.0000,    2.8304,    2.9902,    2.9624,    3.0356,    3.2624,    3.4910,    3.7222,    3.9156,    4.0648,    4.4510,    5.0815,    5.5648,    5.9144,    5.8648,    5.4962,    5.0430,    4.9251,    4.8084,    4.8928,  999.0000,  999.0000,  999.0000,  999.0000,  999.0000,  999.0000,  999.0000,  999.0000,  999.0000,  999.0000,  999.0000,  999.0000,    6.7459,    7.0813,    7.4509,    7.7605,    7.9131,    6.6530,    5.2712,    4.8587,    4.4946,    4.6672,    4.8454,    4.9201,    4.8703,    4.7090,    4.5478,    4.3873,    4.2776,    4.5734,    4.9905,    6.1346,    7.1825,    7.7764,
  8-AUG-2000 20:17:03.00,    4.0914,    4.0458,  999.0000,  999.0000,    0.8354,    0.1141,  999.0000,  999.0000,  999.0000,  999.0000,    2.0866,    2.4208,    2.6344,    2.8118,  999.0000,  999.0000,  999.0000,  999.0000,    3.3848,    3.7774,    4.4957,    5.2227,    5.9585,    6.2075,    5.5716,    5.8603,    5.7120,    5.2357,    4.7847,    4.3505,    4.5478,    5.1083,    4.6368,    3.6490,    3.5969,    3.9489,    3.9798,    3.8919,    3.8852,    3.9039,    3.7616,    3.5774,    3.5085,    3.9006,    4.4229,    5.4115,    6.4678,    6.5957,    6.6264,    5.4317,    4.1546,  999.0000,  999.0000,  999.0000,  999.0000,    4.7716,    4.6223,    4.4793,    4.4102,    4.3998,    4.8591,    5.3078,    5.6930,    6.1443,    6.9076,
  8-AUG-2000 20:23:45.00,  999.0000,    2.6441,    2.5168,    2.2065,    1.1927,    0.4629,    0.6414,    0.8890,    1.3235,    1.5373,    1.2403,    1.1536,    1.4871,    1.6935,    1.6789,    1.7531,  999.0000,  999.0000,    2.3807,    2.6795,  999.0000,  999.0000,    3.8908,    4.0707,    4.2355,    4.1482,    4.1780,    4.2955,    4.5090,    4.7856,    5.2095,    5.7181,    5.7432,    5.5265,    5.6001,    5.7990,    5.6876,    5.5265,    5.3954,    5.2376,    5.0838,    4.9152,    4.7665,    4.6220,    5.1689,    5.8310,    8.1821,    8.3325,    8.4115,  999.0000,  999.0000,  999.0000,  999.0000,    6.1719,    6.0248,    5.8861,    5.9134,    5.9316,    5.8451,    5.7758,    5.8449,    5.9255,    6.0745,    6.3122,    6.9686,
  8-AUG-2000 20:30:27.00,    0.7586,    0.0716,   -0.2605,   -0.5023,   -0.3970,   -0.1819,  999.0000,  999.0000,    1.5166,    2.1278,  999.0000,  999.0000,    4.2739,    4.8802,    5.2972,    5.4202,    5.0969,    5.0615,    5.4097,    5.9661,    6.7663,    7.0069,  999.0000,  999.0000,    6.2027,    6.0791,    6.0593,    6.0891,    6.1197,    6.1508,    6.3441,    6.6309,    6.9156,    7.0437,    7.0325,    7.1948,    6.8666,    5.7873,  999.0000,    5.5929,    5.3222,    5.0904,    4.9467,    4.8216,    5.6003,    6.5296,    8.1816,    8.7487,    9.3002,    8.2713,    7.1360,  999.0000,  999.0000,    6.3956,    5.5233,    4.6900,    4.6343,    4.5851,    4.6111,    4.7624,    5.9151,    6.8741,    6.6718,    6.6369,    7.3929,
  8-AUG-2000 20:37:10.00,  999.0000,  999.0000,  999.0000,  999.0000,    0.4160,    0.3638,  999.0000,  999.0000,  999.0000,  999.0000,  999.0000,  999.0000,    2.4247,    2.6485,    2.7494,    2.8518,  999.0000,  999.0000,    3.1656,    3.5077,    4.1280,    4.5416,  999.0000,  999.0000,    5.1428,    5.1572,    5.6630,    6.1814,    6.5950,    6.9397,    7.3111,    7.6977,    8.0684,  999.0000,    8.5330,    9.1008,    8.6379,    7.8818,    7.1453,    6.4148,    6.0312,    5.7377,    5.9520,    6.2738,    7.1875,    8.1998,    8.8480,    9.4506,    9.5427,    9.5908,    9.3359,    9.0659,    8.2372,    7.4096,    7.2089,    6.9929,    6.4701,    5.9857,    5.9465,    5.9799,    6.5926,    7.1134,    7.0831,    7.2066,    8.0564,
  8-AUG-2000 20:43:52.00,    2.0646,    1.6252,    1.3355,    1.1018,    1.0827,    1.0348,    0.8944,    0.8384,    1.0111,    1.2894,  999.0000,  999.0000,    2.8584,    3.1893,    3.1864,    3.4355,    4.0675,    4.6393,    5.1308,    5.5078,    5.7507,    5.5527,    4.9003,    4.5997,    3.8155,    4.1208,    4.5889,    5.1791,    5.7320,    6.2603,    6.7277,    7.3254,    7.4902,    7.4411,    7.3220,    7.1159,    6.6999,    6.2063,    5.4421,    4.5932,    4.5510,    4.7516,    5.1608,    5.6513,    6.7417,    7.9404,    8.6956,    9.4704,    9.5264,    9.4583,    8.9361,    8.3873,    7.1998,    6.0175,    5.7843,    5.5503,    5.2999,    5.0790,    5.1982,    5.2799,    5.0625,    4.9711,    5.6350,    6.2853,    6.8717,
  8-AUG-2000 20:50:55.00,    1.1237,    0.7994,    1.1066,    1.3320,    1.2428,    1.2166,    1.3922,    1.6329,    2.0498,    2.4502,  999.0000,  999.0000,    3.5364,    3.7641,    3.7582,    3.6885,    3.5217,    3.5268,    3.7609,    4.1459,    4.7076,    4.6666,    4.0039,    3.8115,    3.7369,    3.7564,    4.1237,    4.7520,    4.9976,    4.9911,    5.3009,  999.0000,    5.7817,    6.7733,    6.9617,    7.0199,    6.8398,    6.5718,    5.9225,    5.1540,    5.4146,  999.0000,  999.0000,    6.1330,    7.0738,    8.1187,  999.0000,  999.0000,  999.0000,    8.4886,    8.4388,    8.3859,    7.4669,    6.5341,    5.6026,    4.7218,    4.8529,    4.9803,    5.0655,    5.1923,    5.6519,    6.0204,    5.8433,    5.8328,    6.6091,
  8-AUG-2000 20:57:47.00,  999.0000,  999.0000,  999.0000,  999.0000,    1.9362,    2.0398,  999.0000,  999.0000,  999.0000,  999.0000,    3.7563,    3.9263,  999.0000,  999.0000,    3.3974,    3.5804,    4.3089,    4.9684,    5.5361,    5.9386,    6.1478,    5.7614,    4.7608,    4.3888,    4.2661,    4.4351,    4.8640,    5.2767,    5.7501,    6.1195,    6.4528,    6.7655,    7.0138,    7.2908,    7.2598,    7.0137,    6.8319,    6.6441,    6.0872,    5.4150,    5.3840,    5.5198,    5.8735,    6.2733,    6.9269,    7.6228,    8.0741,    8.7208,    8.6277,    8.6973,    8.6462,    8.5985,    7.5609,    6.5113,    5.7030,    4.9263,    4.7817,    4.6446,    4.5934,    4.5935,    5.0030,    5.3238,    5.1133,    4.9983,    5.3337,
  8-AUG-2000 21:04:29.00,  999.0000,  999.0000,  999.0000,  999.0000,    0.1154,    0.0148,    0.2825,    0.5333,    0.7381,    0.9984,  999.0000,  999.0000,  999.0000,  999.0000,    2.9416,    3.2799,    3.5418,    3.8212,    4.1240,    4.3595,    4.5160,    4.1900,    3.3664,    2.7268,    2.2542,    2.6197,  999.0000,    4.4077,    5.0238,    5.6400,    6.0752,    6.4062,    6.3459,    5.2356,    4.9459,    5.5559,    5.4997,    5.5221,    5.8203,    6.2049,    6.4954,    6.7616,    7.2085,    7.6936,    8.3834,    9.0033,  999.0000,  999.0000,  999.0000,   10.0088,    9.7310,    9.4277,    8.4259,    7.4134,    6.4389,    5.5143,    5.5851,    5.6451,    5.5793,    5.5054,    5.3669,    5.2042,    4.8959,    4.7576,    5.4219,
  8-AUG-2000 21:11:14.00,    0.2745,   -0.2290,   -0.0564,    0.1024,    0.2077,    0.3528,    0.6249,    0.9617,    1.4738,    2.1248,    3.0977,    3.8476,    4.1518,    4.2248,    3.8956,    3.7645,    3.9342,    3.9408,    3.7302,    3.7728,    4.1122,    4.1426,    3.8544,    3.7687,    3.8667,    4.4591,    5.4465,    6.4872,    6.5570,    6.5774,    6.5170,    6.4102,    6.3171,    6.2307,    6.0342,    5.7902,    5.7166,    5.7059,    6.0920,    6.6020,    6.6062,    6.4789,    6.4708,    6.4880,    6.9513,    7.5425,    8.1803,    8.1460,    8.2220,    8.1983,    7.9311,    7.6466,    6.6747,    5.6992,    5.1842,    4.6892,    4.5941,    4.5298,    4.8226,    5.0448,    4.7033,    4.4400,    4.6450,    4.9808,    5.9344,
  8-AUG-2000 21:17:57.00,    1.6219,    1.2386,    1.0762,    0.9703,    1.0815,    1.3331,    2.0338,    2.4380,    2.0400,    1.9409,  999.0000,  999.0000,    3.7184,    4.1517,    4.3082,    4.4217,    4.4700,    4.5923,    4.8132,    5.1136,    5.5071,    5.4650,    4.9734,    4.9273,    5.2699,    5.5930,    6.0930,    6.5335,    6.5470,    6.2040,    6.8423,    8.0451,    8.5726,    8.9808,    8.8588,    8.3436,    7.9964,    7.6246,    7.4271,    7.2841,    7.5007,    7.5103,    7.1246,    6.4890,    6.4208,    6.4146,    6.5762,    6.7786,    6.9731,    7.6354,    7.3080,    6.9484,    6.1713,    5.3935,    4.9880,    4.5860,    4.2537,    3.9731,    4.3879,    4.5805,    3.8669,    3.4007,    4.1631,    4.9441,    5.8132,
  8-AUG-2000 21:24:39.00,  999.0000,  999.0000,  999.0000,  999.0000,  999.0000,  999.0000,    0.0054,    0.1123,    0.5175,    0.9223,    1.3261,    1.6327,  999.0000,  999.0000,    1.9707,    2.1530,    2.4412,    2.7765,    3.1744,    3.5258,    3.8228,    3.9966,    4.0434,    4.0189,    3.9297,    4.1177,    4.5273,    5.5099,    5.4630,    5.3808,    6.2965,    7.7864,    8.0975,    8.5782,  999.0000,    7.0052,    6.9205,    6.9964,    6.7402,    6.4160,    6.7102,    6.5302,    6.2669,    6.0456,    5.9394,    6.0512,    7.9800,    8.0478,    8.0127,    7.7809,    7.3990,    6.9766,    5.8515,    4.7277,    4.3814,    4.0342,    3.6690,    3.3226,    3.8746,  999.0000,  999.0000,    3.6869,    4.1194,    4.6050,    5.3422,
  8-AUG-2000 21:31:23.00,    1.3234,    0.7141,    0.5166,    0.2992,    0.0052,   -0.0896,    0.4532,    0.8873,    1.0278,    1.2455,    1.6419,    2.0837,    2.6162,    3.0670,    3.3757,    3.7610,    4.2628,    4.7329,  999.0000,  999.0000,    6.0166,    6.0841,    5.7798,    5.9079,    5.0152,    5.7869,    6.4304,    6.9775,    7.0797,    6.8890,    7.7277,    9.1585,    9.6625,    9.7655,    9.4905,    8.7880,    8.7236,    8.2084,    8.2476,    8.4237,    8.2347,    7.9507,    7.7740,    7.6200,    8.4001,    9.1979,   10.0332,    9.3059,    8.4150,    8.0984,    7.8205,    7.2052,    6.5789,    5.6309,    4.6927,    4.0476,    3.4401,    4.2774,    3.9440,    3.6402,    3.5728,    3.6547,    4.6307,    5.5666,    6.3136,
  8-AUG-2000 21:38:06.00,  999.0000,  999.0000,  999.0000,  999.0000,  999.0000,  999.0000,    1.6135,    1.9968,    1.9807,    2.0790,    2.4418,    2.7348,    2.8884,    2.9645,    2.9060,    2.8800,    2.9034,    3.2618,    4.0664,    4.5995,    4.8146,    4.8859,  999.0000,  999.0000,    4.7074,    5.1620,    5.7939,    6.5588,    6.8416,    6.8071,    7.7597,    9.2801,    9.6350,  999.0000,  999.0000,    8.7922,    8.5601,    8.3611,    7.9855,    7.5548,    7.4159,    7.3529,    6.9239,    6.4173,    6.6922,    7.0972,    7.5434,    7.9948,    8.0053,    7.9778,    7.3984,    6.7915,    6.3405,    5.9019,    6.0695,    6.2113,    5.8369,    5.4620,    5.0808,    4.7102,    4.4232,    4.2812,    5.0080,    5.7218,    6.3741,
  8-AUG-2000 21:44:50.00,    0.2251,   -0.1316,    0.0381,    0.1344,   -0.0514,   -0.0703,    0.4447,    0.8613,    1.0120,    1.4134,    2.3950,    3.1095,  999.0000,  999.0000,    3.6515,    3.7477,    3.7155,    4.1519,    5.2125,    6.0629,    6.6671,    6.6534,    6.0024,    5.7224,    5.7270,    6.1423,    6.6133,    7.4414,    7.2435,    6.6741,    7.4154,    8.9107,    9.5776,    9.8302,    9.5055,    8.9314,    8.4953,    8.1102,    7.2902,    6.3342,    6.0475,    5.9349,    5.5810,    5.1761,    5.7500,    6.4871,    7.3341,    8.1947,    8.2892,    8.3177,    7.8585,    7.3749,    6.7969,    6.2329,    6.6219,    6.9736,    6.5801,    6.2045,    6.0351,    5.8777,    5.8158,    5.8560,    6.5087,    7.2265,    8.2514,
  8-AUG-2000 21:51:33.00,    0.3164,    0.4115,    0.4100,    0.3995,    0.3542,    0.4074,    0.7761,    1.1672,    1.6193,    2.0563,    2.4586,    2.6995,    2.6175,    2.5971,    2.6834,    3.0885,  999.0000,  999.0000,    5.7569,    6.4874,    7.0316,    7.0630,    6.5656,    6.6463,    7.2519,    7.9934,    8.8433,    9.8370,    9.0217,    8.1424,    8.1810,    8.6765,    8.9929,    9.2197,    8.5365,    7.4601,    7.0385,    6.8589,    6.5279,    6.1494,    6.3310,    6.6582,    6.3827,    5.9798,    6.1412,    6.2848,    6.9933,    7.8291,    7.5882,    7.2570,    6.8679,    6.4760,    5.9508,    5.4201,    4.6847,    3.9975,    4.2740,    4.4942,    4.0615,    3.6799,    3.7064,    3.8362,    4.5844,    5.3577,    6.2499,
  8-AUG-2000 21:58:15.00,    0.0380,   -0.0514,   -0.2796,   -0.4220,   -0.2348,   -0.0813,   -0.0360,    0.0789,    0.3817,    0.7803,    1.4006,    1.9540,    2.3739,    2.8114,    3.2795,    3.7296,    4.1524,    4.9999,    6.4131,    7.3641,    7.7737,    7.9280,  999.0000,  999.0000,    5.9611,    7.0229,    7.5714,    9.4024,    8.3900,    7.7764,    8.2166,    8.9034,    9.2531,    9.6784,    8.8252,    7.4039,    6.6586,    6.1069,    6.0790,    6.2148,    6.2904,    6.3504,    5.7650,    5.0431,    5.8213,    6.6736,    7.5659,    8.0651,    7.9070,    7.6671,    6.6934,    5.6830,    5.4972,    5.3292,    5.4499,    5.5489,    5.2180,    4.8749,    4.3922,    3.9427,    3.7589,    3.7137,    4.4986,    5.2874,    6.0947,
  8-AUG-2000 22:04:11.00,    0.4046,   -0.0131,   -0.0058,   -0.0196,   -0.1147,   -0.0537,    0.5066,    1.1550,    2.0415,    2.7396,    3.0014,    3.1638,    3.1272,    3.1948,    3.4435,    3.8932,    4.6480,    5.3546,    5.9968,    6.4150,  999.0000,  999.0000,    6.8824,    6.6752,    6.1383,    6.0507,  999.0000,    8.5136,    8.5689,    7.1385,  999.0000,    8.4670,    8.1414,    7.4614,    6.5982,    6.3659,    5.7362,    5.1266,    4.9390,    4.8832,    4.9321,    5.0081,    5.0753,    5.1407,    5.7807,    6.5164,    7.0589,    7.5773,    7.5508,    7.4774,    7.0681,    6.6419,    6.6972,    6.7619,    6.9248,    7.0687,    6.8308,    6.5677,    6.0126,    5.4726,    5.0537,    4.7706,    5.3009,    5.9146,    6.9218,
  8-AUG-2000 22:09:15.00,    0.1568,    0.3951,    0.5633,    0.6418,    0.3756,    0.2470,    0.5586,    0.9786,  999.0000,  999.0000,    3.1181,    3.6777,  999.0000,  999.0000,  999.0000,  999.0000,    4.9407,    5.3249,  999.0000,  999.0000,    7.0036,    6.9874,    6.3774,    6.1698,    6.5992,    6.7287,    7.4060,    8.6704,    8.9308,    7.3100,    7.7225,    8.3171,    8.2540,    8.2618,    7.4691,    6.3306,    5.4923,    4.7650,    4.4895,    4.3554,    4.4718,    4.6535,    4.6426,    4.5910,    5.2907,    6.1156,    6.9218,    7.7258,    7.6189,    7.4336,    6.8659,    6.2790,    6.0760,    5.8881,    6.2532,    6.5893,    6.3479,    6.0521,    5.1259,    4.3122,    4.3977,    4.5516,    5.1153,    5.8170,    7.1700,
  8-AUG-2000 22:14:19.00,    0.0205,   -0.2242,   -0.0077,    0.1572,    0.1235,    0.1836,    0.5435,    0.9622,    1.5401,    2.1722,    2.9300,    3.4761,    3.5990,    3.5616,    3.2456,    3.2934,  999.0000,  999.0000,    5.0950,    5.6993,    6.3079,    6.5754,  999.0000,  999.0000,    6.3231,    7.0183,    8.3364,    9.0843,    8.9123,    8.4005,    8.3376,    8.6534,    8.4140,    8.4355,    7.9104,    6.9998,    6.3049,    5.5611,    5.4786,    5.6028,    5.8763,    6.1886,    6.0948,    5.9151,    6.5831,    7.3923,    8.0317,    8.6499,    8.8686,    9.0528,    8.3859,    7.6765,    7.1222,    6.5806,    6.6751,    6.7490,    6.4141,    6.0391,    5.2005,    4.4460,    4.3629,    4.3673,    4.8957,    5.5687,    6.9241,
  8-AUG-2000 22:19:23.00,  999.0000,  999.0000,  999.0000,  999.0000,    0.9028,    1.1877,    1.3267,    1.5980,    2.2271,    2.8552,    3.4814,    3.7445,    3.2822,    2.9364,    2.7931,    2.9988,    3.7346,    4.3331,    4.7486,    5.0236,  999.0000,  999.0000,    5.3549,    5.4108,  999.0000,  999.0000,  999.0000,    7.6436,    7.1897,    6.7145,    6.7150,    6.9891,    6.7691,  999.0000,    5.4805,    5.0722,    4.5399,    4.0478,    3.9918,    4.0722,    4.4317,    4.8639,    5.0209,    5.1936,    5.8737,    6.6384,    7.6322,    8.6547,    8.8655,    8.8915,    8.5558,    8.1951,    7.3743,    6.5572,    6.4216,    6.2828,    6.0791,    5.8500,    5.3266,    4.8192,    4.4397,    4.1619,    4.4935,    4.9379,    5.9142,
  8-AUG-2000 22:24:27.00,  999.0000,  999.0000,  999.0000,  999.0000,  999.0000,  999.0000,    1.1179,    1.5937,    2.7509,    3.6390,  999.0000,  999.0000,    4.4356,    4.6004,  999.0000,  999.0000,    4.5697,    4.7827,    5.2933,    5.9487,    6.7738,    7.1711,    7.1272,    7.4920,    8.2278,    7.8246,    8.2518,    8.6791,    8.8999,    8.9849,    8.8405,    8.5641,    8.3760,    8.2323,    7.4510,    6.1644,    5.4202,    5.1262,    4.9375,    4.8673,    5.3168,    5.9015,    6.0222,    6.8335,    7.7990,    8.4528,    9.0613,  999.0000,  999.0000,    8.2908,    7.9457,    7.5738,    7.1926,    6.8116,    6.4459,    6.0955,    6.0489,    5.9688,    5.5019,    5.0790,    5.0083,    4.9633,    5.0723,    5.3363,    6.3317,
  8-AUG-2000 22:29:30.00,    2.1398,    2.0814,    1.8649,    1.6206,  999.0000,  999.0000,    0.5673,    0.5199,    1.2938,    1.9275,  999.0000,  999.0000,    2.8557,    3.0431,    3.0182,    3.1507,    3.5223,    4.0018,  999.0000,  999.0000,  999.0000,  999.0000,    7.1178,    7.7004,    8.2461,    7.8600,    8.3027,    8.7626,    8.9610,    8.9873,    9.0410,    9.1561,    9.0790,    8.9169,    8.7122,    8.8605,  999.0000,    8.0134,    7.2037,    6.2160,    6.2698,    6.5945,    6.6767,    6.7076,    7.2579,    7.8947,    8.5014,    9.1044,    9.0711,    8.9830,    8.6873,    8.3811,    8.0999,    7.8119,    7.0781,    6.3826,    6.4506,    6.4705,    5.9343,    5.3869,    4.7023,    4.1233,    4.1194,    4.3148,    5.4979,
  8-AUG-2000 22:34:35.00,  999.0000,  999.0000,  999.0000,  999.0000,  999.0000,  999.0000,  999.0000,  999.0000,  999.0000,  999.0000,    1.3917,    1.5356,    1.7887,    2.1043,    2.5285,    2.9365,    3.3198,    3.9634,    4.9538,    5.6498,  999.0000,  999.0000,  999.0000,  999.0000,  999.0000,  999.0000,    8.1075,    8.2480,    8.2407,    8.3403,    8.5056,    8.1632,    8.3262,    8.4161,    8.3450,    8.3808,    8.1401,    7.7681,    7.6282,    7.5166,    7.8136,    8.2169,    8.6901,    9.1782,    9.6072,   10.0264,   10.5245,   11.0325,   10.5328,    9.9462,    8.9463,    7.9256,    7.7284,    7.5400,    7.0773,    6.6299,    6.4853,    6.2967,    5.5990,    4.9482,    4.0855,    4.3985,    4.8333,    4.2328,    5.5126,
  8-AUG-2000 22:39:39.00,    0.0065,    0.3625,    1.3500,    2.2402,    2.7566,    3.4905,    4.9198,    5.7848,  999.0000,  999.0000,  999.0000,  999.0000,    2.4811,    2.1621,    2.4371,    2.5943,    2.5723,    2.9242,    3.7742,    4.4449,    4.9057,    5.1642,    5.2139,    5.4990,    6.2710,    6.2693,    6.5743,    7.1093,    7.1295,    6.8109,    6.9508,    7.3544,    7.8167,    8.1817,    8.3028,    9.1262,    8.9712,    8.1034,    8.5091,    9.0850,    9.1234,    9.0221,    8.8811,    8.7318,    8.9864,    9.3083,   10.1487,   11.0540,   10.3761,    9.5617,    8.7145,    7.8656,    7.2991,    6.7378,    6.2125,    5.7012,    5.4681,    5.2101,    4.6636,    4.1431,    3.8313,    3.5910,    3.7785,    4.1175,    5.1714,
  8-AUG-2000 22:44:43.00,  999.0000,  999.0000,  999.0000,  999.0000,  999.0000,  999.0000,    3.7583,    4.4208,  999.0000,  999.0000,  999.0000,  999.0000,    3.7991,    3.7122,    3.6902,    3.7542,    3.9488,    4.1189,    4.2564,    4.5085,    4.8947,    5.1268,    5.1999,    5.5295,    7.3020,    7.1094,    7.2410,    7.6159,    7.8204,    7.9127,    8.5816,    9.5823,    9.9297,   10.6224,    9.8135,    9.9912,    9.7048,    9.3050,    9.6339,   10.1906,   10.1468,    9.9468,    9.6044,    9.2319,    9.2328,    9.2958,    9.7148,   10.1782,    9.8097,    9.3695,    8.8785,    8.3848,    7.5158,    6.6408,    5.7694,    4.9143,    4.3839,    3.8338,    3.0560,    2.3366,    2.0841,    1.9980,    2.9091,    3.8169,    4.7094,
  8-AUG-2000 22:49:48.00,  999.0000,  999.0000,  999.0000,  999.0000,  999.0000,  999.0000,   -1.5069,   -1.1996,  999.0000,  999.0000,    1.3722,    2.1131,  999.0000,  999.0000,  999.0000,  999.0000,  999.0000,  999.0000,    5.6717,    6.1366,    6.5506,    6.5829,    6.2216,    6.2349,    6.6449,    7.0157,    7.4513,    8.0993,    8.2962,    8.2587,    8.7988,    9.6028,    9.9513,  999.0000,  999.0000,    9.9425,    9.9518,   10.0161,    9.8556,    9.6458,    9.4732,    9.3103,    9.1186,    8.9208,    8.8073,    8.7078,    8.9113,    9.1527,    8.6062,    7.9919,    7.6568,    7.3357,    6.6477,    5.9557,    5.3734,    4.7987,    4.3741,    3.9287,    3.2426,    2.6054,    2.3602,    2.2922,    3.2864,    4.3386,    5.6648,
  8-AUG-2000 22:54:53.00,  999.0000,  999.0000,  999.0000,  999.0000,    1.9153,    2.3567,  999.0000,  999.0000,    2.7363,    2.8869,    3.0932,    3.3092,    3.5447,    3.7333,  999.0000,  999.0000,    4.0536,    4.5355,    5.5172,    6.2044,    6.5467,    6.8588,  999.0000,  999.0000,    6.7287,    6.7838,    7.0969,  999.0000,  999.0000,    8.6804,    9.3578,   10.1356,   10.9447,   11.7695,   11.8121,  999.0000,   11.4952,   11.0647,   10.4814,    9.6908,    9.1180,    8.5828,    8.3862,    8.2612,    7.7025,    7.2053,    7.3804,    7.6624,    7.8611,    8.0525,    7.8581,    7.6443,    6.6898,    5.7292,    5.1223,    4.5383,    4.4090,    4.2316,    3.4971,    2.8322,    2.7234,    2.7523,    3.6060,    4.4794,    5.4460,
  8-AUG-2000 22:59:57.00,   -1.1555,   -0.6685,  999.0000,  999.0000,  999.0000,  999.0000,  999.0000,  999.0000,    2.5445,    3.1470,    4.0818,    4.9176,    5.5555,    5.9705,    5.9983,    5.9239,    5.6942,    5.7951,    6.3363,    6.7287,    6.9467,    7.2194,    7.5486,    7.7459,  999.0000,    7.6900,    8.2580,    8.7752,    9.1687,    9.4516,   10.0094,   10.7253,   11.5940,   12.5390,   12.4942,   12.0218,   11.8015,   11.6744,   11.4272,  999.0000,  999.0000,  999.0000,  999.0000,  999.0000,  999.0000,    9.2123,    9.3937,    9.4716,    9.3528,    9.2014,    9.0286,    8.8549,    7.3524,    5.8361,    4.7788,    3.7737,    3.8101,    3.7748,    2.9093,    2.1735,    2.4737,    2.8171,    3.4199,    4.0941,    5.2288,
  8-AUG-2000 23:05:02.00,  999.0000,  999.0000,  999.0000,  999.0000,   -0.4818,   -0.1533,    0.7142,    1.1450,    0.3945,    0.0536,    0.6607,    1.3991,  999.0000,  999.0000,    4.4010,    4.9660,    4.8695,    5.0435,  999.0000,  999.0000,  999.0000,  999.0000,    7.7158,    7.9203,    7.8252,    8.1708,    8.8687,    8.4759,    8.9972,    9.5186,   10.2038,   10.9815,   11.6669,   12.2701,   12.4980,   12.5638,   12.3144,   11.6653,   11.5030,   11.5904,   10.5781,    9.3426,    8.9632,    8.7650,    8.1700,    8.5441,    9.0298,    8.0557,    8.0795,    8.2364,    8.1038,    7.9639,    6.9034,    5.8834,    5.0390,    4.3855,    4.0744,    3.7239,    2.9159,    2.2429,    2.6482,    3.0956,    3.7960,    4.4740,  999.0000,
  8-AUG-2000 23:10:06.00,    0.6800,    0.6045,    0.5869,    0.6412,  999.0000,  999.0000,    1.6331,    1.9546,    2.2516,    2.5181,    2.7142,    2.9648,    3.3247,    3.7380,    4.2442,    4.7626,    5.2995,    5.8445,    6.4004,    7.2258,    8.3669,    9.1962,    9.7038,    9.5444,    8.7793,    8.9127,    9.7641,   10.4290,  999.0000,  999.0000,   12.0309,   11.3478,   12.3399,   13.3320,   13.5509,   13.6280,   13.3202,   12.0968,   12.0705,   11.9153,   11.0163,    9.9775,    9.7777,    9.7553,    9.7178,    9.6777,    9.0529,    8.9730,    8.9262,    8.9673,    8.5392,    8.0988,    6.2137,    6.1259,    6.0226,    5.4359,    5.1692,    4.8837,    4.3792,    3.9492,    4.1133,    4.3301,    4.8625,    5.4147,    6.0607,
  8-AUG-2000 23:15:09.00,  999.0000,    0.6961,    1.4831,    2.2637,  999.0000,  999.0000,    4.5305,    4.7745,    3.6348,    3.0099,    3.5760,    4.0193,    4.2168,    4.5027,  999.0000,  999.0000,    5.8215,    6.0463,    5.9848,    6.1248,    6.5008,    7.2369,    8.3443,    8.6452,    8.2137,    8.0805,    8.1858,    8.7768,    9.7087,   10.7475,   11.8520,   11.5011,   11.9704,   12.4397,   12.2634,   11.7039,   10.7238,   10.8982,   10.6679,   10.5079,    9.8444,    9.0498,    8.8592,    8.7964,    8.8890,    9.0075,    8.9223,    8.8117,    8.7357,    8.6627,    8.2505,    7.8213,    6.9054,    5.9871,    5.4036,    4.8402,    4.6770,    4.4787,    3.8755,    3.3818,    3.7635,    4.2006,    4.9694,    5.6728,    6.0679,
  8-AUG-2000 23:20:13.00,  999.0000,  999.0000,  999.0000,  999.0000,  999.0000,  999.0000,  999.0000,  999.0000,    0.8516,    1.2142,  999.0000,  999.0000,    2.5220,    3.0734,    3.8254,    4.3188,    4.4198,    4.3652,    4.1033,    4.4532,    5.5197,    6.2051,    6.4977,    6.5649,    6.4274,    6.8477,  999.0000,  999.0000,  999.0000,  999.0000,   11.1780,   11.4361,   11.7882,   12.0992,   12.0645,   11.1358,  999.0000,   11.4823,   10.8322,   10.0418,    9.6975,    9.4691,    9.2834,    9.1068,    8.9778,    8.8567,    8.8738,    8.9082,    9.0781,    9.2597,    8.7514,    8.2088,    7.3268,    6.4399,    5.5823,    4.7590,    4.6182,    4.4495,    3.9565,    3.5148,    3.4837,    3.5902,    4.5221,    5.4466,    6.3366,
  8-AUG-2000 23:25:18.00,    1.0361,    1.2496,    2.4858,    3.4514,  999.0000,  999.0000,  999.0000,  999.0000,  999.0000,  999.0000,  999.0000,  999.0000,    2.7799,    3.1247,    4.1985,    4.9047,    5.0524,    5.1431,    5.1577,    5.5584,    6.4113,    7.4608,    8.7131,    9.3505,    9.4295,    9.4605,    9.4532,   10.6365,   11.2575,   11.9109,   12.2761,   12.5006,   12.1755,   11.5757,   11.3514,   11.2893,   11.1281,   10.9303,   10.2033,    9.3109,    8.9408,    8.7065,    8.5798,    8.4759,    8.3038,    8.1203,    8.3512,    8.6339,    8.7116,    8.7717,    8.6540,    8.5275,    7.8523,    7.1668,    6.3923,    5.6384,    5.2955,    4.9565,    4.6642,    4.3945,    4.3056,    4.3528,    5.2155,    6.0260,    6.5896,
  8-AUG-2000 23:30:22.00,  999.0000,  999.0000,  999.0000,    4.8258,    3.6262,    2.7016,  999.0000,  999.0000,  999.0000,  999.0000,    2.4748,    2.7744,    3.7633,    4.6486,    5.3537,    5.9026,  999.0000,  999.0000,  999.0000,  999.0000,    7.4607,    7.9055,    8.4877,    9.0764,  999.0000,  999.0000,  999.0000,  999.0000,   12.0485,   11.8931,   12.1492,   12.3899,   11.9368,   11.2188,   10.9873,   10.9359,   10.6691,   10.3226,   10.2128,   10.1771,   10.0783,    9.9630,    9.8493,    9.7359,    9.4021,    9.0316,    8.9993,    9.0093,    8.7819,    8.5341,    8.5746,    8.6295,    8.3543,    8.0694,    7.5188,    6.9461,    5.9335,    4.9815,    4.7299,    4.5333,    4.7763,    5.0676,    5.6486,    6.1927,    6.5622,
  8-AUG-2000 23:35:26.00,  999.0000,  999.0000,  999.0000,  999.0000,  999.0000,  999.0000,  999.0000,  999.0000,  999.0000,  999.0000,  999.0000,  999.0000,  999.0000,  999.0000,    5.0505,    5.4180,    5.6257,    5.7971,    5.9199,    6.2847,  999.0000,  999.0000,    8.2289,    8.4653,    8.3278,    8.7465,  999.0000,   11.3934,   11.4661,   12.0486,   12.6688,   12.1127,   10.9263,   11.2691,   11.5259,   11.9647,   12.0318,   11.9614,   11.9331,   11.9178,   11.3754,   10.6959,   10.0504,    9.4120,    8.9459,    8.5086,    8.4840,    8.5109,    8.2284,    8.0202,    7.7127,    7.7123,    7.4785,    7.2360,    6.4396,    5.6457,    4.9029,    4.1875,    3.7898,    3.4677,    3.7489,    4.0434,    4.4180,    4.8257,    5.3903,
  8-AUG-2000 23:40:30.00,   -2.9785,   -2.9479,   -3.2083,   -3.1709,   -1.9889,   -0.8725,  999.0000,  999.0000,  999.0000,  999.0000,  999.0000,  999.0000,    5.4714,    6.4090,    7.4008,    8.0683,  999.0000,  999.0000,    8.5928,    8.8852,    9.3153,    9.3788,    9.0643,    9.2864,  999.0000,  999.0000,   11.4150,   11.3148,   11.7018,   12.0887,   12.1660,   12.0652,   11.3219,   10.2572,   10.2123,   10.6078,   10.5112,   10.2328,   10.3412,   10.5704,   10.6814,   10.7616,   10.1293,    9.3461,    8.8763,    8.4587,    8.5129,    8.6260,    8.3752,  999.0000,  999.0000,    9.0824,    8.7946,    8.4959,    7.9270,    7.3534,    6.6883,    6.0509,    5.7359,    5.4804,    5.7006,    5.9526,    6.3949,    6.7885,    6.9517,
  8-AUG-2000 23:45:34.00,  999.0000,  999.0000,  999.0000,  999.0000,  999.0000,  999.0000,    1.5009,    2.0328,  999.0000,  999.0000,    2.8645,    3.2247,  999.0000,  999.0000,  999.0000,  999.0000,    5.8556,    6.4773,    7.2263,    7.9410,    8.6154,    8.8915,    8.7569,    8.7645,  999.0000,  999.0000,    9.1749,    8.8647,    9.3533,    9.8654,   10.1012,   10.1782,    9.6580,    8.8392,    9.0009,    9.5863,    9.9149,   10.1486,   10.4613,   10.7987,   10.7935,   10.6991,   10.3706,    9.9926,    9.1991,    8.3364,    8.3038,    8.3750,    7.8057,    7.7534,    7.7095,    7.6309,    7.5139,    7.3937,    6.9927,    6.5820,    5.9779,    5.4167,    5.3504,    5.3216,    5.5921,    5.8618,    6.1268,    6.4316,    6.9237,
  8-AUG-2000 23:50:39.00,  999.0000,  999.0000,  999.0000,  999.0000,  999.0000,  999.0000,  999.0000,  999.0000,    0.6591,    1.6269,    3.0108,    4.0630,    4.4521,    4.7750,    4.9828,    5.3270,    5.8785,    6.2916,  999.0000,  999.0000,  999.0000,  999.0000,    7.4351,    7.4658,    6.6045,    6.6005,    7.0405,    7.9897,    8.9964,    9.8553,   10.2928,   10.3594,   10.4142,   10.4630,   10.4910,   10.6723,   10.0442,    9.0576,    8.7122,    8.5221,    8.8931,    9.4100,    9.3377,    9.1406,    8.3076,    7.3685,    7.3155,    7.3731,    7.4201,    7.4661,    7.4906,    7.5140,    7.7786,    8.0400,    7.8765,    7.6862,    6.9607,    6.2764,    6.0695,    5.8784,    5.8125,    5.8175,    6.2468,    6.6520,    6.9437,
  8-AUG-2000 23:55:43.00,  999.0000,  999.0000,  999.0000,   -0.6939,    0.0595,    0.4387,   -0.3791,   -0.8493,   -0.3797,    0.2410,  999.0000,  999.0000,  999.0000,  999.0000,    5.0930,    5.7322,    5.8682,    6.2605,  999.0000,  999.0000,    8.4615,    8.6265,    8.2052,    8.0009,    6.3924,    6.9683,    7.5813,    8.8358,    9.8877,    9.2968,    9.3938,    9.2523,    9.4444,    9.8033,    9.8569,    9.1839,    9.1781,    9.5794,    9.6168,    9.6981,    9.7887,    9.8816,    9.6559,    9.3628,    8.8873,    8.3814,    8.2277,    8.1180,    7.7603,    7.3813,    7.5962,    7.8407,    8.0662,    8.2888,    8.3528,    8.3717,    7.4930,    6.6396,    6.0796,    5.5665,    5.4276,    5.4045,    6.0755,    6.6868,    7.0158,
